<?xml version="1.0" encoding="UTF-8" standalone="no" ?>
<gpx xmlns="http://www.topografix.com/GPX/1/1" xmlns:xsi="http://www.w3.org/2001/XMLSchema-instance" xsi:schemaLocation="http://www.topografix.com/GPX/1/1 http://www.topografix.com/GPX/1/1/gpx.xsd" version="1.1" creator="VisuGPX - https://www.visugpx.com">
  <metadata>
    <name>A la découverte de gariottes</name>
    <desc><![CDATA[Deux boucles à parcourir successivement au départ de Catus. La première permet de découvrir des gariottes extrêmement bien conservées mais bien dissimulées dans la végétation. La deuxième passe par Salvezou qui abrite une église castrale en cours de restauration avec des peintures murales en cours de réhabilitation.
]]></desc>
  </metadata>
  <trk>
    <name><![CDATA[A la découverte de gariottes_1]]></name>
    <trkseg>
      <trkpt lat="44.55608" lon="1.33743">
        <ele>161.9</ele>
        <time>2020-01-26T13:02:10Z</time>
      </trkpt>
      <trkpt lat="44.55602" lon="1.33745">
        <ele>164.5</ele>
        <time>2020-01-26T13:02:13Z</time>
      </trkpt>
      <trkpt lat="44.55597" lon="1.33747">
        <ele>165.9</ele>
        <time>2020-01-26T13:02:17Z</time>
      </trkpt>
      <trkpt lat="44.55592" lon="1.33753">
        <ele>164.4</ele>
        <time>2020-01-26T13:02:22Z</time>
      </trkpt>
      <trkpt lat="44.55587" lon="1.33757">
        <ele>163.8</ele>
        <time>2020-01-26T13:02:25Z</time>
      </trkpt>
      <trkpt lat="44.55576" lon="1.33766">
        <ele>163.5</ele>
        <time>2020-01-26T13:02:36Z</time>
      </trkpt>
      <trkpt lat="44.55575" lon="1.33772">
        <ele>162.7</ele>
        <time>2020-01-26T13:02:45Z</time>
      </trkpt>
      <trkpt lat="44.55576" lon="1.33779">
        <ele>162.7</ele>
        <time>2020-01-26T13:02:52Z</time>
      </trkpt>
      <trkpt lat="44.55578" lon="1.33797">
        <ele>165.3</ele>
        <time>2020-01-26T13:03:04Z</time>
      </trkpt>
      <trkpt lat="44.55577" lon="1.33804">
        <ele>165.8</ele>
        <time>2020-01-26T13:03:09Z</time>
      </trkpt>
      <trkpt lat="44.55575" lon="1.33811">
        <ele>165.7</ele>
        <time>2020-01-26T13:03:14Z</time>
      </trkpt>
      <trkpt lat="44.55572" lon="1.33818">
        <ele>165.7</ele>
        <time>2020-01-26T13:03:19Z</time>
      </trkpt>
      <trkpt lat="44.5557" lon="1.33823">
        <ele>166</ele>
        <time>2020-01-26T13:03:23Z</time>
      </trkpt>
      <trkpt lat="44.55567" lon="1.33829">
        <ele>166.6</ele>
        <time>2020-01-26T13:03:27Z</time>
      </trkpt>
      <trkpt lat="44.55565" lon="1.33835">
        <ele>167.3</ele>
        <time>2020-01-26T13:03:31Z</time>
      </trkpt>
      <trkpt lat="44.55563" lon="1.33841">
        <ele>167.3</ele>
        <time>2020-01-26T13:03:37Z</time>
      </trkpt>
      <trkpt lat="44.5556" lon="1.33848">
        <ele>167.5</ele>
        <time>2020-01-26T13:03:43Z</time>
      </trkpt>
      <trkpt lat="44.55556" lon="1.33844">
        <ele>165.9</ele>
        <time>2020-01-26T13:03:47Z</time>
      </trkpt>
      <trkpt lat="44.55552" lon="1.33842">
        <ele>164.9</ele>
        <time>2020-01-26T13:03:51Z</time>
      </trkpt>
      <trkpt lat="44.55546" lon="1.33842">
        <ele>164.3</ele>
        <time>2020-01-26T13:03:58Z</time>
      </trkpt>
      <trkpt lat="44.55544" lon="1.33836">
        <ele>164</ele>
        <time>2020-01-26T13:04:04Z</time>
      </trkpt>
      <trkpt lat="44.55542" lon="1.3383">
        <ele>163.5</ele>
        <time>2020-01-26T13:04:10Z</time>
      </trkpt>
      <trkpt lat="44.5554" lon="1.33823">
        <ele>163.1</ele>
        <time>2020-01-26T13:04:14Z</time>
      </trkpt>
      <trkpt lat="44.55541" lon="1.33816">
        <ele>164.4</ele>
        <time>2020-01-26T13:04:19Z</time>
      </trkpt>
      <trkpt lat="44.55541" lon="1.33809">
        <ele>164.9</ele>
        <time>2020-01-26T13:04:31Z</time>
      </trkpt>
      <trkpt lat="44.55539" lon="1.33802">
        <ele>165.2</ele>
        <time>2020-01-26T13:04:46Z</time>
      </trkpt>
      <trkpt lat="44.55537" lon="1.33796">
        <ele>165.1</ele>
        <time>2020-01-26T13:04:50Z</time>
      </trkpt>
      <trkpt lat="44.55535" lon="1.33788">
        <ele>165.3</ele>
        <time>2020-01-26T13:04:54Z</time>
      </trkpt>
      <trkpt lat="44.55534" lon="1.33782">
        <ele>164.9</ele>
        <time>2020-01-26T13:04:57Z</time>
      </trkpt>
      <trkpt lat="44.55531" lon="1.33775">
        <ele>164.4</ele>
        <time>2020-01-26T13:05:01Z</time>
      </trkpt>
      <trkpt lat="44.55532" lon="1.33768">
        <ele>164.9</ele>
        <time>2020-01-26T13:05:05Z</time>
      </trkpt>
      <trkpt lat="44.55532" lon="1.33761">
        <ele>165.5</ele>
        <time>2020-01-26T13:05:10Z</time>
      </trkpt>
      <trkpt lat="44.55527" lon="1.33737">
        <ele>168.2</ele>
        <time>2020-01-26T13:05:27Z</time>
      </trkpt>
      <trkpt lat="44.55523" lon="1.33727">
        <ele>174.5</ele>
        <time>2020-01-26T13:05:39Z</time>
      </trkpt>
      <trkpt lat="44.55514" lon="1.33725">
        <ele>173.2</ele>
        <time>2020-01-26T13:05:43Z</time>
      </trkpt>
      <trkpt lat="44.55483" lon="1.33716">
        <ele>165.8</ele>
        <time>2020-01-26T13:05:51Z</time>
      </trkpt>
      <trkpt lat="44.5548" lon="1.33712">
        <ele>165.1</ele>
        <time>2020-01-26T13:05:53Z</time>
      </trkpt>
      <trkpt lat="44.55479" lon="1.33705">
        <ele>163.7</ele>
        <time>2020-01-26T13:05:57Z</time>
      </trkpt>
      <trkpt lat="44.55477" lon="1.33698">
        <ele>162.9</ele>
        <time>2020-01-26T13:06:02Z</time>
      </trkpt>
      <trkpt lat="44.55472" lon="1.33696">
        <ele>163.9</ele>
        <time>2020-01-26T13:06:19Z</time>
      </trkpt>
      <trkpt lat="44.55467" lon="1.33696">
        <ele>163.7</ele>
        <time>2020-01-26T13:06:21Z</time>
      </trkpt>
      <trkpt lat="44.55463" lon="1.33696">
        <ele>163.7</ele>
        <time>2020-01-26T13:06:24Z</time>
      </trkpt>
      <trkpt lat="44.55458" lon="1.33696">
        <ele>162.8</ele>
        <time>2020-01-26T13:06:31Z</time>
      </trkpt>
      <trkpt lat="44.55459" lon="1.33693">
        <ele>166.7</ele>
        <time>2020-01-26T13:08:06Z</time>
      </trkpt>
      <trkpt lat="44.55458" lon="1.33687">
        <ele>169</ele>
        <time>2020-01-26T13:08:28Z</time>
      </trkpt>
      <trkpt lat="44.55457" lon="1.3368">
        <ele>170.1</ele>
        <time>2020-01-26T13:08:31Z</time>
      </trkpt>
      <trkpt lat="44.55456" lon="1.33674">
        <ele>172.6</ele>
        <time>2020-01-26T13:08:36Z</time>
      </trkpt>
      <trkpt lat="44.55457" lon="1.33668">
        <ele>176</ele>
        <time>2020-01-26T13:08:50Z</time>
      </trkpt>
      <trkpt lat="44.55452" lon="1.33662">
        <ele>175.8</ele>
        <time>2020-01-26T13:08:52Z</time>
      </trkpt>
      <trkpt lat="44.55443" lon="1.33655">
        <ele>175.3</ele>
        <time>2020-01-26T13:08:55Z</time>
      </trkpt>
      <trkpt lat="44.55436" lon="1.33649">
        <ele>175.2</ele>
        <time>2020-01-26T13:08:57Z</time>
      </trkpt>
      <trkpt lat="44.55432" lon="1.33644">
        <ele>174.9</ele>
        <time>2020-01-26T13:08:59Z</time>
      </trkpt>
      <trkpt lat="44.5544" lon="1.3363">
        <ele>179</ele>
        <time>2020-01-26T13:09:16Z</time>
      </trkpt>
      <trkpt lat="44.55441" lon="1.33624">
        <ele>185.9</ele>
        <time>2020-01-26T13:09:43Z</time>
      </trkpt>
      <trkpt lat="44.55436" lon="1.33624">
        <ele>185.2</ele>
        <time>2020-01-26T13:10:02Z</time>
      </trkpt>
      <trkpt lat="44.55432" lon="1.33625">
        <ele>184.8</ele>
        <time>2020-01-26T13:10:11Z</time>
      </trkpt>
      <trkpt lat="44.55428" lon="1.33631">
        <ele>186.1</ele>
        <time>2020-01-26T13:10:18Z</time>
      </trkpt>
      <trkpt lat="44.55423" lon="1.33633">
        <ele>187.6</ele>
        <time>2020-01-26T13:10:24Z</time>
      </trkpt>
      <trkpt lat="44.55412" lon="1.33616">
        <ele>192.8</ele>
        <time>2020-01-26T13:10:50Z</time>
      </trkpt>
      <trkpt lat="44.55408" lon="1.33609">
        <ele>194.9</ele>
        <time>2020-01-26T13:11:13Z</time>
      </trkpt>
      <trkpt lat="44.55405" lon="1.33603">
        <ele>196.2</ele>
        <time>2020-01-26T13:11:17Z</time>
      </trkpt>
      <trkpt lat="44.55401" lon="1.33599">
        <ele>199.6</ele>
        <time>2020-01-26T13:11:25Z</time>
      </trkpt>
      <trkpt lat="44.55397" lon="1.33595">
        <ele>201</ele>
        <time>2020-01-26T13:11:35Z</time>
      </trkpt>
      <trkpt lat="44.55391" lon="1.33588">
        <ele>202.2</ele>
        <time>2020-01-26T13:11:37Z</time>
      </trkpt>
      <trkpt lat="44.55385" lon="1.33582">
        <ele>203.2</ele>
        <time>2020-01-26T13:11:39Z</time>
      </trkpt>
      <trkpt lat="44.5538" lon="1.33577">
        <ele>203.5</ele>
        <time>2020-01-26T13:11:41Z</time>
      </trkpt>
      <trkpt lat="44.55379" lon="1.33563">
        <ele>210.5</ele>
        <time>2020-01-26T13:12:03Z</time>
      </trkpt>
      <trkpt lat="44.55378" lon="1.33556">
        <ele>210.5</ele>
        <time>2020-01-26T13:12:07Z</time>
      </trkpt>
      <trkpt lat="44.5538" lon="1.33532">
        <ele>208.7</ele>
        <time>2020-01-26T13:12:27Z</time>
      </trkpt>
      <trkpt lat="44.55378" lon="1.33525">
        <ele>210</ele>
        <time>2020-01-26T13:12:34Z</time>
      </trkpt>
      <trkpt lat="44.55376" lon="1.33518">
        <ele>211.3</ele>
        <time>2020-01-26T13:12:39Z</time>
      </trkpt>
      <trkpt lat="44.55373" lon="1.33509">
        <ele>216.8</ele>
        <time>2020-01-26T13:14:04Z</time>
      </trkpt>
      <trkpt lat="44.55372" lon="1.33502">
        <ele>216.4</ele>
        <time>2020-01-26T13:14:13Z</time>
      </trkpt>
      <trkpt lat="44.55369" lon="1.33509">
        <ele>216.4</ele>
        <time>2020-01-26T13:16:10Z</time>
      </trkpt>
      <trkpt lat="44.55369" lon="1.33516">
        <ele>215.6</ele>
        <time>2020-01-26T13:16:15Z</time>
      </trkpt>
      <trkpt lat="44.55367" lon="1.33523">
        <ele>214.7</ele>
        <time>2020-01-26T13:16:23Z</time>
      </trkpt>
      <trkpt lat="44.55366" lon="1.33534">
        <ele>215.9</ele>
        <time>2020-01-26T13:16:43Z</time>
      </trkpt>
      <trkpt lat="44.55365" lon="1.33541">
        <ele>216.8</ele>
        <time>2020-01-26T13:16:47Z</time>
      </trkpt>
      <trkpt lat="44.55364" lon="1.33547">
        <ele>218.2</ele>
        <time>2020-01-26T13:16:59Z</time>
      </trkpt>
      <trkpt lat="44.55362" lon="1.33554">
        <ele>218.9</ele>
        <time>2020-01-26T13:17:03Z</time>
      </trkpt>
      <trkpt lat="44.55356" lon="1.33556">
        <ele>222.7</ele>
        <time>2020-01-26T13:18:15Z</time>
      </trkpt>
      <trkpt lat="44.55354" lon="1.33551">
        <ele>225.1</ele>
        <time>2020-01-26T13:18:20Z</time>
      </trkpt>
      <trkpt lat="44.5535" lon="1.33547">
        <ele>225.6</ele>
        <time>2020-01-26T13:18:24Z</time>
      </trkpt>
      <trkpt lat="44.55346" lon="1.33543">
        <ele>226.8</ele>
        <time>2020-01-26T13:19:01Z</time>
      </trkpt>
      <trkpt lat="44.55342" lon="1.3354">
        <ele>226.6</ele>
        <time>2020-01-26T13:19:04Z</time>
      </trkpt>
      <trkpt lat="44.55337" lon="1.33536">
        <ele>226.3</ele>
        <time>2020-01-26T13:19:08Z</time>
      </trkpt>
      <trkpt lat="44.55334" lon="1.33532">
        <ele>226.1</ele>
        <time>2020-01-26T13:19:22Z</time>
      </trkpt>
      <trkpt lat="44.5533" lon="1.33528">
        <ele>226.7</ele>
        <time>2020-01-26T13:19:48Z</time>
      </trkpt>
      <trkpt lat="44.55325" lon="1.33522">
        <ele>226.4</ele>
        <time>2020-01-26T13:19:52Z</time>
      </trkpt>
      <trkpt lat="44.5532" lon="1.33503">
        <ele>230.2</ele>
        <time>2020-01-26T13:20:05Z</time>
      </trkpt>
      <trkpt lat="44.55317" lon="1.33497">
        <ele>231.3</ele>
        <time>2020-01-26T13:20:12Z</time>
      </trkpt>
      <trkpt lat="44.55315" lon="1.3349">
        <ele>233.7</ele>
        <time>2020-01-26T13:20:17Z</time>
      </trkpt>
      <trkpt lat="44.55314" lon="1.33484">
        <ele>235.8</ele>
        <time>2020-01-26T13:20:22Z</time>
      </trkpt>
      <trkpt lat="44.55314" lon="1.33477">
        <ele>238.7</ele>
        <time>2020-01-26T13:21:32Z</time>
      </trkpt>
      <trkpt lat="44.55311" lon="1.33472">
        <ele>237.8</ele>
        <time>2020-01-26T13:21:37Z</time>
      </trkpt>
      <trkpt lat="44.55309" lon="1.33464">
        <ele>237.4</ele>
        <time>2020-01-26T13:21:42Z</time>
      </trkpt>
      <trkpt lat="44.55307" lon="1.33458">
        <ele>237.2</ele>
        <time>2020-01-26T13:21:48Z</time>
      </trkpt>
      <trkpt lat="44.55306" lon="1.33451">
        <ele>237.3</ele>
        <time>2020-01-26T13:21:57Z</time>
      </trkpt>
      <trkpt lat="44.55304" lon="1.33445">
        <ele>236.7</ele>
        <time>2020-01-26T13:22:01Z</time>
      </trkpt>
      <trkpt lat="44.55302" lon="1.33439">
        <ele>236.9</ele>
        <time>2020-01-26T13:22:06Z</time>
      </trkpt>
      <trkpt lat="44.55298" lon="1.33434">
        <ele>236.3</ele>
        <time>2020-01-26T13:22:11Z</time>
      </trkpt>
      <trkpt lat="44.55295" lon="1.33429">
        <ele>236.3</ele>
        <time>2020-01-26T13:22:17Z</time>
      </trkpt>
      <trkpt lat="44.55292" lon="1.33423">
        <ele>236.4</ele>
        <time>2020-01-26T13:22:23Z</time>
      </trkpt>
      <trkpt lat="44.55289" lon="1.33418">
        <ele>235.4</ele>
        <time>2020-01-26T13:22:38Z</time>
      </trkpt>
      <trkpt lat="44.55286" lon="1.33412">
        <ele>233.2</ele>
        <time>2020-01-26T13:22:43Z</time>
      </trkpt>
      <trkpt lat="44.55285" lon="1.33406">
        <ele>232.6</ele>
        <time>2020-01-26T13:22:47Z</time>
      </trkpt>
      <trkpt lat="44.55281" lon="1.334">
        <ele>231.7</ele>
        <time>2020-01-26T13:22:51Z</time>
      </trkpt>
      <trkpt lat="44.55278" lon="1.33395">
        <ele>230.6</ele>
        <time>2020-01-26T13:22:56Z</time>
      </trkpt>
      <trkpt lat="44.55273" lon="1.33393">
        <ele>231.2</ele>
        <time>2020-01-26T13:23:05Z</time>
      </trkpt>
      <trkpt lat="44.55268" lon="1.3339">
        <ele>232.7</ele>
        <time>2020-01-26T13:23:24Z</time>
      </trkpt>
      <trkpt lat="44.55263" lon="1.3339">
        <ele>232</ele>
        <time>2020-01-26T13:23:29Z</time>
      </trkpt>
      <trkpt lat="44.55257" lon="1.3339">
        <ele>232</ele>
        <time>2020-01-26T13:23:34Z</time>
      </trkpt>
      <trkpt lat="44.55253" lon="1.33387">
        <ele>233.9</ele>
        <time>2020-01-26T13:23:38Z</time>
      </trkpt>
      <trkpt lat="44.55248" lon="1.33385">
        <ele>236.7</ele>
        <time>2020-01-26T13:23:43Z</time>
      </trkpt>
      <trkpt lat="44.55244" lon="1.3338">
        <ele>236.3</ele>
        <time>2020-01-26T13:24:03Z</time>
      </trkpt>
      <trkpt lat="44.5524" lon="1.33374">
        <ele>235.4</ele>
        <time>2020-01-26T13:24:11Z</time>
      </trkpt>
      <trkpt lat="44.55235" lon="1.33371">
        <ele>234.9</ele>
        <time>2020-01-26T13:24:15Z</time>
      </trkpt>
      <trkpt lat="44.55232" lon="1.33367">
        <ele>234.3</ele>
        <time>2020-01-26T13:24:19Z</time>
      </trkpt>
      <trkpt lat="44.55227" lon="1.33366">
        <ele>234.2</ele>
        <time>2020-01-26T13:24:24Z</time>
      </trkpt>
      <trkpt lat="44.55223" lon="1.33369">
        <ele>234.6</ele>
        <time>2020-01-26T13:24:32Z</time>
      </trkpt>
      <trkpt lat="44.55219" lon="1.33373">
        <ele>235.5</ele>
        <time>2020-01-26T13:24:38Z</time>
      </trkpt>
      <trkpt lat="44.55215" lon="1.33376">
        <ele>235.8</ele>
        <time>2020-01-26T13:24:43Z</time>
      </trkpt>
      <trkpt lat="44.5521" lon="1.33374">
        <ele>236</ele>
        <time>2020-01-26T13:24:50Z</time>
      </trkpt>
      <trkpt lat="44.55206" lon="1.33369">
        <ele>238.5</ele>
        <time>2020-01-26T13:24:58Z</time>
      </trkpt>
      <trkpt lat="44.55202" lon="1.33367">
        <ele>240.6</ele>
        <time>2020-01-26T13:25:04Z</time>
      </trkpt>
      <trkpt lat="44.55197" lon="1.33366">
        <ele>241</ele>
        <time>2020-01-26T13:25:09Z</time>
      </trkpt>
      <trkpt lat="44.55192" lon="1.33365">
        <ele>241.6</ele>
        <time>2020-01-26T13:25:13Z</time>
      </trkpt>
      <trkpt lat="44.55187" lon="1.33365">
        <ele>242.4</ele>
        <time>2020-01-26T13:25:18Z</time>
      </trkpt>
      <trkpt lat="44.55182" lon="1.33362">
        <ele>242.2</ele>
        <time>2020-01-26T13:25:27Z</time>
      </trkpt>
      <trkpt lat="44.55177" lon="1.3336">
        <ele>241.3</ele>
        <time>2020-01-26T13:25:32Z</time>
      </trkpt>
      <trkpt lat="44.55172" lon="1.33363">
        <ele>239.7</ele>
        <time>2020-01-26T13:25:37Z</time>
      </trkpt>
      <trkpt lat="44.55167" lon="1.33365">
        <ele>239.5</ele>
        <time>2020-01-26T13:25:41Z</time>
      </trkpt>
      <trkpt lat="44.55161" lon="1.33367">
        <ele>239.8</ele>
        <time>2020-01-26T13:25:45Z</time>
      </trkpt>
      <trkpt lat="44.55157" lon="1.33369">
        <ele>239</ele>
        <time>2020-01-26T13:25:51Z</time>
      </trkpt>
      <trkpt lat="44.55154" lon="1.33374">
        <ele>239</ele>
        <time>2020-01-26T13:25:55Z</time>
      </trkpt>
      <trkpt lat="44.5515" lon="1.33379">
        <ele>240</ele>
        <time>2020-01-26T13:26:00Z</time>
      </trkpt>
      <trkpt lat="44.55147" lon="1.33383">
        <ele>240.2</ele>
        <time>2020-01-26T13:26:07Z</time>
      </trkpt>
      <trkpt lat="44.55142" lon="1.33389">
        <ele>240.3</ele>
        <time>2020-01-26T13:26:15Z</time>
      </trkpt>
      <trkpt lat="44.55139" lon="1.33395">
        <ele>239.9</ele>
        <time>2020-01-26T13:26:20Z</time>
      </trkpt>
      <trkpt lat="44.55138" lon="1.33401">
        <ele>240</ele>
        <time>2020-01-26T13:26:25Z</time>
      </trkpt>
      <trkpt lat="44.55135" lon="1.33407">
        <ele>240.6</ele>
        <time>2020-01-26T13:26:30Z</time>
      </trkpt>
      <trkpt lat="44.55133" lon="1.33413">
        <ele>241.1</ele>
        <time>2020-01-26T13:26:35Z</time>
      </trkpt>
      <trkpt lat="44.55131" lon="1.33419">
        <ele>240.3</ele>
        <time>2020-01-26T13:26:41Z</time>
      </trkpt>
      <trkpt lat="44.55132" lon="1.33426">
        <ele>240.1</ele>
        <time>2020-01-26T13:26:48Z</time>
      </trkpt>
      <trkpt lat="44.55135" lon="1.3343">
        <ele>240.6</ele>
        <time>2020-01-26T13:28:22Z</time>
      </trkpt>
      <trkpt lat="44.5514" lon="1.33433">
        <ele>241.4</ele>
        <time>2020-01-26T13:28:28Z</time>
      </trkpt>
      <trkpt lat="44.55144" lon="1.33435">
        <ele>242.7</ele>
        <time>2020-01-26T13:28:33Z</time>
      </trkpt>
      <trkpt lat="44.55149" lon="1.33438">
        <ele>242.5</ele>
        <time>2020-01-26T13:28:39Z</time>
      </trkpt>
      <trkpt lat="44.55153" lon="1.33439">
        <ele>241.8</ele>
        <time>2020-01-26T13:28:45Z</time>
      </trkpt>
      <trkpt lat="44.55158" lon="1.33443">
        <ele>242.2</ele>
        <time>2020-01-26T13:28:51Z</time>
      </trkpt>
      <trkpt lat="44.55163" lon="1.33446">
        <ele>243.3</ele>
        <time>2020-01-26T13:28:56Z</time>
      </trkpt>
      <trkpt lat="44.55167" lon="1.33448">
        <ele>244</ele>
        <time>2020-01-26T13:29:00Z</time>
      </trkpt>
      <trkpt lat="44.55171" lon="1.33451">
        <ele>245.6</ele>
        <time>2020-01-26T13:29:05Z</time>
      </trkpt>
      <trkpt lat="44.55176" lon="1.33453">
        <ele>247.5</ele>
        <time>2020-01-26T13:29:11Z</time>
      </trkpt>
      <trkpt lat="44.5518" lon="1.33456">
        <ele>246.6</ele>
        <time>2020-01-26T13:29:17Z</time>
      </trkpt>
      <trkpt lat="44.55185" lon="1.33458">
        <ele>245.4</ele>
        <time>2020-01-26T13:29:23Z</time>
      </trkpt>
      <trkpt lat="44.5519" lon="1.33459">
        <ele>245.2</ele>
        <time>2020-01-26T13:29:30Z</time>
      </trkpt>
      <trkpt lat="44.55195" lon="1.3346">
        <ele>246.2</ele>
        <time>2020-01-26T13:29:35Z</time>
      </trkpt>
      <trkpt lat="44.55199" lon="1.33462">
        <ele>247.4</ele>
        <time>2020-01-26T13:29:40Z</time>
      </trkpt>
      <trkpt lat="44.55204" lon="1.33462">
        <ele>248.4</ele>
        <time>2020-01-26T13:29:45Z</time>
      </trkpt>
      <trkpt lat="44.55209" lon="1.33464">
        <ele>249</ele>
        <time>2020-01-26T13:29:50Z</time>
      </trkpt>
      <trkpt lat="44.55213" lon="1.33467">
        <ele>249</ele>
        <time>2020-01-26T13:29:56Z</time>
      </trkpt>
      <trkpt lat="44.55217" lon="1.33472">
        <ele>250.3</ele>
        <time>2020-01-26T13:30:02Z</time>
      </trkpt>
      <trkpt lat="44.55222" lon="1.33476">
        <ele>251.4</ele>
        <time>2020-01-26T13:30:07Z</time>
      </trkpt>
      <trkpt lat="44.55225" lon="1.3348">
        <ele>252.4</ele>
        <time>2020-01-26T13:30:12Z</time>
      </trkpt>
      <trkpt lat="44.55228" lon="1.33486">
        <ele>252.5</ele>
        <time>2020-01-26T13:30:18Z</time>
      </trkpt>
      <trkpt lat="44.55231" lon="1.33491">
        <ele>249.3</ele>
        <time>2020-01-26T13:30:26Z</time>
      </trkpt>
      <trkpt lat="44.55234" lon="1.33497">
        <ele>245.9</ele>
        <time>2020-01-26T13:30:33Z</time>
      </trkpt>
      <trkpt lat="44.55237" lon="1.33503">
        <ele>244.7</ele>
        <time>2020-01-26T13:30:39Z</time>
      </trkpt>
      <trkpt lat="44.5524" lon="1.33508">
        <ele>244.8</ele>
        <time>2020-01-26T13:30:44Z</time>
      </trkpt>
      <trkpt lat="44.55245" lon="1.33512">
        <ele>244.4</ele>
        <time>2020-01-26T13:30:51Z</time>
      </trkpt>
      <trkpt lat="44.55249" lon="1.33513">
        <ele>239.6</ele>
        <time>2020-01-26T13:31:10Z</time>
      </trkpt>
      <trkpt lat="44.55254" lon="1.33514">
        <ele>239.4</ele>
        <time>2020-01-26T13:31:23Z</time>
      </trkpt>
      <trkpt lat="44.55257" lon="1.33509">
        <ele>239.9</ele>
        <time>2020-01-26T13:32:12Z</time>
      </trkpt>
      <trkpt lat="44.55254" lon="1.33512">
        <ele>240.5</ele>
        <time>2020-01-26T13:37:37Z</time>
      </trkpt>
      <trkpt lat="44.55249" lon="1.33511">
        <ele>241.7</ele>
        <time>2020-01-26T13:37:45Z</time>
      </trkpt>
      <trkpt lat="44.55244" lon="1.33509">
        <ele>239.8</ele>
        <time>2020-01-26T13:37:57Z</time>
      </trkpt>
      <trkpt lat="44.55241" lon="1.33504">
        <ele>239.1</ele>
        <time>2020-01-26T13:38:04Z</time>
      </trkpt>
      <trkpt lat="44.55238" lon="1.33499">
        <ele>237.5</ele>
        <time>2020-01-26T13:38:16Z</time>
      </trkpt>
      <trkpt lat="44.55234" lon="1.33494">
        <ele>237.6</ele>
        <time>2020-01-26T13:38:25Z</time>
      </trkpt>
      <trkpt lat="44.55232" lon="1.33488">
        <ele>237.3</ele>
        <time>2020-01-26T13:38:32Z</time>
      </trkpt>
      <trkpt lat="44.55228" lon="1.33484">
        <ele>236.5</ele>
        <time>2020-01-26T13:38:39Z</time>
      </trkpt>
      <trkpt lat="44.55225" lon="1.3348">
        <ele>235.3</ele>
        <time>2020-01-26T13:38:45Z</time>
      </trkpt>
      <trkpt lat="44.55221" lon="1.33475">
        <ele>235</ele>
        <time>2020-01-26T13:38:50Z</time>
      </trkpt>
      <trkpt lat="44.55216" lon="1.33466">
        <ele>237.5</ele>
        <time>2020-01-26T13:38:52Z</time>
      </trkpt>
      <trkpt lat="44.55212" lon="1.33462">
        <ele>239.6</ele>
        <time>2020-01-26T13:38:55Z</time>
      </trkpt>
      <trkpt lat="44.55207" lon="1.33461">
        <ele>241.7</ele>
        <time>2020-01-26T13:39:00Z</time>
      </trkpt>
      <trkpt lat="44.55202" lon="1.3346">
        <ele>244</ele>
        <time>2020-01-26T13:39:06Z</time>
      </trkpt>
      <trkpt lat="44.55198" lon="1.33456">
        <ele>244</ele>
        <time>2020-01-26T13:39:12Z</time>
      </trkpt>
      <trkpt lat="44.55192" lon="1.33456">
        <ele>242.8</ele>
        <time>2020-01-26T13:39:18Z</time>
      </trkpt>
      <trkpt lat="44.55187" lon="1.33455">
        <ele>242.8</ele>
        <time>2020-01-26T13:39:23Z</time>
      </trkpt>
      <trkpt lat="44.55182" lon="1.33456">
        <ele>243.1</ele>
        <time>2020-01-26T13:39:28Z</time>
      </trkpt>
      <trkpt lat="44.55178" lon="1.33452">
        <ele>242.2</ele>
        <time>2020-01-26T13:39:36Z</time>
      </trkpt>
      <trkpt lat="44.55174" lon="1.33449">
        <ele>242</ele>
        <time>2020-01-26T13:39:41Z</time>
      </trkpt>
      <trkpt lat="44.55169" lon="1.33446">
        <ele>242.5</ele>
        <time>2020-01-26T13:39:46Z</time>
      </trkpt>
      <trkpt lat="44.55164" lon="1.33443">
        <ele>242.8</ele>
        <time>2020-01-26T13:39:52Z</time>
      </trkpt>
      <trkpt lat="44.55159" lon="1.33441">
        <ele>242.4</ele>
        <time>2020-01-26T13:39:57Z</time>
      </trkpt>
      <trkpt lat="44.55155" lon="1.33438">
        <ele>242.9</ele>
        <time>2020-01-26T13:40:02Z</time>
      </trkpt>
      <trkpt lat="44.5515" lon="1.33436">
        <ele>241.5</ele>
        <time>2020-01-26T13:40:09Z</time>
      </trkpt>
      <trkpt lat="44.55144" lon="1.33435">
        <ele>243.2</ele>
        <time>2020-01-26T13:40:13Z</time>
      </trkpt>
      <trkpt lat="44.5514" lon="1.33434">
        <ele>244.7</ele>
        <time>2020-01-26T13:40:17Z</time>
      </trkpt>
      <trkpt lat="44.55137" lon="1.33429">
        <ele>245.7</ele>
        <time>2020-01-26T13:40:23Z</time>
      </trkpt>
      <trkpt lat="44.55136" lon="1.33422">
        <ele>246</ele>
        <time>2020-01-26T13:40:28Z</time>
      </trkpt>
      <trkpt lat="44.55136" lon="1.33415">
        <ele>245.7</ele>
        <time>2020-01-26T13:40:32Z</time>
      </trkpt>
      <trkpt lat="44.55135" lon="1.33409">
        <ele>245.5</ele>
        <time>2020-01-26T13:40:36Z</time>
      </trkpt>
      <trkpt lat="44.55135" lon="1.33401">
        <ele>244.3</ele>
        <time>2020-01-26T13:40:42Z</time>
      </trkpt>
      <trkpt lat="44.55132" lon="1.33394">
        <ele>245.6</ele>
        <time>2020-01-26T13:40:45Z</time>
      </trkpt>
      <trkpt lat="44.55132" lon="1.33387">
        <ele>244</ele>
        <time>2020-01-26T13:40:53Z</time>
      </trkpt>
      <trkpt lat="44.55131" lon="1.33378">
        <ele>243.9</ele>
        <time>2020-01-26T13:41:00Z</time>
      </trkpt>
      <trkpt lat="44.55128" lon="1.33372">
        <ele>242.7</ele>
        <time>2020-01-26T13:41:05Z</time>
      </trkpt>
      <trkpt lat="44.55126" lon="1.33365">
        <ele>241.7</ele>
        <time>2020-01-26T13:41:11Z</time>
      </trkpt>
      <trkpt lat="44.55125" lon="1.33358">
        <ele>241</ele>
        <time>2020-01-26T13:41:17Z</time>
      </trkpt>
      <trkpt lat="44.55125" lon="1.33351">
        <ele>241.2</ele>
        <time>2020-01-26T13:41:24Z</time>
      </trkpt>
      <trkpt lat="44.55123" lon="1.33344">
        <ele>241.2</ele>
        <time>2020-01-26T13:41:29Z</time>
      </trkpt>
      <trkpt lat="44.55121" lon="1.33337">
        <ele>241.3</ele>
        <time>2020-01-26T13:41:34Z</time>
      </trkpt>
      <trkpt lat="44.55116" lon="1.33333">
        <ele>240.7</ele>
        <time>2020-01-26T13:41:39Z</time>
      </trkpt>
      <trkpt lat="44.55111" lon="1.33332">
        <ele>239.6</ele>
        <time>2020-01-26T13:41:45Z</time>
      </trkpt>
      <trkpt lat="44.55106" lon="1.33334">
        <ele>238.7</ele>
        <time>2020-01-26T13:41:50Z</time>
      </trkpt>
      <trkpt lat="44.55101" lon="1.33336">
        <ele>238.4</ele>
        <time>2020-01-26T13:41:54Z</time>
      </trkpt>
      <trkpt lat="44.55097" lon="1.33338">
        <ele>238.1</ele>
        <time>2020-01-26T13:41:58Z</time>
      </trkpt>
      <trkpt lat="44.55092" lon="1.33339">
        <ele>237.9</ele>
        <time>2020-01-26T13:42:03Z</time>
      </trkpt>
      <trkpt lat="44.55087" lon="1.33342">
        <ele>237.2</ele>
        <time>2020-01-26T13:42:08Z</time>
      </trkpt>
      <trkpt lat="44.55082" lon="1.33344">
        <ele>236.7</ele>
        <time>2020-01-26T13:42:14Z</time>
      </trkpt>
      <trkpt lat="44.55078" lon="1.33347">
        <ele>236.2</ele>
        <time>2020-01-26T13:42:19Z</time>
      </trkpt>
      <trkpt lat="44.55074" lon="1.3335">
        <ele>236.4</ele>
        <time>2020-01-26T13:42:24Z</time>
      </trkpt>
      <trkpt lat="44.55069" lon="1.33353">
        <ele>236.1</ele>
        <time>2020-01-26T13:42:29Z</time>
      </trkpt>
      <trkpt lat="44.55065" lon="1.33356">
        <ele>234.8</ele>
        <time>2020-01-26T13:42:35Z</time>
      </trkpt>
      <trkpt lat="44.5506" lon="1.33357">
        <ele>234.3</ele>
        <time>2020-01-26T13:42:40Z</time>
      </trkpt>
      <trkpt lat="44.55055" lon="1.33359">
        <ele>234.1</ele>
        <time>2020-01-26T13:42:45Z</time>
      </trkpt>
      <trkpt lat="44.55051" lon="1.33361">
        <ele>233.4</ele>
        <time>2020-01-26T13:42:50Z</time>
      </trkpt>
      <trkpt lat="44.55046" lon="1.33363">
        <ele>232.7</ele>
        <time>2020-01-26T13:42:55Z</time>
      </trkpt>
      <trkpt lat="44.55041" lon="1.33364">
        <ele>232.5</ele>
        <time>2020-01-26T13:43:01Z</time>
      </trkpt>
      <trkpt lat="44.55036" lon="1.33365">
        <ele>232.2</ele>
        <time>2020-01-26T13:43:06Z</time>
      </trkpt>
      <trkpt lat="44.5503" lon="1.33368">
        <ele>231.5</ele>
        <time>2020-01-26T13:43:12Z</time>
      </trkpt>
      <trkpt lat="44.55025" lon="1.33369">
        <ele>231.7</ele>
        <time>2020-01-26T13:43:17Z</time>
      </trkpt>
      <trkpt lat="44.5502" lon="1.33369">
        <ele>233.7</ele>
        <time>2020-01-26T13:43:23Z</time>
      </trkpt>
      <trkpt lat="44.55015" lon="1.33371">
        <ele>235.1</ele>
        <time>2020-01-26T13:43:28Z</time>
      </trkpt>
      <trkpt lat="44.55011" lon="1.3337">
        <ele>236.1</ele>
        <time>2020-01-26T13:43:34Z</time>
      </trkpt>
      <trkpt lat="44.55006" lon="1.33373">
        <ele>237.6</ele>
        <time>2020-01-26T13:43:48Z</time>
      </trkpt>
      <trkpt lat="44.55003" lon="1.33368">
        <ele>235.3</ele>
        <time>2020-01-26T13:43:56Z</time>
      </trkpt>
      <trkpt lat="44.55" lon="1.33363">
        <ele>235.2</ele>
        <time>2020-01-26T13:44:24Z</time>
      </trkpt>
      <trkpt lat="44.54996" lon="1.33359">
        <ele>233.3</ele>
        <time>2020-01-26T13:44:32Z</time>
      </trkpt>
      <trkpt lat="44.54992" lon="1.33355">
        <ele>233</ele>
        <time>2020-01-26T13:44:37Z</time>
      </trkpt>
      <trkpt lat="44.54988" lon="1.33351">
        <ele>232.9</ele>
        <time>2020-01-26T13:44:42Z</time>
      </trkpt>
      <trkpt lat="44.54983" lon="1.33347">
        <ele>232.7</ele>
        <time>2020-01-26T13:44:47Z</time>
      </trkpt>
      <trkpt lat="44.54978" lon="1.33345">
        <ele>233.3</ele>
        <time>2020-01-26T13:44:51Z</time>
      </trkpt>
      <trkpt lat="44.54972" lon="1.33344">
        <ele>234.4</ele>
        <time>2020-01-26T13:44:55Z</time>
      </trkpt>
      <trkpt lat="44.54968" lon="1.33344">
        <ele>235.4</ele>
        <time>2020-01-26T13:44:59Z</time>
      </trkpt>
      <trkpt lat="44.54963" lon="1.33341">
        <ele>236</ele>
        <time>2020-01-26T13:45:03Z</time>
      </trkpt>
      <trkpt lat="44.54959" lon="1.33339">
        <ele>236.1</ele>
        <time>2020-01-26T13:45:08Z</time>
      </trkpt>
      <trkpt lat="44.54954" lon="1.33339">
        <ele>236.5</ele>
        <time>2020-01-26T13:45:13Z</time>
      </trkpt>
      <trkpt lat="44.54949" lon="1.33338">
        <ele>237.2</ele>
        <time>2020-01-26T13:45:17Z</time>
      </trkpt>
      <trkpt lat="44.54944" lon="1.33336">
        <ele>236.7</ele>
        <time>2020-01-26T13:45:23Z</time>
      </trkpt>
      <trkpt lat="44.54939" lon="1.33335">
        <ele>237</ele>
        <time>2020-01-26T13:45:28Z</time>
      </trkpt>
      <trkpt lat="44.54934" lon="1.33334">
        <ele>237.2</ele>
        <time>2020-01-26T13:45:33Z</time>
      </trkpt>
      <trkpt lat="44.54928" lon="1.33333">
        <ele>237.4</ele>
        <time>2020-01-26T13:45:38Z</time>
      </trkpt>
      <trkpt lat="44.54924" lon="1.33333">
        <ele>237.7</ele>
        <time>2020-01-26T13:45:43Z</time>
      </trkpt>
      <trkpt lat="44.54918" lon="1.33333">
        <ele>237.8</ele>
        <time>2020-01-26T13:45:48Z</time>
      </trkpt>
      <trkpt lat="44.54914" lon="1.33333">
        <ele>237.8</ele>
        <time>2020-01-26T13:45:52Z</time>
      </trkpt>
      <trkpt lat="44.54909" lon="1.33332">
        <ele>237.5</ele>
        <time>2020-01-26T13:45:57Z</time>
      </trkpt>
      <trkpt lat="44.54904" lon="1.33331">
        <ele>238.1</ele>
        <time>2020-01-26T13:46:01Z</time>
      </trkpt>
      <trkpt lat="44.54899" lon="1.3333">
        <ele>237.6</ele>
        <time>2020-01-26T13:46:06Z</time>
      </trkpt>
      <trkpt lat="44.54894" lon="1.33329">
        <ele>236.8</ele>
        <time>2020-01-26T13:46:11Z</time>
      </trkpt>
      <trkpt lat="44.54889" lon="1.33327">
        <ele>235.8</ele>
        <time>2020-01-26T13:46:16Z</time>
      </trkpt>
      <trkpt lat="44.54884" lon="1.33325">
        <ele>234.8</ele>
        <time>2020-01-26T13:46:21Z</time>
      </trkpt>
      <trkpt lat="44.54879" lon="1.33323">
        <ele>233.6</ele>
        <time>2020-01-26T13:46:27Z</time>
      </trkpt>
      <trkpt lat="44.54873" lon="1.33321">
        <ele>233</ele>
        <time>2020-01-26T13:46:33Z</time>
      </trkpt>
      <trkpt lat="44.54868" lon="1.3332">
        <ele>231.9</ele>
        <time>2020-01-26T13:46:38Z</time>
      </trkpt>
      <trkpt lat="44.54863" lon="1.33319">
        <ele>231</ele>
        <time>2020-01-26T13:46:43Z</time>
      </trkpt>
      <trkpt lat="44.54858" lon="1.33317">
        <ele>231.2</ele>
        <time>2020-01-26T13:46:47Z</time>
      </trkpt>
      <trkpt lat="44.54853" lon="1.33316">
        <ele>230.8</ele>
        <time>2020-01-26T13:46:52Z</time>
      </trkpt>
      <trkpt lat="44.54848" lon="1.33314">
        <ele>231.1</ele>
        <time>2020-01-26T13:46:57Z</time>
      </trkpt>
      <trkpt lat="44.54843" lon="1.33314">
        <ele>230.8</ele>
        <time>2020-01-26T13:47:01Z</time>
      </trkpt>
      <trkpt lat="44.54838" lon="1.33312">
        <ele>230.7</ele>
        <time>2020-01-26T13:47:05Z</time>
      </trkpt>
      <trkpt lat="44.54834" lon="1.33309">
        <ele>231.4</ele>
        <time>2020-01-26T13:47:10Z</time>
      </trkpt>
      <trkpt lat="44.5483" lon="1.33305">
        <ele>230.7</ele>
        <time>2020-01-26T13:47:15Z</time>
      </trkpt>
      <trkpt lat="44.54828" lon="1.33299">
        <ele>229.6</ele>
        <time>2020-01-26T13:47:20Z</time>
      </trkpt>
      <trkpt lat="44.54827" lon="1.33292">
        <ele>230.5</ele>
        <time>2020-01-26T13:47:24Z</time>
      </trkpt>
      <trkpt lat="44.54828" lon="1.33285">
        <ele>231.5</ele>
        <time>2020-01-26T13:47:28Z</time>
      </trkpt>
      <trkpt lat="44.54829" lon="1.33278">
        <ele>231.9</ele>
        <time>2020-01-26T13:47:33Z</time>
      </trkpt>
      <trkpt lat="44.5483" lon="1.33271">
        <ele>231.8</ele>
        <time>2020-01-26T13:47:38Z</time>
      </trkpt>
      <trkpt lat="44.54831" lon="1.33264">
        <ele>232.5</ele>
        <time>2020-01-26T13:47:41Z</time>
      </trkpt>
      <trkpt lat="44.54831" lon="1.33258">
        <ele>233</ele>
        <time>2020-01-26T13:47:44Z</time>
      </trkpt>
      <trkpt lat="44.54831" lon="1.33251">
        <ele>233.2</ele>
        <time>2020-01-26T13:47:48Z</time>
      </trkpt>
      <trkpt lat="44.5483" lon="1.33244">
        <ele>232.6</ele>
        <time>2020-01-26T13:47:53Z</time>
      </trkpt>
      <trkpt lat="44.54829" lon="1.33237">
        <ele>232.7</ele>
        <time>2020-01-26T13:47:57Z</time>
      </trkpt>
      <trkpt lat="44.54827" lon="1.33231">
        <ele>232.3</ele>
        <time>2020-01-26T13:48:01Z</time>
      </trkpt>
      <trkpt lat="44.54825" lon="1.33225">
        <ele>232.2</ele>
        <time>2020-01-26T13:48:05Z</time>
      </trkpt>
      <trkpt lat="44.54822" lon="1.33219">
        <ele>232.2</ele>
        <time>2020-01-26T13:48:09Z</time>
      </trkpt>
      <trkpt lat="44.5482" lon="1.33213">
        <ele>231.3</ele>
        <time>2020-01-26T13:48:14Z</time>
      </trkpt>
      <trkpt lat="44.54818" lon="1.33206">
        <ele>230.5</ele>
        <time>2020-01-26T13:48:19Z</time>
      </trkpt>
      <trkpt lat="44.54816" lon="1.332">
        <ele>230.2</ele>
        <time>2020-01-26T13:48:23Z</time>
      </trkpt>
      <trkpt lat="44.54813" lon="1.33193">
        <ele>230</ele>
        <time>2020-01-26T13:48:28Z</time>
      </trkpt>
      <trkpt lat="44.54812" lon="1.33186">
        <ele>229.3</ele>
        <time>2020-01-26T13:48:33Z</time>
      </trkpt>
      <trkpt lat="44.5481" lon="1.3318">
        <ele>228.7</ele>
        <time>2020-01-26T13:48:38Z</time>
      </trkpt>
      <trkpt lat="44.54809" lon="1.33173">
        <ele>227.6</ele>
        <time>2020-01-26T13:48:44Z</time>
      </trkpt>
      <trkpt lat="44.54808" lon="1.33166">
        <ele>225.8</ele>
        <time>2020-01-26T13:48:50Z</time>
      </trkpt>
      <trkpt lat="44.54806" lon="1.33159">
        <ele>224.6</ele>
        <time>2020-01-26T13:48:56Z</time>
      </trkpt>
      <trkpt lat="44.54807" lon="1.33152">
        <ele>224.2</ele>
        <time>2020-01-26T13:49:03Z</time>
      </trkpt>
      <trkpt lat="44.54808" lon="1.33145">
        <ele>222.7</ele>
        <time>2020-01-26T13:49:10Z</time>
      </trkpt>
      <trkpt lat="44.54811" lon="1.3314">
        <ele>221.4</ele>
        <time>2020-01-26T13:49:17Z</time>
      </trkpt>
      <trkpt lat="44.54814" lon="1.33135">
        <ele>221</ele>
        <time>2020-01-26T13:49:22Z</time>
      </trkpt>
      <trkpt lat="44.54817" lon="1.33131">
        <ele>220.2</ele>
        <time>2020-01-26T13:49:26Z</time>
      </trkpt>
      <trkpt lat="44.54821" lon="1.33126">
        <ele>219.7</ele>
        <time>2020-01-26T13:49:30Z</time>
      </trkpt>
      <trkpt lat="44.54825" lon="1.3312">
        <ele>219.9</ele>
        <time>2020-01-26T13:49:34Z</time>
      </trkpt>
      <trkpt lat="44.54828" lon="1.33115">
        <ele>219.6</ele>
        <time>2020-01-26T13:49:39Z</time>
      </trkpt>
      <trkpt lat="44.54832" lon="1.3311">
        <ele>218.7</ele>
        <time>2020-01-26T13:49:45Z</time>
      </trkpt>
      <trkpt lat="44.54835" lon="1.33105">
        <ele>216.7</ele>
        <time>2020-01-26T13:49:52Z</time>
      </trkpt>
      <trkpt lat="44.54839" lon="1.33099">
        <ele>215.6</ele>
        <time>2020-01-26T13:49:58Z</time>
      </trkpt>
      <trkpt lat="44.54844" lon="1.33095">
        <ele>215.3</ele>
        <time>2020-01-26T13:50:03Z</time>
      </trkpt>
      <trkpt lat="44.54847" lon="1.33091">
        <ele>213.9</ele>
        <time>2020-01-26T13:50:09Z</time>
      </trkpt>
      <trkpt lat="44.54851" lon="1.33086">
        <ele>213.4</ele>
        <time>2020-01-26T13:50:13Z</time>
      </trkpt>
      <trkpt lat="44.54854" lon="1.33081">
        <ele>212.9</ele>
        <time>2020-01-26T13:50:18Z</time>
      </trkpt>
      <trkpt lat="44.54858" lon="1.33076">
        <ele>212.7</ele>
        <time>2020-01-26T13:50:22Z</time>
      </trkpt>
      <trkpt lat="44.54861" lon="1.33072">
        <ele>212.4</ele>
        <time>2020-01-26T13:50:26Z</time>
      </trkpt>
      <trkpt lat="44.54865" lon="1.33067">
        <ele>211.6</ele>
        <time>2020-01-26T13:50:31Z</time>
      </trkpt>
      <trkpt lat="44.5487" lon="1.33062">
        <ele>211.1</ele>
        <time>2020-01-26T13:50:36Z</time>
      </trkpt>
      <trkpt lat="44.54873" lon="1.33058">
        <ele>208.5</ele>
        <time>2020-01-26T13:50:42Z</time>
      </trkpt>
      <trkpt lat="44.54876" lon="1.33053">
        <ele>207.7</ele>
        <time>2020-01-26T13:50:47Z</time>
      </trkpt>
      <trkpt lat="44.54881" lon="1.33048">
        <ele>205.4</ele>
        <time>2020-01-26T13:50:54Z</time>
      </trkpt>
      <trkpt lat="44.54886" lon="1.33045">
        <ele>204.8</ele>
        <time>2020-01-26T13:50:58Z</time>
      </trkpt>
      <trkpt lat="44.5489" lon="1.33042">
        <ele>203.4</ele>
        <time>2020-01-26T13:51:04Z</time>
      </trkpt>
      <trkpt lat="44.54895" lon="1.33037">
        <ele>202.9</ele>
        <time>2020-01-26T13:51:09Z</time>
      </trkpt>
      <trkpt lat="44.54897" lon="1.33031">
        <ele>201</ele>
        <time>2020-01-26T13:51:15Z</time>
      </trkpt>
      <trkpt lat="44.54899" lon="1.33025">
        <ele>199.5</ele>
        <time>2020-01-26T13:51:20Z</time>
      </trkpt>
      <trkpt lat="44.54901" lon="1.33018">
        <ele>200.1</ele>
        <time>2020-01-26T13:51:23Z</time>
      </trkpt>
      <trkpt lat="44.54903" lon="1.33012">
        <ele>200</ele>
        <time>2020-01-26T13:51:27Z</time>
      </trkpt>
      <trkpt lat="44.54906" lon="1.33006">
        <ele>200.4</ele>
        <time>2020-01-26T13:51:32Z</time>
      </trkpt>
      <trkpt lat="44.54909" lon="1.33">
        <ele>200.8</ele>
        <time>2020-01-26T13:51:37Z</time>
      </trkpt>
      <trkpt lat="44.54914" lon="1.32997">
        <ele>201.3</ele>
        <time>2020-01-26T13:51:41Z</time>
      </trkpt>
      <trkpt lat="44.54918" lon="1.32993">
        <ele>200.6</ele>
        <time>2020-01-26T13:51:48Z</time>
      </trkpt>
      <trkpt lat="44.54923" lon="1.32989">
        <ele>200.6</ele>
        <time>2020-01-26T13:51:54Z</time>
      </trkpt>
      <trkpt lat="44.54928" lon="1.32987">
        <ele>200.4</ele>
        <time>2020-01-26T13:51:59Z</time>
      </trkpt>
      <trkpt lat="44.54932" lon="1.32983">
        <ele>199</ele>
        <time>2020-01-26T13:52:05Z</time>
      </trkpt>
      <trkpt lat="44.54936" lon="1.32979">
        <ele>197.4</ele>
        <time>2020-01-26T13:52:11Z</time>
      </trkpt>
      <trkpt lat="44.54936" lon="1.32972">
        <ele>194.2</ele>
        <time>2020-01-26T13:52:18Z</time>
      </trkpt>
      <trkpt lat="44.54938" lon="1.32965">
        <ele>192</ele>
        <time>2020-01-26T13:52:24Z</time>
      </trkpt>
      <trkpt lat="44.54941" lon="1.32959">
        <ele>191.1</ele>
        <time>2020-01-26T13:52:28Z</time>
      </trkpt>
      <trkpt lat="44.54944" lon="1.32954">
        <ele>190.1</ele>
        <time>2020-01-26T13:52:33Z</time>
      </trkpt>
      <trkpt lat="44.54947" lon="1.32949">
        <ele>188.6</ele>
        <time>2020-01-26T13:52:38Z</time>
      </trkpt>
      <trkpt lat="44.5495" lon="1.32943">
        <ele>188.3</ele>
        <time>2020-01-26T13:52:43Z</time>
      </trkpt>
      <trkpt lat="44.54953" lon="1.32938">
        <ele>188.1</ele>
        <time>2020-01-26T13:52:47Z</time>
      </trkpt>
      <trkpt lat="44.54956" lon="1.32931">
        <ele>188.7</ele>
        <time>2020-01-26T13:52:51Z</time>
      </trkpt>
      <trkpt lat="44.54957" lon="1.32924">
        <ele>188.7</ele>
        <time>2020-01-26T13:52:56Z</time>
      </trkpt>
      <trkpt lat="44.54958" lon="1.32917">
        <ele>186.5</ele>
        <time>2020-01-26T13:53:02Z</time>
      </trkpt>
      <trkpt lat="44.5496" lon="1.32911">
        <ele>185.1</ele>
        <time>2020-01-26T13:53:07Z</time>
      </trkpt>
      <trkpt lat="44.54963" lon="1.32905">
        <ele>183</ele>
        <time>2020-01-26T13:53:13Z</time>
      </trkpt>
      <trkpt lat="44.54967" lon="1.329">
        <ele>182.2</ele>
        <time>2020-01-26T13:53:17Z</time>
      </trkpt>
      <trkpt lat="44.5497" lon="1.32895">
        <ele>180.4</ele>
        <time>2020-01-26T13:53:23Z</time>
      </trkpt>
      <trkpt lat="44.54973" lon="1.3289">
        <ele>178.3</ele>
        <time>2020-01-26T13:53:29Z</time>
      </trkpt>
      <trkpt lat="44.54975" lon="1.32884">
        <ele>176.5</ele>
        <time>2020-01-26T13:53:34Z</time>
      </trkpt>
      <trkpt lat="44.54978" lon="1.32879">
        <ele>174.3</ele>
        <time>2020-01-26T13:53:39Z</time>
      </trkpt>
      <trkpt lat="44.54979" lon="1.32873">
        <ele>172.6</ele>
        <time>2020-01-26T13:53:45Z</time>
      </trkpt>
      <trkpt lat="44.5498" lon="1.32866">
        <ele>172.2</ele>
        <time>2020-01-26T13:53:50Z</time>
      </trkpt>
      <trkpt lat="44.5498" lon="1.32858">
        <ele>171.7</ele>
        <time>2020-01-26T13:53:55Z</time>
      </trkpt>
      <trkpt lat="44.54981" lon="1.32851">
        <ele>172.3</ele>
        <time>2020-01-26T13:53:58Z</time>
      </trkpt>
      <trkpt lat="44.5498" lon="1.32844">
        <ele>173.2</ele>
        <time>2020-01-26T13:54:02Z</time>
      </trkpt>
      <trkpt lat="44.54979" lon="1.32837">
        <ele>172.5</ele>
        <time>2020-01-26T13:54:08Z</time>
      </trkpt>
      <trkpt lat="44.54978" lon="1.32831">
        <ele>171.2</ele>
        <time>2020-01-26T13:54:13Z</time>
      </trkpt>
      <trkpt lat="44.54976" lon="1.32824">
        <ele>169.9</ele>
        <time>2020-01-26T13:54:19Z</time>
      </trkpt>
      <trkpt lat="44.54974" lon="1.32818">
        <ele>169.1</ele>
        <time>2020-01-26T13:54:24Z</time>
      </trkpt>
      <trkpt lat="44.54971" lon="1.32813">
        <ele>168.4</ele>
        <time>2020-01-26T13:54:29Z</time>
      </trkpt>
      <trkpt lat="44.54968" lon="1.32807">
        <ele>168.2</ele>
        <time>2020-01-26T13:54:33Z</time>
      </trkpt>
      <trkpt lat="44.54963" lon="1.32803">
        <ele>167.7</ele>
        <time>2020-01-26T13:54:38Z</time>
      </trkpt>
      <trkpt lat="44.54959" lon="1.32801">
        <ele>166.8</ele>
        <time>2020-01-26T13:54:42Z</time>
      </trkpt>
      <trkpt lat="44.54954" lon="1.32799">
        <ele>165.4</ele>
        <time>2020-01-26T13:54:47Z</time>
      </trkpt>
      <trkpt lat="44.5495" lon="1.32795">
        <ele>164.8</ele>
        <time>2020-01-26T13:54:52Z</time>
      </trkpt>
      <trkpt lat="44.54946" lon="1.32791">
        <ele>163.5</ele>
        <time>2020-01-26T13:54:57Z</time>
      </trkpt>
      <trkpt lat="44.54941" lon="1.32788">
        <ele>161.6</ele>
        <time>2020-01-26T13:55:03Z</time>
      </trkpt>
      <trkpt lat="44.54937" lon="1.32784">
        <ele>160.8</ele>
        <time>2020-01-26T13:55:08Z</time>
      </trkpt>
      <trkpt lat="44.54933" lon="1.32778">
        <ele>160.3</ele>
        <time>2020-01-26T13:55:14Z</time>
      </trkpt>
      <trkpt lat="44.5493" lon="1.32773">
        <ele>159.9</ele>
        <time>2020-01-26T13:55:19Z</time>
      </trkpt>
      <trkpt lat="44.54927" lon="1.32767">
        <ele>159.8</ele>
        <time>2020-01-26T13:55:24Z</time>
      </trkpt>
      <trkpt lat="44.54924" lon="1.32761">
        <ele>159.5</ele>
        <time>2020-01-26T13:55:30Z</time>
      </trkpt>
      <trkpt lat="44.54925" lon="1.32754">
        <ele>158.2</ele>
        <time>2020-01-26T13:55:37Z</time>
      </trkpt>
      <trkpt lat="44.54926" lon="1.32746">
        <ele>157.1</ele>
        <time>2020-01-26T13:55:43Z</time>
      </trkpt>
      <trkpt lat="44.54929" lon="1.32741">
        <ele>156.4</ele>
        <time>2020-01-26T13:55:49Z</time>
      </trkpt>
      <trkpt lat="44.54934" lon="1.32737">
        <ele>156.3</ele>
        <time>2020-01-26T13:55:57Z</time>
      </trkpt>
      <trkpt lat="44.54939" lon="1.32738">
        <ele>157</ele>
        <time>2020-01-26T13:56:01Z</time>
      </trkpt>
      <trkpt lat="44.54945" lon="1.32737">
        <ele>157.7</ele>
        <time>2020-01-26T13:56:07Z</time>
      </trkpt>
      <trkpt lat="44.54949" lon="1.32737">
        <ele>158</ele>
        <time>2020-01-26T13:56:11Z</time>
      </trkpt>
      <trkpt lat="44.54954" lon="1.32737">
        <ele>158.5</ele>
        <time>2020-01-26T13:56:14Z</time>
      </trkpt>
      <trkpt lat="44.5496" lon="1.32737">
        <ele>159.5</ele>
        <time>2020-01-26T13:56:18Z</time>
      </trkpt>
      <trkpt lat="44.54965" lon="1.32737">
        <ele>160.3</ele>
        <time>2020-01-26T13:56:21Z</time>
      </trkpt>
      <trkpt lat="44.5497" lon="1.32737">
        <ele>161.8</ele>
        <time>2020-01-26T13:56:25Z</time>
      </trkpt>
      <trkpt lat="44.54975" lon="1.32737">
        <ele>162.8</ele>
        <time>2020-01-26T13:56:28Z</time>
      </trkpt>
      <trkpt lat="44.54981" lon="1.32738">
        <ele>162.9</ele>
        <time>2020-01-26T13:56:36Z</time>
      </trkpt>
      <trkpt lat="44.54986" lon="1.32739">
        <ele>160.8</ele>
        <time>2020-01-26T13:56:44Z</time>
      </trkpt>
      <trkpt lat="44.54993" lon="1.32742">
        <ele>160.6</ele>
        <time>2020-01-26T13:56:49Z</time>
      </trkpt>
      <trkpt lat="44.54997" lon="1.32746">
        <ele>158.6</ele>
        <time>2020-01-26T13:56:59Z</time>
      </trkpt>
      <trkpt lat="44.55001" lon="1.32752">
        <ele>156.3</ele>
        <time>2020-01-26T13:58:23Z</time>
      </trkpt>
      <trkpt lat="44.55005" lon="1.32757">
        <ele>154.6</ele>
        <time>2020-01-26T13:58:29Z</time>
      </trkpt>
      <trkpt lat="44.55008" lon="1.32761">
        <ele>153.5</ele>
        <time>2020-01-26T13:58:33Z</time>
      </trkpt>
      <trkpt lat="44.55012" lon="1.32766">
        <ele>152.8</ele>
        <time>2020-01-26T13:58:39Z</time>
      </trkpt>
      <trkpt lat="44.55015" lon="1.32773">
        <ele>152.2</ele>
        <time>2020-01-26T13:58:45Z</time>
      </trkpt>
      <trkpt lat="44.55018" lon="1.32779">
        <ele>151.7</ele>
        <time>2020-01-26T13:58:51Z</time>
      </trkpt>
      <trkpt lat="44.55021" lon="1.32785">
        <ele>151.9</ele>
        <time>2020-01-26T13:58:56Z</time>
      </trkpt>
      <trkpt lat="44.55024" lon="1.3279">
        <ele>152.2</ele>
        <time>2020-01-26T13:59:00Z</time>
      </trkpt>
      <trkpt lat="44.55027" lon="1.32795">
        <ele>152.3</ele>
        <time>2020-01-26T13:59:04Z</time>
      </trkpt>
      <trkpt lat="44.5503" lon="1.32801">
        <ele>152</ele>
        <time>2020-01-26T13:59:09Z</time>
      </trkpt>
      <trkpt lat="44.55033" lon="1.32806">
        <ele>152.9</ele>
        <time>2020-01-26T13:59:13Z</time>
      </trkpt>
      <trkpt lat="44.55036" lon="1.32811">
        <ele>152.8</ele>
        <time>2020-01-26T13:59:18Z</time>
      </trkpt>
      <trkpt lat="44.55039" lon="1.32817">
        <ele>152.2</ele>
        <time>2020-01-26T13:59:24Z</time>
      </trkpt>
      <trkpt lat="44.55041" lon="1.32823">
        <ele>152.1</ele>
        <time>2020-01-26T13:59:29Z</time>
      </trkpt>
      <trkpt lat="44.55043" lon="1.32829">
        <ele>153.6</ele>
        <time>2020-01-26T13:59:33Z</time>
      </trkpt>
      <trkpt lat="44.55046" lon="1.32835">
        <ele>153.8</ele>
        <time>2020-01-26T13:59:37Z</time>
      </trkpt>
      <trkpt lat="44.5505" lon="1.32839">
        <ele>153.6</ele>
        <time>2020-01-26T13:59:41Z</time>
      </trkpt>
      <trkpt lat="44.55054" lon="1.32843">
        <ele>153.7</ele>
        <time>2020-01-26T13:59:45Z</time>
      </trkpt>
      <trkpt lat="44.55057" lon="1.32849">
        <ele>153.8</ele>
        <time>2020-01-26T13:59:50Z</time>
      </trkpt>
      <trkpt lat="44.55061" lon="1.32854">
        <ele>154.3</ele>
        <time>2020-01-26T13:59:54Z</time>
      </trkpt>
      <trkpt lat="44.55065" lon="1.32859">
        <ele>155.3</ele>
        <time>2020-01-26T13:59:58Z</time>
      </trkpt>
      <trkpt lat="44.55067" lon="1.32864">
        <ele>156.2</ele>
        <time>2020-01-26T14:00:02Z</time>
      </trkpt>
      <trkpt lat="44.55071" lon="1.32869">
        <ele>157.4</ele>
        <time>2020-01-26T14:00:06Z</time>
      </trkpt>
      <trkpt lat="44.55076" lon="1.32873">
        <ele>158.7</ele>
        <time>2020-01-26T14:00:10Z</time>
      </trkpt>
      <trkpt lat="44.55079" lon="1.32876">
        <ele>159.7</ele>
        <time>2020-01-26T14:00:14Z</time>
      </trkpt>
      <trkpt lat="44.55084" lon="1.32881">
        <ele>159.4</ele>
        <time>2020-01-26T14:00:19Z</time>
      </trkpt>
      <trkpt lat="44.55087" lon="1.32886">
        <ele>159.3</ele>
        <time>2020-01-26T14:00:24Z</time>
      </trkpt>
      <trkpt lat="44.55092" lon="1.3289">
        <ele>160.3</ele>
        <time>2020-01-26T14:00:28Z</time>
      </trkpt>
      <trkpt lat="44.55097" lon="1.32893">
        <ele>161.7</ele>
        <time>2020-01-26T14:00:32Z</time>
      </trkpt>
      <trkpt lat="44.55101" lon="1.32895">
        <ele>161.7</ele>
        <time>2020-01-26T14:00:36Z</time>
      </trkpt>
      <trkpt lat="44.55105" lon="1.329">
        <ele>161.2</ele>
        <time>2020-01-26T14:00:40Z</time>
      </trkpt>
      <trkpt lat="44.55109" lon="1.32903">
        <ele>160.4</ele>
        <time>2020-01-26T14:00:44Z</time>
      </trkpt>
      <trkpt lat="44.55113" lon="1.32909">
        <ele>159.9</ele>
        <time>2020-01-26T14:00:48Z</time>
      </trkpt>
      <trkpt lat="44.55117" lon="1.32913">
        <ele>159.8</ele>
        <time>2020-01-26T14:00:53Z</time>
      </trkpt>
      <trkpt lat="44.5512" lon="1.32918">
        <ele>160.2</ele>
        <time>2020-01-26T14:00:57Z</time>
      </trkpt>
      <trkpt lat="44.55123" lon="1.32923">
        <ele>161.2</ele>
        <time>2020-01-26T14:01:01Z</time>
      </trkpt>
      <trkpt lat="44.55126" lon="1.32929">
        <ele>160.8</ele>
        <time>2020-01-26T14:01:06Z</time>
      </trkpt>
      <trkpt lat="44.55129" lon="1.32934">
        <ele>161.3</ele>
        <time>2020-01-26T14:01:11Z</time>
      </trkpt>
      <trkpt lat="44.55132" lon="1.32938">
        <ele>160.6</ele>
        <time>2020-01-26T14:01:16Z</time>
      </trkpt>
      <trkpt lat="44.55136" lon="1.32943">
        <ele>161.3</ele>
        <time>2020-01-26T14:01:21Z</time>
      </trkpt>
      <trkpt lat="44.5514" lon="1.32946">
        <ele>161.1</ele>
        <time>2020-01-26T14:01:24Z</time>
      </trkpt>
      <trkpt lat="44.55145" lon="1.32949">
        <ele>161.9</ele>
        <time>2020-01-26T14:01:27Z</time>
      </trkpt>
      <trkpt lat="44.5515" lon="1.32952">
        <ele>163</ele>
        <time>2020-01-26T14:01:33Z</time>
      </trkpt>
      <trkpt lat="44.55154" lon="1.32956">
        <ele>163.5</ele>
        <time>2020-01-26T14:01:37Z</time>
      </trkpt>
      <trkpt lat="44.55158" lon="1.3296">
        <ele>164.6</ele>
        <time>2020-01-26T14:01:47Z</time>
      </trkpt>
      <trkpt lat="44.55162" lon="1.32966">
        <ele>164.4</ele>
        <time>2020-01-26T14:01:50Z</time>
      </trkpt>
      <trkpt lat="44.55167" lon="1.3297">
        <ele>163.6</ele>
        <time>2020-01-26T14:01:54Z</time>
      </trkpt>
      <trkpt lat="44.5517" lon="1.32974">
        <ele>163</ele>
        <time>2020-01-26T14:01:57Z</time>
      </trkpt>
      <trkpt lat="44.55175" lon="1.32978">
        <ele>161.7</ele>
        <time>2020-01-26T14:02:01Z</time>
      </trkpt>
      <trkpt lat="44.55179" lon="1.32983">
        <ele>160.8</ele>
        <time>2020-01-26T14:02:05Z</time>
      </trkpt>
      <trkpt lat="44.55182" lon="1.32989">
        <ele>160.9</ele>
        <time>2020-01-26T14:02:09Z</time>
      </trkpt>
      <trkpt lat="44.55186" lon="1.32994">
        <ele>160.1</ele>
        <time>2020-01-26T14:02:13Z</time>
      </trkpt>
      <trkpt lat="44.55191" lon="1.32997">
        <ele>159.7</ele>
        <time>2020-01-26T14:02:17Z</time>
      </trkpt>
      <trkpt lat="44.55195" lon="1.33">
        <ele>159.2</ele>
        <time>2020-01-26T14:02:22Z</time>
      </trkpt>
      <trkpt lat="44.552" lon="1.33005">
        <ele>159.4</ele>
        <time>2020-01-26T14:02:25Z</time>
      </trkpt>
      <trkpt lat="44.55206" lon="1.33007">
        <ele>160.6</ele>
        <time>2020-01-26T14:02:29Z</time>
      </trkpt>
      <trkpt lat="44.5521" lon="1.33011">
        <ele>162</ele>
        <time>2020-01-26T14:02:32Z</time>
      </trkpt>
      <trkpt lat="44.55214" lon="1.33015">
        <ele>163.1</ele>
        <time>2020-01-26T14:02:35Z</time>
      </trkpt>
      <trkpt lat="44.55218" lon="1.33019">
        <ele>163.4</ele>
        <time>2020-01-26T14:02:39Z</time>
      </trkpt>
      <trkpt lat="44.55222" lon="1.33024">
        <ele>163.5</ele>
        <time>2020-01-26T14:02:43Z</time>
      </trkpt>
      <trkpt lat="44.55224" lon="1.33031">
        <ele>163.5</ele>
        <time>2020-01-26T14:02:47Z</time>
      </trkpt>
      <trkpt lat="44.55226" lon="1.33037">
        <ele>163.3</ele>
        <time>2020-01-26T14:02:52Z</time>
      </trkpt>
      <trkpt lat="44.55229" lon="1.33043">
        <ele>162.7</ele>
        <time>2020-01-26T14:02:55Z</time>
      </trkpt>
      <trkpt lat="44.55232" lon="1.33048">
        <ele>163.7</ele>
        <time>2020-01-26T14:02:59Z</time>
      </trkpt>
      <trkpt lat="44.55235" lon="1.33054">
        <ele>164.1</ele>
        <time>2020-01-26T14:03:03Z</time>
      </trkpt>
      <trkpt lat="44.55238" lon="1.33059">
        <ele>161.3</ele>
        <time>2020-01-26T14:03:09Z</time>
      </trkpt>
      <trkpt lat="44.55242" lon="1.33064">
        <ele>160.1</ele>
        <time>2020-01-26T14:03:16Z</time>
      </trkpt>
      <trkpt lat="44.55243" lon="1.3307">
        <ele>157.3</ele>
        <time>2020-01-26T14:03:21Z</time>
      </trkpt>
      <trkpt lat="44.55245" lon="1.33077">
        <ele>156.7</ele>
        <time>2020-01-26T14:03:27Z</time>
      </trkpt>
      <trkpt lat="44.55248" lon="1.33084">
        <ele>157.2</ele>
        <time>2020-01-26T14:03:31Z</time>
      </trkpt>
      <trkpt lat="44.5525" lon="1.33089">
        <ele>156.4</ele>
        <time>2020-01-26T14:03:35Z</time>
      </trkpt>
      <trkpt lat="44.55254" lon="1.33093">
        <ele>156</ele>
        <time>2020-01-26T14:03:38Z</time>
      </trkpt>
      <trkpt lat="44.55258" lon="1.33097">
        <ele>155.7</ele>
        <time>2020-01-26T14:03:43Z</time>
      </trkpt>
      <trkpt lat="44.55259" lon="1.33103">
        <ele>156.1</ele>
        <time>2020-01-26T14:03:47Z</time>
      </trkpt>
      <trkpt lat="44.55261" lon="1.3311">
        <ele>156.8</ele>
        <time>2020-01-26T14:03:52Z</time>
      </trkpt>
      <trkpt lat="44.55265" lon="1.33114">
        <ele>156.8</ele>
        <time>2020-01-26T14:03:56Z</time>
      </trkpt>
      <trkpt lat="44.55268" lon="1.3312">
        <ele>157.2</ele>
        <time>2020-01-26T14:03:59Z</time>
      </trkpt>
      <trkpt lat="44.5527" lon="1.33126">
        <ele>158.4</ele>
        <time>2020-01-26T14:04:02Z</time>
      </trkpt>
      <trkpt lat="44.55272" lon="1.33133">
        <ele>159.1</ele>
        <time>2020-01-26T14:04:06Z</time>
      </trkpt>
      <trkpt lat="44.55275" lon="1.33139">
        <ele>160.8</ele>
        <time>2020-01-26T14:04:10Z</time>
      </trkpt>
      <trkpt lat="44.55277" lon="1.33145">
        <ele>161</ele>
        <time>2020-01-26T14:04:15Z</time>
      </trkpt>
      <trkpt lat="44.5528" lon="1.3315">
        <ele>162.3</ele>
        <time>2020-01-26T14:04:21Z</time>
      </trkpt>
      <trkpt lat="44.55284" lon="1.33155">
        <ele>163.3</ele>
        <time>2020-01-26T14:04:25Z</time>
      </trkpt>
      <trkpt lat="44.55288" lon="1.33161">
        <ele>163</ele>
        <time>2020-01-26T14:04:30Z</time>
      </trkpt>
      <trkpt lat="44.55291" lon="1.33167">
        <ele>163.7</ele>
        <time>2020-01-26T14:04:34Z</time>
      </trkpt>
      <trkpt lat="44.55293" lon="1.33173">
        <ele>163.4</ele>
        <time>2020-01-26T14:04:39Z</time>
      </trkpt>
      <trkpt lat="44.55296" lon="1.33179">
        <ele>163</ele>
        <time>2020-01-26T14:04:45Z</time>
      </trkpt>
      <trkpt lat="44.55299" lon="1.33185">
        <ele>162.8</ele>
        <time>2020-01-26T14:04:48Z</time>
      </trkpt>
      <trkpt lat="44.55303" lon="1.33189">
        <ele>164.2</ele>
        <time>2020-01-26T14:04:52Z</time>
      </trkpt>
      <trkpt lat="44.55307" lon="1.33195">
        <ele>165.5</ele>
        <time>2020-01-26T14:04:56Z</time>
      </trkpt>
      <trkpt lat="44.55309" lon="1.332">
        <ele>166.6</ele>
        <time>2020-01-26T14:05:01Z</time>
      </trkpt>
      <trkpt lat="44.55312" lon="1.33206">
        <ele>167.9</ele>
        <time>2020-01-26T14:05:05Z</time>
      </trkpt>
      <trkpt lat="44.55314" lon="1.33212">
        <ele>168.5</ele>
        <time>2020-01-26T14:05:11Z</time>
      </trkpt>
      <trkpt lat="44.55317" lon="1.33218">
        <ele>166.6</ele>
        <time>2020-01-26T14:05:17Z</time>
      </trkpt>
      <trkpt lat="44.55319" lon="1.33224">
        <ele>164.2</ele>
        <time>2020-01-26T14:05:22Z</time>
      </trkpt>
      <trkpt lat="44.55322" lon="1.33229">
        <ele>165.6</ele>
        <time>2020-01-26T14:05:26Z</time>
      </trkpt>
      <trkpt lat="44.55324" lon="1.33235">
        <ele>165.7</ele>
        <time>2020-01-26T14:05:31Z</time>
      </trkpt>
      <trkpt lat="44.55326" lon="1.33241">
        <ele>165.5</ele>
        <time>2020-01-26T14:05:36Z</time>
      </trkpt>
      <trkpt lat="44.55328" lon="1.33248">
        <ele>166.5</ele>
        <time>2020-01-26T14:05:41Z</time>
      </trkpt>
      <trkpt lat="44.5533" lon="1.33255">
        <ele>168.8</ele>
        <time>2020-01-26T14:05:45Z</time>
      </trkpt>
      <trkpt lat="44.55334" lon="1.3326">
        <ele>169.8</ele>
        <time>2020-01-26T14:05:51Z</time>
      </trkpt>
      <trkpt lat="44.55337" lon="1.33265">
        <ele>170.7</ele>
        <time>2020-01-26T14:05:55Z</time>
      </trkpt>
      <trkpt lat="44.55341" lon="1.3327">
        <ele>171.2</ele>
        <time>2020-01-26T14:06:00Z</time>
      </trkpt>
      <trkpt lat="44.55344" lon="1.33276">
        <ele>172.2</ele>
        <time>2020-01-26T14:06:06Z</time>
      </trkpt>
      <trkpt lat="44.55347" lon="1.33281">
        <ele>173.4</ele>
        <time>2020-01-26T14:06:10Z</time>
      </trkpt>
      <trkpt lat="44.5535" lon="1.33287">
        <ele>173.5</ele>
        <time>2020-01-26T14:06:15Z</time>
      </trkpt>
      <trkpt lat="44.55353" lon="1.33293">
        <ele>173.6</ele>
        <time>2020-01-26T14:06:19Z</time>
      </trkpt>
      <trkpt lat="44.55356" lon="1.33297">
        <ele>173</ele>
        <time>2020-01-26T14:06:24Z</time>
      </trkpt>
      <trkpt lat="44.55359" lon="1.33303">
        <ele>172.5</ele>
        <time>2020-01-26T14:06:30Z</time>
      </trkpt>
      <trkpt lat="44.55363" lon="1.33307">
        <ele>171.5</ele>
        <time>2020-01-26T14:06:35Z</time>
      </trkpt>
      <trkpt lat="44.55365" lon="1.33313">
        <ele>169.5</ele>
        <time>2020-01-26T14:06:41Z</time>
      </trkpt>
      <trkpt lat="44.55369" lon="1.33319">
        <ele>170.3</ele>
        <time>2020-01-26T14:06:47Z</time>
      </trkpt>
      <trkpt lat="44.55372" lon="1.33324">
        <ele>171.3</ele>
        <time>2020-01-26T14:06:50Z</time>
      </trkpt>
      <trkpt lat="44.55375" lon="1.33331">
        <ele>172.3</ele>
        <time>2020-01-26T14:06:56Z</time>
      </trkpt>
      <trkpt lat="44.55377" lon="1.33337">
        <ele>172.2</ele>
        <time>2020-01-26T14:07:02Z</time>
      </trkpt>
      <trkpt lat="44.5538" lon="1.33343">
        <ele>171.4</ele>
        <time>2020-01-26T14:07:07Z</time>
      </trkpt>
      <trkpt lat="44.55382" lon="1.33348">
        <ele>170.2</ele>
        <time>2020-01-26T14:07:12Z</time>
      </trkpt>
      <trkpt lat="44.55385" lon="1.33355">
        <ele>170.7</ele>
        <time>2020-01-26T14:07:17Z</time>
      </trkpt>
      <trkpt lat="44.55387" lon="1.33362">
        <ele>170.7</ele>
        <time>2020-01-26T14:07:21Z</time>
      </trkpt>
      <trkpt lat="44.55391" lon="1.33366">
        <ele>171.3</ele>
        <time>2020-01-26T14:07:24Z</time>
      </trkpt>
      <trkpt lat="44.55394" lon="1.3337">
        <ele>171</ele>
        <time>2020-01-26T14:07:28Z</time>
      </trkpt>
      <trkpt lat="44.55398" lon="1.33374">
        <ele>170.8</ele>
        <time>2020-01-26T14:07:34Z</time>
      </trkpt>
      <trkpt lat="44.554" lon="1.33381">
        <ele>169.8</ele>
        <time>2020-01-26T14:07:41Z</time>
      </trkpt>
      <trkpt lat="44.55403" lon="1.33387">
        <ele>170.2</ele>
        <time>2020-01-26T14:07:46Z</time>
      </trkpt>
      <trkpt lat="44.55406" lon="1.33394">
        <ele>169.8</ele>
        <time>2020-01-26T14:07:50Z</time>
      </trkpt>
      <trkpt lat="44.55409" lon="1.33399">
        <ele>169.1</ele>
        <time>2020-01-26T14:07:55Z</time>
      </trkpt>
      <trkpt lat="44.55412" lon="1.33404">
        <ele>169.4</ele>
        <time>2020-01-26T14:07:59Z</time>
      </trkpt>
      <trkpt lat="44.55416" lon="1.3341">
        <ele>169.5</ele>
        <time>2020-01-26T14:08:03Z</time>
      </trkpt>
      <trkpt lat="44.5542" lon="1.33416">
        <ele>170.6</ele>
        <time>2020-01-26T14:08:07Z</time>
      </trkpt>
      <trkpt lat="44.55423" lon="1.3342">
        <ele>171.8</ele>
        <time>2020-01-26T14:08:12Z</time>
      </trkpt>
      <trkpt lat="44.55426" lon="1.33426">
        <ele>171.7</ele>
        <time>2020-01-26T14:08:16Z</time>
      </trkpt>
      <trkpt lat="44.55429" lon="1.33432">
        <ele>170.8</ele>
        <time>2020-01-26T14:08:20Z</time>
      </trkpt>
      <trkpt lat="44.55432" lon="1.33436">
        <ele>170.2</ele>
        <time>2020-01-26T14:08:24Z</time>
      </trkpt>
      <trkpt lat="44.55434" lon="1.33443">
        <ele>169</ele>
        <time>2020-01-26T14:08:28Z</time>
      </trkpt>
      <trkpt lat="44.55436" lon="1.33449">
        <ele>166.6</ele>
        <time>2020-01-26T14:08:34Z</time>
      </trkpt>
      <trkpt lat="44.55439" lon="1.33456">
        <ele>164.7</ele>
        <time>2020-01-26T14:08:40Z</time>
      </trkpt>
      <trkpt lat="44.55442" lon="1.3346">
        <ele>165.9</ele>
        <time>2020-01-26T14:08:43Z</time>
      </trkpt>
      <trkpt lat="44.55447" lon="1.33465">
        <ele>167</ele>
        <time>2020-01-26T14:08:46Z</time>
      </trkpt>
      <trkpt lat="44.5545" lon="1.33471">
        <ele>167.6</ele>
        <time>2020-01-26T14:08:50Z</time>
      </trkpt>
      <trkpt lat="44.55451" lon="1.33478">
        <ele>167.4</ele>
        <time>2020-01-26T14:08:56Z</time>
      </trkpt>
      <trkpt lat="44.55453" lon="1.33485">
        <ele>167.5</ele>
        <time>2020-01-26T14:09:01Z</time>
      </trkpt>
      <trkpt lat="44.55455" lon="1.33492">
        <ele>169.3</ele>
        <time>2020-01-26T14:09:05Z</time>
      </trkpt>
      <trkpt lat="44.55456" lon="1.33498">
        <ele>170.8</ele>
        <time>2020-01-26T14:09:09Z</time>
      </trkpt>
      <trkpt lat="44.55457" lon="1.33505">
        <ele>172</ele>
        <time>2020-01-26T14:09:14Z</time>
      </trkpt>
      <trkpt lat="44.55457" lon="1.33512">
        <ele>171.5</ele>
        <time>2020-01-26T14:09:19Z</time>
      </trkpt>
      <trkpt lat="44.55457" lon="1.33519">
        <ele>170.6</ele>
        <time>2020-01-26T14:09:24Z</time>
      </trkpt>
      <trkpt lat="44.55457" lon="1.33526">
        <ele>169</ele>
        <time>2020-01-26T14:09:29Z</time>
      </trkpt>
      <trkpt lat="44.55458" lon="1.33534">
        <ele>167.5</ele>
        <time>2020-01-26T14:09:34Z</time>
      </trkpt>
      <trkpt lat="44.55461" lon="1.3354">
        <ele>168.3</ele>
        <time>2020-01-26T14:09:39Z</time>
      </trkpt>
      <trkpt lat="44.55465" lon="1.33546">
        <ele>169.1</ele>
        <time>2020-01-26T14:09:42Z</time>
      </trkpt>
      <trkpt lat="44.55468" lon="1.3355">
        <ele>169.5</ele>
        <time>2020-01-26T14:09:47Z</time>
      </trkpt>
      <trkpt lat="44.55472" lon="1.33555">
        <ele>170.2</ele>
        <time>2020-01-26T14:09:53Z</time>
      </trkpt>
      <trkpt lat="44.55476" lon="1.3356">
        <ele>171.6</ele>
        <time>2020-01-26T14:09:59Z</time>
      </trkpt>
      <trkpt lat="44.55478" lon="1.33566">
        <ele>171.8</ele>
        <time>2020-01-26T14:10:03Z</time>
      </trkpt>
      <trkpt lat="44.55481" lon="1.33573">
        <ele>171.9</ele>
        <time>2020-01-26T14:10:06Z</time>
      </trkpt>
      <trkpt lat="44.55484" lon="1.33579">
        <ele>173</ele>
        <time>2020-01-26T14:10:10Z</time>
      </trkpt>
      <trkpt lat="44.55487" lon="1.33584">
        <ele>173.7</ele>
        <time>2020-01-26T14:10:14Z</time>
      </trkpt>
      <trkpt lat="44.5549" lon="1.33591">
        <ele>173.5</ele>
        <time>2020-01-26T14:10:19Z</time>
      </trkpt>
      <trkpt lat="44.55492" lon="1.33598">
        <ele>174.5</ele>
        <time>2020-01-26T14:10:23Z</time>
      </trkpt>
      <trkpt lat="44.55495" lon="1.33604">
        <ele>175.1</ele>
        <time>2020-01-26T14:10:27Z</time>
      </trkpt>
      <trkpt lat="44.55497" lon="1.33611">
        <ele>175.4</ele>
        <time>2020-01-26T14:10:31Z</time>
      </trkpt>
      <trkpt lat="44.55501" lon="1.33617">
        <ele>175.8</ele>
        <time>2020-01-26T14:10:35Z</time>
      </trkpt>
      <trkpt lat="44.55504" lon="1.33623">
        <ele>174.8</ele>
        <time>2020-01-26T14:10:41Z</time>
      </trkpt>
      <trkpt lat="44.55506" lon="1.33629">
        <ele>173.4</ele>
        <time>2020-01-26T14:10:45Z</time>
      </trkpt>
      <trkpt lat="44.55509" lon="1.33634">
        <ele>172.6</ele>
        <time>2020-01-26T14:10:49Z</time>
      </trkpt>
      <trkpt lat="44.55512" lon="1.33639">
        <ele>170.8</ele>
        <time>2020-01-26T14:10:55Z</time>
      </trkpt>
      <trkpt lat="44.55516" lon="1.33643">
        <ele>168.4</ele>
        <time>2020-01-26T14:10:59Z</time>
      </trkpt>
      <trkpt lat="44.5552" lon="1.33648">
        <ele>165.8</ele>
        <time>2020-01-26T14:11:05Z</time>
      </trkpt>
      <trkpt lat="44.55523" lon="1.33654">
        <ele>164.7</ele>
        <time>2020-01-26T14:11:09Z</time>
      </trkpt>
      <trkpt lat="44.55525" lon="1.3366">
        <ele>165.1</ele>
        <time>2020-01-26T14:11:14Z</time>
      </trkpt>
      <trkpt lat="44.55525" lon="1.33668">
        <ele>166</ele>
        <time>2020-01-26T14:11:18Z</time>
      </trkpt>
      <trkpt lat="44.55526" lon="1.33675">
        <ele>165.5</ele>
        <time>2020-01-26T14:11:25Z</time>
      </trkpt>
      <trkpt lat="44.55528" lon="1.33682">
        <ele>165.5</ele>
        <time>2020-01-26T14:11:41Z</time>
      </trkpt>
      <trkpt lat="44.55534" lon="1.33687">
        <ele>166.7</ele>
        <time>2020-01-26T14:12:32Z</time>
      </trkpt>
      <trkpt lat="44.5554" lon="1.33688">
        <ele>167.1</ele>
        <time>2020-01-26T14:12:41Z</time>
      </trkpt>
      <trkpt lat="44.55545" lon="1.33688">
        <ele>166.9</ele>
        <time>2020-01-26T14:12:45Z</time>
      </trkpt>
      <trkpt lat="44.55549" lon="1.33688">
        <ele>167.3</ele>
        <time>2020-01-26T14:12:48Z</time>
      </trkpt>
      <trkpt lat="44.55554" lon="1.33691">
        <ele>167.5</ele>
        <time>2020-01-26T14:12:52Z</time>
      </trkpt>
      <trkpt lat="44.55556" lon="1.33697">
        <ele>166</ele>
        <time>2020-01-26T14:13:02Z</time>
      </trkpt>
      <trkpt lat="44.55558" lon="1.33704">
        <ele>164.9</ele>
        <time>2020-01-26T14:13:07Z</time>
      </trkpt>
      <trkpt lat="44.5556" lon="1.3371">
        <ele>166</ele>
        <time>2020-01-26T14:13:26Z</time>
      </trkpt>
      <trkpt lat="44.55563" lon="1.33715">
        <ele>165.9</ele>
        <time>2020-01-26T14:13:34Z</time>
      </trkpt>
      <trkpt lat="44.55564" lon="1.33723">
        <ele>165.7</ele>
        <time>2020-01-26T14:13:55Z</time>
      </trkpt>
      <trkpt lat="44.55566" lon="1.33729">
        <ele>165.6</ele>
        <time>2020-01-26T14:14:00Z</time>
      </trkpt>
      <trkpt lat="44.55569" lon="1.33735">
        <ele>164.9</ele>
        <time>2020-01-26T14:14:05Z</time>
      </trkpt>
      <trkpt lat="44.55571" lon="1.33741">
        <ele>165.8</ele>
        <time>2020-01-26T14:14:11Z</time>
      </trkpt>
      <trkpt lat="44.55575" lon="1.33745">
        <ele>167</ele>
        <time>2020-01-26T14:14:22Z</time>
      </trkpt>
      <trkpt lat="44.5558" lon="1.33747">
        <ele>166.6</ele>
        <time>2020-01-26T14:14:27Z</time>
      </trkpt>
      <trkpt lat="44.55584" lon="1.3375">
        <ele>167</ele>
        <time>2020-01-26T14:14:31Z</time>
      </trkpt>
      <trkpt lat="44.55589" lon="1.33751">
        <ele>167.8</ele>
        <time>2020-01-26T14:14:37Z</time>
      </trkpt>
      <trkpt lat="44.55595" lon="1.33749">
        <ele>168.2</ele>
        <time>2020-01-26T14:14:43Z</time>
      </trkpt>
      <trkpt lat="44.55599" lon="1.33746">
        <ele>168.2</ele>
        <time>2020-01-26T14:14:49Z</time>
      </trkpt>
      <trkpt lat="44.55603" lon="1.33744">
        <ele>167.7</ele>
        <time>2020-01-26T14:14:55Z</time>
      </trkpt>
      <trkpt lat="44.55608" lon="1.33743">
        <ele>167.5</ele>
        <time>2020-01-26T14:14:58Z</time>
      </trkpt>
      <trkpt lat="44.55613" lon="1.33744">
        <ele>167.9</ele>
        <time>2020-01-26T14:15:01Z</time>
      </trkpt>
      <trkpt lat="44.55618" lon="1.33743">
        <ele>168.4</ele>
        <time>2020-01-26T14:15:05Z</time>
      </trkpt>
      <trkpt lat="44.55622" lon="1.33742">
        <ele>169.2</ele>
        <time>2020-01-26T14:15:10Z</time>
      </trkpt>
      <trkpt lat="44.55627" lon="1.3374">
        <ele>169.9</ele>
        <time>2020-01-26T14:15:15Z</time>
      </trkpt>
      <trkpt lat="44.55632" lon="1.33737">
        <ele>169.5</ele>
        <time>2020-01-26T14:15:19Z</time>
      </trkpt>
      <trkpt lat="44.55637" lon="1.33739">
        <ele>169</ele>
        <time>2020-01-26T14:15:32Z</time>
      </trkpt>
      <trkpt lat="44.55641" lon="1.33738">
        <ele>172.5</ele>
        <time>2020-01-26T14:15:46Z</time>
      </trkpt>
      <trkpt lat="44.55646" lon="1.33739">
        <ele>166</ele>
        <time>2020-01-26T14:17:43Z</time>
      </trkpt>
      <trkpt lat="44.55651" lon="1.33735">
        <ele>165.7</ele>
        <time>2020-01-26T14:17:53Z</time>
      </trkpt>
      <trkpt lat="44.55655" lon="1.33731">
        <ele>167.4</ele>
        <time>2020-01-26T14:17:56Z</time>
      </trkpt>
      <trkpt lat="44.55661" lon="1.3373">
        <ele>168.6</ele>
        <time>2020-01-26T14:17:59Z</time>
      </trkpt>
      <trkpt lat="44.55667" lon="1.33728">
        <ele>170</ele>
        <time>2020-01-26T14:18:03Z</time>
      </trkpt>
      <trkpt lat="44.55671" lon="1.33725">
        <ele>170.3</ele>
        <time>2020-01-26T14:18:07Z</time>
      </trkpt>
      <trkpt lat="44.55675" lon="1.3372">
        <ele>171</ele>
        <time>2020-01-26T14:18:12Z</time>
      </trkpt>
      <trkpt lat="44.55679" lon="1.33718">
        <ele>171.9</ele>
        <time>2020-01-26T14:18:17Z</time>
      </trkpt>
      <trkpt lat="44.55686" lon="1.33712">
        <ele>173.7</ele>
        <time>2020-01-26T14:18:56Z</time>
      </trkpt>
      <trkpt lat="44.55691" lon="1.33709">
        <ele>173.8</ele>
        <time>2020-01-26T14:19:01Z</time>
      </trkpt>
      <trkpt lat="44.55692" lon="1.33702">
        <ele>175</ele>
        <time>2020-01-26T14:19:08Z</time>
      </trkpt>
      <trkpt lat="44.55695" lon="1.33673">
        <ele>165.4</ele>
        <time>2020-01-26T14:19:28Z</time>
      </trkpt>
      <trkpt lat="44.557" lon="1.33669">
        <ele>165</ele>
        <time>2020-01-26T14:19:30Z</time>
      </trkpt>
      <trkpt lat="44.55698" lon="1.33663">
        <ele>165</ele>
        <time>2020-01-26T14:19:34Z</time>
      </trkpt>
      <trkpt lat="44.55704" lon="1.33647">
        <ele>169.6</ele>
        <time>2020-01-26T14:19:53Z</time>
      </trkpt>
      <trkpt lat="44.55707" lon="1.33639">
        <ele>172.9</ele>
        <time>2020-01-26T14:20:03Z</time>
      </trkpt>
      <trkpt lat="44.55706" lon="1.33632">
        <ele>173.9</ele>
        <time>2020-01-26T14:20:07Z</time>
      </trkpt>
      <trkpt lat="44.55706" lon="1.33626">
        <ele>173.6</ele>
        <time>2020-01-26T14:20:16Z</time>
      </trkpt>
      <trkpt lat="44.55709" lon="1.3362">
        <ele>173.7</ele>
        <time>2020-01-26T14:20:28Z</time>
      </trkpt>
      <trkpt lat="44.55712" lon="1.33613">
        <ele>175.3</ele>
        <time>2020-01-26T14:20:35Z</time>
      </trkpt>
      <trkpt lat="44.55712" lon="1.33606">
        <ele>176.8</ele>
        <time>2020-01-26T14:20:49Z</time>
      </trkpt>
      <trkpt lat="44.55712" lon="1.336">
        <ele>176.1</ele>
        <time>2020-01-26T14:20:56Z</time>
      </trkpt>
      <trkpt lat="44.55717" lon="1.33599">
        <ele>177.5</ele>
        <time>2020-01-26T14:21:05Z</time>
      </trkpt>
      <trkpt lat="44.55722" lon="1.33596">
        <ele>179</ele>
        <time>2020-01-26T14:21:14Z</time>
      </trkpt>
      <trkpt lat="44.55724" lon="1.3359">
        <ele>180.4</ele>
        <time>2020-01-26T14:21:21Z</time>
      </trkpt>
      <trkpt lat="44.55725" lon="1.33584">
        <ele>180</ele>
        <time>2020-01-26T14:21:29Z</time>
      </trkpt>
      <trkpt lat="44.55726" lon="1.33577">
        <ele>182.2</ele>
        <time>2020-01-26T14:21:36Z</time>
      </trkpt>
      <trkpt lat="44.55728" lon="1.33571">
        <ele>182.9</ele>
        <time>2020-01-26T14:21:44Z</time>
      </trkpt>
      <trkpt lat="44.5573" lon="1.33565">
        <ele>184.1</ele>
        <time>2020-01-26T14:21:51Z</time>
      </trkpt>
      <trkpt lat="44.55731" lon="1.33559">
        <ele>185.6</ele>
        <time>2020-01-26T14:22:00Z</time>
      </trkpt>
      <trkpt lat="44.55733" lon="1.33552">
        <ele>186.2</ele>
        <time>2020-01-26T14:22:10Z</time>
      </trkpt>
      <trkpt lat="44.55733" lon="1.33545">
        <ele>187</ele>
        <time>2020-01-26T14:22:16Z</time>
      </trkpt>
      <trkpt lat="44.55733" lon="1.33537">
        <ele>187.9</ele>
        <time>2020-01-26T14:22:20Z</time>
      </trkpt>
      <trkpt lat="44.55733" lon="1.33531">
        <ele>187.9</ele>
        <time>2020-01-26T14:22:25Z</time>
      </trkpt>
      <trkpt lat="44.55732" lon="1.33524">
        <ele>187.5</ele>
        <time>2020-01-26T14:22:30Z</time>
      </trkpt>
      <trkpt lat="44.55732" lon="1.33516">
        <ele>186.3</ele>
        <time>2020-01-26T14:22:38Z</time>
      </trkpt>
      <trkpt lat="44.55732" lon="1.33509">
        <ele>185.9</ele>
        <time>2020-01-26T14:22:42Z</time>
      </trkpt>
      <trkpt lat="44.55732" lon="1.33502">
        <ele>186.3</ele>
        <time>2020-01-26T14:22:47Z</time>
      </trkpt>
      <trkpt lat="44.5573" lon="1.33496">
        <ele>186.5</ele>
        <time>2020-01-26T14:22:52Z</time>
      </trkpt>
      <trkpt lat="44.55731" lon="1.33489">
        <ele>188.8</ele>
        <time>2020-01-26T14:22:58Z</time>
      </trkpt>
      <trkpt lat="44.55736" lon="1.33485">
        <ele>194.3</ele>
        <time>2020-01-26T14:23:06Z</time>
      </trkpt>
      <trkpt lat="44.5574" lon="1.33489">
        <ele>196.1</ele>
        <time>2020-01-26T14:23:13Z</time>
      </trkpt>
      <trkpt lat="44.55743" lon="1.33495">
        <ele>197.5</ele>
        <time>2020-01-26T14:23:20Z</time>
      </trkpt>
      <trkpt lat="44.55745" lon="1.33501">
        <ele>201.7</ele>
        <time>2020-01-26T14:23:25Z</time>
      </trkpt>
      <trkpt lat="44.55749" lon="1.33501">
        <ele>205.3</ele>
        <time>2020-01-26T14:23:42Z</time>
      </trkpt>
      <trkpt lat="44.55745" lon="1.33507">
        <ele>205</ele>
        <time>2020-01-26T14:24:08Z</time>
      </trkpt>
      <trkpt lat="44.55745" lon="1.33513">
        <ele>202.5</ele>
        <time>2020-01-26T14:24:14Z</time>
      </trkpt>
      <trkpt lat="44.55746" lon="1.33519">
        <ele>200.4</ele>
        <time>2020-01-26T14:24:22Z</time>
      </trkpt>
      <trkpt lat="44.55747" lon="1.33526">
        <ele>198.4</ele>
        <time>2020-01-26T14:24:29Z</time>
      </trkpt>
      <trkpt lat="44.55744" lon="1.33532">
        <ele>197.5</ele>
        <time>2020-01-26T14:24:36Z</time>
      </trkpt>
      <trkpt lat="44.55741" lon="1.33536">
        <ele>191.7</ele>
        <time>2020-01-26T14:25:36Z</time>
      </trkpt>
      <trkpt lat="44.55743" lon="1.3353">
        <ele>196.5</ele>
        <time>2020-01-26T14:25:47Z</time>
      </trkpt>
      <trkpt lat="44.55745" lon="1.33524">
        <ele>198.6</ele>
        <time>2020-01-26T14:25:53Z</time>
      </trkpt>
      <trkpt lat="44.55746" lon="1.33518">
        <ele>199.8</ele>
        <time>2020-01-26T14:25:59Z</time>
      </trkpt>
      <trkpt lat="44.55747" lon="1.3351">
        <ele>200.6</ele>
        <time>2020-01-26T14:26:05Z</time>
      </trkpt>
      <trkpt lat="44.55749" lon="1.33504">
        <ele>201.6</ele>
        <time>2020-01-26T14:26:13Z</time>
      </trkpt>
      <trkpt lat="44.55751" lon="1.33497">
        <ele>203.8</ele>
        <time>2020-01-26T14:26:18Z</time>
      </trkpt>
      <trkpt lat="44.55754" lon="1.33491">
        <ele>204.6</ele>
        <time>2020-01-26T14:26:24Z</time>
      </trkpt>
      <trkpt lat="44.55757" lon="1.33486">
        <ele>204.8</ele>
        <time>2020-01-26T14:26:29Z</time>
      </trkpt>
      <trkpt lat="44.55761" lon="1.33481">
        <ele>205.1</ele>
        <time>2020-01-26T14:26:34Z</time>
      </trkpt>
      <trkpt lat="44.55764" lon="1.33477">
        <ele>205.3</ele>
        <time>2020-01-26T14:26:39Z</time>
      </trkpt>
      <trkpt lat="44.55768" lon="1.33472">
        <ele>205.8</ele>
        <time>2020-01-26T14:26:44Z</time>
      </trkpt>
      <trkpt lat="44.55772" lon="1.33468">
        <ele>206.1</ele>
        <time>2020-01-26T14:26:50Z</time>
      </trkpt>
      <trkpt lat="44.55776" lon="1.33464">
        <ele>206.1</ele>
        <time>2020-01-26T14:26:56Z</time>
      </trkpt>
      <trkpt lat="44.55783" lon="1.33462">
        <ele>206.8</ele>
        <time>2020-01-26T14:27:00Z</time>
      </trkpt>
      <trkpt lat="44.55787" lon="1.33459">
        <ele>207.6</ele>
        <time>2020-01-26T14:27:04Z</time>
      </trkpt>
      <trkpt lat="44.55792" lon="1.33457">
        <ele>208.3</ele>
        <time>2020-01-26T14:27:09Z</time>
      </trkpt>
      <trkpt lat="44.55797" lon="1.33454">
        <ele>209.1</ele>
        <time>2020-01-26T14:27:15Z</time>
      </trkpt>
      <trkpt lat="44.55801" lon="1.3345">
        <ele>210.9</ele>
        <time>2020-01-26T14:27:23Z</time>
      </trkpt>
      <trkpt lat="44.55806" lon="1.3345">
        <ele>211.3</ele>
        <time>2020-01-26T14:27:28Z</time>
      </trkpt>
      <trkpt lat="44.55811" lon="1.33449">
        <ele>211.5</ele>
        <time>2020-01-26T14:27:33Z</time>
      </trkpt>
      <trkpt lat="44.55816" lon="1.3345">
        <ele>211.4</ele>
        <time>2020-01-26T14:27:40Z</time>
      </trkpt>
      <trkpt lat="44.5582" lon="1.33447">
        <ele>214</ele>
        <time>2020-01-26T14:27:46Z</time>
      </trkpt>
      <trkpt lat="44.55825" lon="1.33444">
        <ele>216.2</ele>
        <time>2020-01-26T14:27:53Z</time>
      </trkpt>
      <trkpt lat="44.5583" lon="1.33443">
        <ele>218</ele>
        <time>2020-01-26T14:27:59Z</time>
      </trkpt>
      <trkpt lat="44.55835" lon="1.33442">
        <ele>218.4</ele>
        <time>2020-01-26T14:28:04Z</time>
      </trkpt>
      <trkpt lat="44.5584" lon="1.33441">
        <ele>218.4</ele>
        <time>2020-01-26T14:28:12Z</time>
      </trkpt>
      <trkpt lat="44.55844" lon="1.33438">
        <ele>218.1</ele>
        <time>2020-01-26T14:28:19Z</time>
      </trkpt>
      <trkpt lat="44.55849" lon="1.33436">
        <ele>218.1</ele>
        <time>2020-01-26T14:28:25Z</time>
      </trkpt>
      <trkpt lat="44.55854" lon="1.33433">
        <ele>219.1</ele>
        <time>2020-01-26T14:28:33Z</time>
      </trkpt>
      <trkpt lat="44.55859" lon="1.33432">
        <ele>219.6</ele>
        <time>2020-01-26T14:28:39Z</time>
      </trkpt>
      <trkpt lat="44.55863" lon="1.33427">
        <ele>220.4</ele>
        <time>2020-01-26T14:28:47Z</time>
      </trkpt>
      <trkpt lat="44.55867" lon="1.33425">
        <ele>220.3</ele>
        <time>2020-01-26T14:28:53Z</time>
      </trkpt>
      <trkpt lat="44.55871" lon="1.33421">
        <ele>220.5</ele>
        <time>2020-01-26T14:28:58Z</time>
      </trkpt>
      <trkpt lat="44.55874" lon="1.33416">
        <ele>219.8</ele>
        <time>2020-01-26T14:29:04Z</time>
      </trkpt>
      <trkpt lat="44.55878" lon="1.33412">
        <ele>218.9</ele>
        <time>2020-01-26T14:29:11Z</time>
      </trkpt>
      <trkpt lat="44.55882" lon="1.33407">
        <ele>219.5</ele>
        <time>2020-01-26T14:29:17Z</time>
      </trkpt>
      <trkpt lat="44.55886" lon="1.33404">
        <ele>220.6</ele>
        <time>2020-01-26T14:29:22Z</time>
      </trkpt>
      <trkpt lat="44.5589" lon="1.334">
        <ele>221.8</ele>
        <time>2020-01-26T14:29:28Z</time>
      </trkpt>
      <trkpt lat="44.55894" lon="1.33397">
        <ele>222.8</ele>
        <time>2020-01-26T14:29:33Z</time>
      </trkpt>
      <trkpt lat="44.55899" lon="1.33393">
        <ele>223.9</ele>
        <time>2020-01-26T14:29:41Z</time>
      </trkpt>
      <trkpt lat="44.55903" lon="1.3339">
        <ele>224.3</ele>
        <time>2020-01-26T14:29:49Z</time>
      </trkpt>
      <trkpt lat="44.55907" lon="1.33386">
        <ele>224.4</ele>
        <time>2020-01-26T14:29:55Z</time>
      </trkpt>
      <trkpt lat="44.55912" lon="1.33384">
        <ele>224.4</ele>
        <time>2020-01-26T14:30:00Z</time>
      </trkpt>
      <trkpt lat="44.55915" lon="1.33379">
        <ele>225.4</ele>
        <time>2020-01-26T14:30:05Z</time>
      </trkpt>
      <trkpt lat="44.55918" lon="1.33373">
        <ele>226.2</ele>
        <time>2020-01-26T14:30:09Z</time>
      </trkpt>
      <trkpt lat="44.55922" lon="1.33369">
        <ele>227.2</ele>
        <time>2020-01-26T14:30:14Z</time>
      </trkpt>
      <trkpt lat="44.55926" lon="1.33364">
        <ele>229.1</ele>
        <time>2020-01-26T14:30:20Z</time>
      </trkpt>
      <trkpt lat="44.55929" lon="1.3336">
        <ele>229.8</ele>
        <time>2020-01-26T14:30:24Z</time>
      </trkpt>
      <trkpt lat="44.55934" lon="1.33356">
        <ele>229.9</ele>
        <time>2020-01-26T14:30:30Z</time>
      </trkpt>
      <trkpt lat="44.55937" lon="1.3335">
        <ele>230.8</ele>
        <time>2020-01-26T14:30:36Z</time>
      </trkpt>
      <trkpt lat="44.5594" lon="1.33346">
        <ele>231.5</ele>
        <time>2020-01-26T14:30:43Z</time>
      </trkpt>
      <trkpt lat="44.55943" lon="1.33342">
        <ele>233.1</ele>
        <time>2020-01-26T14:30:47Z</time>
      </trkpt>
      <trkpt lat="44.55947" lon="1.33337">
        <ele>234.7</ele>
        <time>2020-01-26T14:30:53Z</time>
      </trkpt>
      <trkpt lat="44.55953" lon="1.33335">
        <ele>236.1</ele>
        <time>2020-01-26T14:31:00Z</time>
      </trkpt>
      <trkpt lat="44.55957" lon="1.33333">
        <ele>235.8</ele>
        <time>2020-01-26T14:31:06Z</time>
      </trkpt>
      <trkpt lat="44.55962" lon="1.33331">
        <ele>235.9</ele>
        <time>2020-01-26T14:31:11Z</time>
      </trkpt>
      <trkpt lat="44.55965" lon="1.33327">
        <ele>236.3</ele>
        <time>2020-01-26T14:31:18Z</time>
      </trkpt>
      <trkpt lat="44.5597" lon="1.33323">
        <ele>237.1</ele>
        <time>2020-01-26T14:31:23Z</time>
      </trkpt>
      <trkpt lat="44.55975" lon="1.3332">
        <ele>237.6</ele>
        <time>2020-01-26T14:31:27Z</time>
      </trkpt>
      <trkpt lat="44.5598" lon="1.33318">
        <ele>238.6</ele>
        <time>2020-01-26T14:31:31Z</time>
      </trkpt>
      <trkpt lat="44.55985" lon="1.33315">
        <ele>239.3</ele>
        <time>2020-01-26T14:31:35Z</time>
      </trkpt>
      <trkpt lat="44.55989" lon="1.33313">
        <ele>240</ele>
        <time>2020-01-26T14:31:40Z</time>
      </trkpt>
      <trkpt lat="44.55994" lon="1.33313">
        <ele>240.3</ele>
        <time>2020-01-26T14:31:45Z</time>
      </trkpt>
      <trkpt lat="44.55998" lon="1.33309">
        <ele>240.9</ele>
        <time>2020-01-26T14:31:55Z</time>
      </trkpt>
      <trkpt lat="44.56002" lon="1.33308">
        <ele>239.1</ele>
        <time>2020-01-26T14:32:08Z</time>
      </trkpt>
      <trkpt lat="44.56008" lon="1.3331">
        <ele>237.9</ele>
        <time>2020-01-26T14:32:12Z</time>
      </trkpt>
      <trkpt lat="44.56013" lon="1.33309">
        <ele>237.2</ele>
        <time>2020-01-26T14:32:17Z</time>
      </trkpt>
      <trkpt lat="44.56017" lon="1.33307">
        <ele>237.7</ele>
        <time>2020-01-26T14:32:22Z</time>
      </trkpt>
      <trkpt lat="44.56023" lon="1.33306">
        <ele>239.1</ele>
        <time>2020-01-26T14:32:26Z</time>
      </trkpt>
      <trkpt lat="44.56027" lon="1.33303">
        <ele>239.8</ele>
        <time>2020-01-26T14:32:31Z</time>
      </trkpt>
      <trkpt lat="44.56032" lon="1.33301">
        <ele>240.6</ele>
        <time>2020-01-26T14:32:35Z</time>
      </trkpt>
      <trkpt lat="44.56037" lon="1.33299">
        <ele>241.5</ele>
        <time>2020-01-26T14:32:40Z</time>
      </trkpt>
      <trkpt lat="44.56041" lon="1.33297">
        <ele>242.3</ele>
        <time>2020-01-26T14:32:44Z</time>
      </trkpt>
      <trkpt lat="44.56046" lon="1.33294">
        <ele>243.5</ele>
        <time>2020-01-26T14:32:49Z</time>
      </trkpt>
      <trkpt lat="44.56051" lon="1.33293">
        <ele>244.6</ele>
        <time>2020-01-26T14:32:54Z</time>
      </trkpt>
      <trkpt lat="44.56057" lon="1.33293">
        <ele>246.6</ele>
        <time>2020-01-26T14:33:01Z</time>
      </trkpt>
      <trkpt lat="44.56061" lon="1.33293">
        <ele>246</ele>
        <time>2020-01-26T14:33:06Z</time>
      </trkpt>
      <trkpt lat="44.56066" lon="1.3329">
        <ele>246.4</ele>
        <time>2020-01-26T14:33:11Z</time>
      </trkpt>
      <trkpt lat="44.56071" lon="1.3329">
        <ele>246.8</ele>
        <time>2020-01-26T14:33:15Z</time>
      </trkpt>
      <trkpt lat="44.56077" lon="1.33288">
        <ele>247</ele>
        <time>2020-01-26T14:33:20Z</time>
      </trkpt>
      <trkpt lat="44.56081" lon="1.3329">
        <ele>247.3</ele>
        <time>2020-01-26T14:33:25Z</time>
      </trkpt>
      <trkpt lat="44.56086" lon="1.33289">
        <ele>248</ele>
        <time>2020-01-26T14:33:28Z</time>
      </trkpt>
      <trkpt lat="44.56091" lon="1.33289">
        <ele>248.3</ele>
        <time>2020-01-26T14:33:32Z</time>
      </trkpt>
      <trkpt lat="44.56096" lon="1.33289">
        <ele>248.2</ele>
        <time>2020-01-26T14:33:36Z</time>
      </trkpt>
      <trkpt lat="44.56101" lon="1.33287">
        <ele>248.1</ele>
        <time>2020-01-26T14:33:41Z</time>
      </trkpt>
      <trkpt lat="44.56106" lon="1.33288">
        <ele>248</ele>
        <time>2020-01-26T14:33:45Z</time>
      </trkpt>
      <trkpt lat="44.56111" lon="1.33289">
        <ele>247.6</ele>
        <time>2020-01-26T14:33:50Z</time>
      </trkpt>
      <trkpt lat="44.56115" lon="1.33288">
        <ele>247.6</ele>
        <time>2020-01-26T14:33:56Z</time>
      </trkpt>
      <trkpt lat="44.5612" lon="1.33286">
        <ele>247.1</ele>
        <time>2020-01-26T14:34:05Z</time>
      </trkpt>
      <trkpt lat="44.56126" lon="1.33286">
        <ele>247.3</ele>
        <time>2020-01-26T14:34:15Z</time>
      </trkpt>
      <trkpt lat="44.56131" lon="1.33285">
        <ele>246.7</ele>
        <time>2020-01-26T14:34:19Z</time>
      </trkpt>
      <trkpt lat="44.56136" lon="1.33285">
        <ele>246.3</ele>
        <time>2020-01-26T14:34:25Z</time>
      </trkpt>
      <trkpt lat="44.56141" lon="1.33285">
        <ele>246.4</ele>
        <time>2020-01-26T14:34:29Z</time>
      </trkpt>
      <trkpt lat="44.56147" lon="1.33287">
        <ele>247.6</ele>
        <time>2020-01-26T14:34:33Z</time>
      </trkpt>
      <trkpt lat="44.56152" lon="1.33288">
        <ele>249.1</ele>
        <time>2020-01-26T14:34:39Z</time>
      </trkpt>
      <trkpt lat="44.56157" lon="1.33289">
        <ele>249</ele>
        <time>2020-01-26T14:34:44Z</time>
      </trkpt>
      <trkpt lat="44.56162" lon="1.33288">
        <ele>248.5</ele>
        <time>2020-01-26T14:34:48Z</time>
      </trkpt>
      <trkpt lat="44.56167" lon="1.33288">
        <ele>247.7</ele>
        <time>2020-01-26T14:34:53Z</time>
      </trkpt>
      <trkpt lat="44.56172" lon="1.33288">
        <ele>247.4</ele>
        <time>2020-01-26T14:34:57Z</time>
      </trkpt>
      <trkpt lat="44.56177" lon="1.33288">
        <ele>246.5</ele>
        <time>2020-01-26T14:35:01Z</time>
      </trkpt>
      <trkpt lat="44.56183" lon="1.33289">
        <ele>246.8</ele>
        <time>2020-01-26T14:35:05Z</time>
      </trkpt>
      <trkpt lat="44.56188" lon="1.3329">
        <ele>247.1</ele>
        <time>2020-01-26T14:35:09Z</time>
      </trkpt>
      <trkpt lat="44.56193" lon="1.33291">
        <ele>247.5</ele>
        <time>2020-01-26T14:35:14Z</time>
      </trkpt>
      <trkpt lat="44.56198" lon="1.33291">
        <ele>247.7</ele>
        <time>2020-01-26T14:35:18Z</time>
      </trkpt>
      <trkpt lat="44.56203" lon="1.33291">
        <ele>248.1</ele>
        <time>2020-01-26T14:35:23Z</time>
      </trkpt>
      <trkpt lat="44.56208" lon="1.33291">
        <ele>248.1</ele>
        <time>2020-01-26T14:35:28Z</time>
      </trkpt>
      <trkpt lat="44.56213" lon="1.33292">
        <ele>248.2</ele>
        <time>2020-01-26T14:35:34Z</time>
      </trkpt>
      <trkpt lat="44.56218" lon="1.33292">
        <ele>247.8</ele>
        <time>2020-01-26T14:35:39Z</time>
      </trkpt>
      <trkpt lat="44.56223" lon="1.33294">
        <ele>247.5</ele>
        <time>2020-01-26T14:35:44Z</time>
      </trkpt>
      <trkpt lat="44.56228" lon="1.33295">
        <ele>247.4</ele>
        <time>2020-01-26T14:35:48Z</time>
      </trkpt>
      <trkpt lat="44.56233" lon="1.33296">
        <ele>247.5</ele>
        <time>2020-01-26T14:35:51Z</time>
      </trkpt>
      <trkpt lat="44.56239" lon="1.33295">
        <ele>247.2</ele>
        <time>2020-01-26T14:35:55Z</time>
      </trkpt>
      <trkpt lat="44.56244" lon="1.33296">
        <ele>247.4</ele>
        <time>2020-01-26T14:36:00Z</time>
      </trkpt>
      <trkpt lat="44.56249" lon="1.33295">
        <ele>247.4</ele>
        <time>2020-01-26T14:36:03Z</time>
      </trkpt>
      <trkpt lat="44.56254" lon="1.33297">
        <ele>247.3</ele>
        <time>2020-01-26T14:36:08Z</time>
      </trkpt>
      <trkpt lat="44.5626" lon="1.33297">
        <ele>247.7</ele>
        <time>2020-01-26T14:36:13Z</time>
      </trkpt>
      <trkpt lat="44.56265" lon="1.33297">
        <ele>247.7</ele>
        <time>2020-01-26T14:36:18Z</time>
      </trkpt>
      <trkpt lat="44.56269" lon="1.33298">
        <ele>247.7</ele>
        <time>2020-01-26T14:36:25Z</time>
      </trkpt>
      <trkpt lat="44.56274" lon="1.33297">
        <ele>247.7</ele>
        <time>2020-01-26T14:36:30Z</time>
      </trkpt>
      <trkpt lat="44.56279" lon="1.33297">
        <ele>247.8</ele>
        <time>2020-01-26T14:36:34Z</time>
      </trkpt>
      <trkpt lat="44.56284" lon="1.33297">
        <ele>247.3</ele>
        <time>2020-01-26T14:36:41Z</time>
      </trkpt>
      <trkpt lat="44.56289" lon="1.33297">
        <ele>247.7</ele>
        <time>2020-01-26T14:36:46Z</time>
      </trkpt>
      <trkpt lat="44.56295" lon="1.33298">
        <ele>248.1</ele>
        <time>2020-01-26T14:36:50Z</time>
      </trkpt>
      <trkpt lat="44.563" lon="1.33299">
        <ele>248</ele>
        <time>2020-01-26T14:36:56Z</time>
      </trkpt>
      <trkpt lat="44.56305" lon="1.33298">
        <ele>248</ele>
        <time>2020-01-26T14:37:01Z</time>
      </trkpt>
      <trkpt lat="44.56311" lon="1.33297">
        <ele>247.5</ele>
        <time>2020-01-26T14:37:05Z</time>
      </trkpt>
      <trkpt lat="44.56316" lon="1.33298">
        <ele>247.7</ele>
        <time>2020-01-26T14:37:09Z</time>
      </trkpt>
      <trkpt lat="44.56321" lon="1.33299">
        <ele>248.2</ele>
        <time>2020-01-26T14:37:15Z</time>
      </trkpt>
      <trkpt lat="44.56326" lon="1.33299">
        <ele>248.1</ele>
        <time>2020-01-26T14:37:24Z</time>
      </trkpt>
      <trkpt lat="44.56329" lon="1.33295">
        <ele>245.6</ele>
        <time>2020-01-26T14:37:43Z</time>
      </trkpt>
      <trkpt lat="44.56334" lon="1.33297">
        <ele>248.9</ele>
        <time>2020-01-26T14:38:27Z</time>
      </trkpt>
      <trkpt lat="44.56339" lon="1.33296">
        <ele>248.5</ele>
        <time>2020-01-26T14:38:33Z</time>
      </trkpt>
      <trkpt lat="44.56343" lon="1.33296">
        <ele>248.7</ele>
        <time>2020-01-26T14:38:36Z</time>
      </trkpt>
      <trkpt lat="44.56348" lon="1.33293">
        <ele>248.6</ele>
        <time>2020-01-26T14:38:41Z</time>
      </trkpt>
      <trkpt lat="44.56352" lon="1.33291">
        <ele>248.3</ele>
        <time>2020-01-26T14:38:46Z</time>
      </trkpt>
      <trkpt lat="44.56357" lon="1.33289">
        <ele>248.7</ele>
        <time>2020-01-26T14:38:51Z</time>
      </trkpt>
      <trkpt lat="44.56363" lon="1.33287">
        <ele>249.5</ele>
        <time>2020-01-26T14:38:55Z</time>
      </trkpt>
      <trkpt lat="44.56367" lon="1.33283">
        <ele>250.1</ele>
        <time>2020-01-26T14:39:00Z</time>
      </trkpt>
      <trkpt lat="44.56372" lon="1.33281">
        <ele>250.9</ele>
        <time>2020-01-26T14:39:04Z</time>
      </trkpt>
      <trkpt lat="44.56377" lon="1.33279">
        <ele>250.2</ele>
        <time>2020-01-26T14:39:10Z</time>
      </trkpt>
      <trkpt lat="44.56381" lon="1.33277">
        <ele>249.8</ele>
        <time>2020-01-26T14:39:14Z</time>
      </trkpt>
      <trkpt lat="44.56387" lon="1.33276">
        <ele>250.3</ele>
        <time>2020-01-26T14:39:20Z</time>
      </trkpt>
      <trkpt lat="44.56391" lon="1.33275">
        <ele>250.6</ele>
        <time>2020-01-26T14:39:25Z</time>
      </trkpt>
      <trkpt lat="44.56396" lon="1.33276">
        <ele>250.9</ele>
        <time>2020-01-26T14:39:33Z</time>
      </trkpt>
      <trkpt lat="44.56401" lon="1.33276">
        <ele>251.3</ele>
        <time>2020-01-26T14:39:38Z</time>
      </trkpt>
      <trkpt lat="44.56407" lon="1.33276">
        <ele>251.5</ele>
        <time>2020-01-26T14:39:42Z</time>
      </trkpt>
      <trkpt lat="44.56412" lon="1.33277">
        <ele>251.9</ele>
        <time>2020-01-26T14:39:46Z</time>
      </trkpt>
      <trkpt lat="44.56416" lon="1.33277">
        <ele>252.5</ele>
        <time>2020-01-26T14:39:52Z</time>
      </trkpt>
      <trkpt lat="44.56421" lon="1.33278">
        <ele>252.8</ele>
        <time>2020-01-26T14:39:58Z</time>
      </trkpt>
      <trkpt lat="44.56426" lon="1.33279">
        <ele>252.2</ele>
        <time>2020-01-26T14:40:05Z</time>
      </trkpt>
      <trkpt lat="44.56431" lon="1.33279">
        <ele>251.6</ele>
        <time>2020-01-26T14:40:08Z</time>
      </trkpt>
      <trkpt lat="44.56436" lon="1.3328">
        <ele>251.4</ele>
        <time>2020-01-26T14:40:13Z</time>
      </trkpt>
      <trkpt lat="44.56441" lon="1.33282">
        <ele>250.3</ele>
        <time>2020-01-26T14:40:19Z</time>
      </trkpt>
      <trkpt lat="44.56447" lon="1.33282">
        <ele>249.7</ele>
        <time>2020-01-26T14:40:24Z</time>
      </trkpt>
      <trkpt lat="44.56452" lon="1.33282">
        <ele>248.3</ele>
        <time>2020-01-26T14:40:30Z</time>
      </trkpt>
      <trkpt lat="44.56457" lon="1.33282">
        <ele>247.7</ele>
        <time>2020-01-26T14:40:36Z</time>
      </trkpt>
      <trkpt lat="44.56462" lon="1.33283">
        <ele>248.3</ele>
        <time>2020-01-26T14:40:40Z</time>
      </trkpt>
      <trkpt lat="44.56467" lon="1.33284">
        <ele>249.3</ele>
        <time>2020-01-26T14:40:45Z</time>
      </trkpt>
      <trkpt lat="44.56472" lon="1.33284">
        <ele>250.6</ele>
        <time>2020-01-26T14:40:51Z</time>
      </trkpt>
      <trkpt lat="44.56477" lon="1.33284">
        <ele>251.5</ele>
        <time>2020-01-26T14:40:56Z</time>
      </trkpt>
      <trkpt lat="44.56482" lon="1.33284">
        <ele>252.8</ele>
        <time>2020-01-26T14:41:00Z</time>
      </trkpt>
      <trkpt lat="44.56487" lon="1.33284">
        <ele>254.4</ele>
        <time>2020-01-26T14:41:05Z</time>
      </trkpt>
      <trkpt lat="44.56491" lon="1.33285">
        <ele>255.1</ele>
        <time>2020-01-26T14:41:09Z</time>
      </trkpt>
      <trkpt lat="44.56496" lon="1.33287">
        <ele>255.1</ele>
        <time>2020-01-26T14:41:14Z</time>
      </trkpt>
      <trkpt lat="44.56501" lon="1.3329">
        <ele>255.5</ele>
        <time>2020-01-26T14:41:19Z</time>
      </trkpt>
      <trkpt lat="44.56506" lon="1.3329">
        <ele>254.4</ele>
        <time>2020-01-26T14:41:26Z</time>
      </trkpt>
      <trkpt lat="44.56511" lon="1.3329">
        <ele>254.8</ele>
        <time>2020-01-26T14:41:35Z</time>
      </trkpt>
      <trkpt lat="44.56516" lon="1.33291">
        <ele>256.1</ele>
        <time>2020-01-26T14:41:39Z</time>
      </trkpt>
      <trkpt lat="44.56521" lon="1.33292">
        <ele>256.6</ele>
        <time>2020-01-26T14:41:45Z</time>
      </trkpt>
      <trkpt lat="44.56526" lon="1.33294">
        <ele>257</ele>
        <time>2020-01-26T14:41:50Z</time>
      </trkpt>
      <trkpt lat="44.5653" lon="1.33296">
        <ele>258</ele>
        <time>2020-01-26T14:41:53Z</time>
      </trkpt>
      <trkpt lat="44.56535" lon="1.33296">
        <ele>258.6</ele>
        <time>2020-01-26T14:41:57Z</time>
      </trkpt>
      <trkpt lat="44.5654" lon="1.33299">
        <ele>259</ele>
        <time>2020-01-26T14:42:01Z</time>
      </trkpt>
      <trkpt lat="44.56545" lon="1.33302">
        <ele>259.4</ele>
        <time>2020-01-26T14:42:06Z</time>
      </trkpt>
      <trkpt lat="44.5655" lon="1.33305">
        <ele>259.4</ele>
        <time>2020-01-26T14:42:11Z</time>
      </trkpt>
      <trkpt lat="44.56554" lon="1.33309">
        <ele>258.8</ele>
        <time>2020-01-26T14:42:17Z</time>
      </trkpt>
      <trkpt lat="44.56558" lon="1.33312">
        <ele>259.3</ele>
        <time>2020-01-26T14:42:22Z</time>
      </trkpt>
      <trkpt lat="44.56563" lon="1.33317">
        <ele>259.5</ele>
        <time>2020-01-26T14:42:26Z</time>
      </trkpt>
      <trkpt lat="44.56567" lon="1.33321">
        <ele>260.5</ele>
        <time>2020-01-26T14:42:29Z</time>
      </trkpt>
      <trkpt lat="44.56571" lon="1.33325">
        <ele>261</ele>
        <time>2020-01-26T14:42:33Z</time>
      </trkpt>
      <trkpt lat="44.56576" lon="1.3333">
        <ele>259.8</ele>
        <time>2020-01-26T14:42:39Z</time>
      </trkpt>
      <trkpt lat="44.5658" lon="1.33333">
        <ele>259.4</ele>
        <time>2020-01-26T14:42:44Z</time>
      </trkpt>
      <trkpt lat="44.56584" lon="1.33336">
        <ele>259.6</ele>
        <time>2020-01-26T14:42:48Z</time>
      </trkpt>
      <trkpt lat="44.56588" lon="1.3334">
        <ele>258.9</ele>
        <time>2020-01-26T14:42:55Z</time>
      </trkpt>
      <trkpt lat="44.56592" lon="1.33343">
        <ele>258.5</ele>
        <time>2020-01-26T14:43:09Z</time>
      </trkpt>
      <trkpt lat="44.56595" lon="1.33349">
        <ele>257.7</ele>
        <time>2020-01-26T14:43:15Z</time>
      </trkpt>
      <trkpt lat="44.56596" lon="1.33355">
        <ele>257.6</ele>
        <time>2020-01-26T14:43:18Z</time>
      </trkpt>
      <trkpt lat="44.56595" lon="1.33362">
        <ele>257</ele>
        <time>2020-01-26T14:43:22Z</time>
      </trkpt>
      <trkpt lat="44.56595" lon="1.33369">
        <ele>256.3</ele>
        <time>2020-01-26T14:43:28Z</time>
      </trkpt>
      <trkpt lat="44.56595" lon="1.33376">
        <ele>256.2</ele>
        <time>2020-01-26T14:43:33Z</time>
      </trkpt>
      <trkpt lat="44.56596" lon="1.33383">
        <ele>256.2</ele>
        <time>2020-01-26T14:43:38Z</time>
      </trkpt>
      <trkpt lat="44.56596" lon="1.3339">
        <ele>255.3</ele>
        <time>2020-01-26T14:43:46Z</time>
      </trkpt>
      <trkpt lat="44.56596" lon="1.33397">
        <ele>255.2</ele>
        <time>2020-01-26T14:43:48Z</time>
      </trkpt>
      <trkpt lat="44.56595" lon="1.33403">
        <ele>256.2</ele>
        <time>2020-01-26T14:43:54Z</time>
      </trkpt>
      <trkpt lat="44.56596" lon="1.3341">
        <ele>256</ele>
        <time>2020-01-26T14:43:59Z</time>
      </trkpt>
      <trkpt lat="44.56597" lon="1.33416">
        <ele>255.2</ele>
        <time>2020-01-26T14:44:04Z</time>
      </trkpt>
      <trkpt lat="44.56598" lon="1.33424">
        <ele>254.4</ele>
        <time>2020-01-26T14:44:09Z</time>
      </trkpt>
      <trkpt lat="44.56601" lon="1.3343">
        <ele>254.7</ele>
        <time>2020-01-26T14:44:15Z</time>
      </trkpt>
      <trkpt lat="44.56602" lon="1.33437">
        <ele>255</ele>
        <time>2020-01-26T14:44:21Z</time>
      </trkpt>
      <trkpt lat="44.56603" lon="1.33444">
        <ele>255.9</ele>
        <time>2020-01-26T14:44:26Z</time>
      </trkpt>
      <trkpt lat="44.56603" lon="1.33451">
        <ele>256.1</ele>
        <time>2020-01-26T14:44:32Z</time>
      </trkpt>
      <trkpt lat="44.56603" lon="1.33458">
        <ele>256.1</ele>
        <time>2020-01-26T14:44:37Z</time>
      </trkpt>
      <trkpt lat="44.56602" lon="1.33466">
        <ele>256.9</ele>
        <time>2020-01-26T14:44:40Z</time>
      </trkpt>
      <trkpt lat="44.56602" lon="1.33473">
        <ele>257.3</ele>
        <time>2020-01-26T14:44:46Z</time>
      </trkpt>
      <trkpt lat="44.56601" lon="1.3348">
        <ele>257.7</ele>
        <time>2020-01-26T14:44:51Z</time>
      </trkpt>
      <trkpt lat="44.566" lon="1.33486">
        <ele>258.4</ele>
        <time>2020-01-26T14:44:55Z</time>
      </trkpt>
      <trkpt lat="44.56599" lon="1.33493">
        <ele>258.6</ele>
        <time>2020-01-26T14:45:00Z</time>
      </trkpt>
      <trkpt lat="44.56596" lon="1.33499">
        <ele>258.5</ele>
        <time>2020-01-26T14:45:05Z</time>
      </trkpt>
      <trkpt lat="44.56593" lon="1.33505">
        <ele>257.5</ele>
        <time>2020-01-26T14:45:11Z</time>
      </trkpt>
      <trkpt lat="44.5659" lon="1.33511">
        <ele>255.9</ele>
        <time>2020-01-26T14:45:17Z</time>
      </trkpt>
      <trkpt lat="44.56587" lon="1.33515">
        <ele>254.2</ele>
        <time>2020-01-26T14:45:23Z</time>
      </trkpt>
      <trkpt lat="44.56586" lon="1.33522">
        <ele>253.2</ele>
        <time>2020-01-26T14:45:29Z</time>
      </trkpt>
      <trkpt lat="44.56583" lon="1.33528">
        <ele>253.3</ele>
        <time>2020-01-26T14:45:34Z</time>
      </trkpt>
      <trkpt lat="44.56579" lon="1.33534">
        <ele>253.2</ele>
        <time>2020-01-26T14:45:39Z</time>
      </trkpt>
      <trkpt lat="44.56577" lon="1.3354">
        <ele>252.8</ele>
        <time>2020-01-26T14:45:44Z</time>
      </trkpt>
      <trkpt lat="44.56574" lon="1.33546">
        <ele>253.4</ele>
        <time>2020-01-26T14:45:49Z</time>
      </trkpt>
      <trkpt lat="44.5657" lon="1.33551">
        <ele>253.3</ele>
        <time>2020-01-26T14:45:54Z</time>
      </trkpt>
      <trkpt lat="44.56565" lon="1.33552">
        <ele>251.9</ele>
        <time>2020-01-26T14:45:57Z</time>
      </trkpt>
      <trkpt lat="44.5656" lon="1.33554">
        <ele>250.8</ele>
        <time>2020-01-26T14:46:02Z</time>
      </trkpt>
      <trkpt lat="44.56556" lon="1.33559">
        <ele>250.6</ele>
        <time>2020-01-26T14:46:07Z</time>
      </trkpt>
      <trkpt lat="44.56553" lon="1.33564">
        <ele>250.5</ele>
        <time>2020-01-26T14:46:12Z</time>
      </trkpt>
      <trkpt lat="44.56553" lon="1.33571">
        <ele>250</ele>
        <time>2020-01-26T14:46:18Z</time>
      </trkpt>
      <trkpt lat="44.56556" lon="1.33576">
        <ele>248.7</ele>
        <time>2020-01-26T14:46:25Z</time>
      </trkpt>
      <trkpt lat="44.5656" lon="1.33581">
        <ele>248.1</ele>
        <time>2020-01-26T14:46:29Z</time>
      </trkpt>
      <trkpt lat="44.56564" lon="1.33584">
        <ele>247.7</ele>
        <time>2020-01-26T14:46:34Z</time>
      </trkpt>
      <trkpt lat="44.56568" lon="1.33589">
        <ele>247</ele>
        <time>2020-01-26T14:46:40Z</time>
      </trkpt>
      <trkpt lat="44.56572" lon="1.33594">
        <ele>246.2</ele>
        <time>2020-01-26T14:46:47Z</time>
      </trkpt>
      <trkpt lat="44.56575" lon="1.33599">
        <ele>245.8</ele>
        <time>2020-01-26T14:46:55Z</time>
      </trkpt>
      <trkpt lat="44.56578" lon="1.33604">
        <ele>248.1</ele>
        <time>2020-01-26T14:47:02Z</time>
      </trkpt>
      <trkpt lat="44.56582" lon="1.33608">
        <ele>249.8</ele>
        <time>2020-01-26T14:47:27Z</time>
      </trkpt>
      <trkpt lat="44.56587" lon="1.3361">
        <ele>249.9</ele>
        <time>2020-01-26T14:47:39Z</time>
      </trkpt>
      <trkpt lat="44.56592" lon="1.33612">
        <ele>250.3</ele>
        <time>2020-01-26T14:47:46Z</time>
      </trkpt>
      <trkpt lat="44.56596" lon="1.33613">
        <ele>251.5</ele>
        <time>2020-01-26T14:47:59Z</time>
      </trkpt>
      <trkpt lat="44.56601" lon="1.33612">
        <ele>258.1</ele>
        <time>2020-01-26T14:49:16Z</time>
      </trkpt>
      <trkpt lat="44.56604" lon="1.33607">
        <ele>259.5</ele>
        <time>2020-01-26T14:50:39Z</time>
      </trkpt>
      <trkpt lat="44.56608" lon="1.33603">
        <ele>259.3</ele>
        <time>2020-01-26T14:50:45Z</time>
      </trkpt>
      <trkpt lat="44.56612" lon="1.33599">
        <ele>259.8</ele>
        <time>2020-01-26T14:50:51Z</time>
      </trkpt>
      <trkpt lat="44.56616" lon="1.33595">
        <ele>260.5</ele>
        <time>2020-01-26T14:50:56Z</time>
      </trkpt>
      <trkpt lat="44.56621" lon="1.33591">
        <ele>261.3</ele>
        <time>2020-01-26T14:51:03Z</time>
      </trkpt>
      <trkpt lat="44.56624" lon="1.33586">
        <ele>261.5</ele>
        <time>2020-01-26T14:51:09Z</time>
      </trkpt>
      <trkpt lat="44.56629" lon="1.33583">
        <ele>262</ele>
        <time>2020-01-26T14:51:15Z</time>
      </trkpt>
      <trkpt lat="44.56633" lon="1.33585">
        <ele>261.8</ele>
        <time>2020-01-26T14:51:24Z</time>
      </trkpt>
      <trkpt lat="44.56638" lon="1.33583">
        <ele>261.6</ele>
        <time>2020-01-26T14:51:29Z</time>
      </trkpt>
      <trkpt lat="44.56642" lon="1.3358">
        <ele>261.7</ele>
        <time>2020-01-26T14:51:34Z</time>
      </trkpt>
      <trkpt lat="44.56647" lon="1.33577">
        <ele>262</ele>
        <time>2020-01-26T14:51:39Z</time>
      </trkpt>
      <trkpt lat="44.56651" lon="1.33574">
        <ele>263.2</ele>
        <time>2020-01-26T14:51:45Z</time>
      </trkpt>
      <trkpt lat="44.56654" lon="1.33568">
        <ele>263.8</ele>
        <time>2020-01-26T14:51:51Z</time>
      </trkpt>
      <trkpt lat="44.56656" lon="1.33562">
        <ele>264.5</ele>
        <time>2020-01-26T14:51:56Z</time>
      </trkpt>
      <trkpt lat="44.56657" lon="1.33555">
        <ele>264.8</ele>
        <time>2020-01-26T14:52:02Z</time>
      </trkpt>
      <trkpt lat="44.56656" lon="1.33548">
        <ele>264.7</ele>
        <time>2020-01-26T14:52:10Z</time>
      </trkpt>
      <trkpt lat="44.56658" lon="1.33542">
        <ele>264.5</ele>
        <time>2020-01-26T14:52:18Z</time>
      </trkpt>
      <trkpt lat="44.56659" lon="1.33535">
        <ele>264.8</ele>
        <time>2020-01-26T14:52:24Z</time>
      </trkpt>
      <trkpt lat="44.5666" lon="1.33529">
        <ele>264.6</ele>
        <time>2020-01-26T14:52:29Z</time>
      </trkpt>
      <trkpt lat="44.56662" lon="1.33522">
        <ele>264.1</ele>
        <time>2020-01-26T14:52:34Z</time>
      </trkpt>
      <trkpt lat="44.56663" lon="1.33516">
        <ele>263.8</ele>
        <time>2020-01-26T14:52:39Z</time>
      </trkpt>
      <trkpt lat="44.56664" lon="1.33509">
        <ele>263.9</ele>
        <time>2020-01-26T14:52:44Z</time>
      </trkpt>
      <trkpt lat="44.56666" lon="1.33502">
        <ele>263.8</ele>
        <time>2020-01-26T14:52:50Z</time>
      </trkpt>
      <trkpt lat="44.56668" lon="1.33496">
        <ele>263.6</ele>
        <time>2020-01-26T14:52:55Z</time>
      </trkpt>
      <trkpt lat="44.5667" lon="1.33489">
        <ele>263.2</ele>
        <time>2020-01-26T14:53:00Z</time>
      </trkpt>
      <trkpt lat="44.56672" lon="1.33482">
        <ele>263.6</ele>
        <time>2020-01-26T14:53:05Z</time>
      </trkpt>
      <trkpt lat="44.56674" lon="1.33475">
        <ele>263.6</ele>
        <time>2020-01-26T14:53:10Z</time>
      </trkpt>
      <trkpt lat="44.56676" lon="1.33469">
        <ele>263.2</ele>
        <time>2020-01-26T14:53:15Z</time>
      </trkpt>
      <trkpt lat="44.56678" lon="1.33463">
        <ele>262.8</ele>
        <time>2020-01-26T14:53:20Z</time>
      </trkpt>
      <trkpt lat="44.56681" lon="1.33457">
        <ele>263.1</ele>
        <time>2020-01-26T14:53:24Z</time>
      </trkpt>
      <trkpt lat="44.56683" lon="1.3345">
        <ele>263.5</ele>
        <time>2020-01-26T14:53:29Z</time>
      </trkpt>
      <trkpt lat="44.56687" lon="1.33446">
        <ele>263.2</ele>
        <time>2020-01-26T14:53:35Z</time>
      </trkpt>
      <trkpt lat="44.56691" lon="1.33442">
        <ele>262.5</ele>
        <time>2020-01-26T14:53:42Z</time>
      </trkpt>
      <trkpt lat="44.56697" lon="1.33444">
        <ele>262.2</ele>
        <time>2020-01-26T14:53:49Z</time>
      </trkpt>
      <trkpt lat="44.56701" lon="1.33446">
        <ele>262.2</ele>
        <time>2020-01-26T14:53:54Z</time>
      </trkpt>
      <trkpt lat="44.56705" lon="1.33448">
        <ele>261.3</ele>
        <time>2020-01-26T14:54:00Z</time>
      </trkpt>
      <trkpt lat="44.5671" lon="1.3345">
        <ele>261.1</ele>
        <time>2020-01-26T14:54:05Z</time>
      </trkpt>
      <trkpt lat="44.56714" lon="1.33453">
        <ele>260.4</ele>
        <time>2020-01-26T14:54:11Z</time>
      </trkpt>
      <trkpt lat="44.56718" lon="1.33458">
        <ele>260.4</ele>
        <time>2020-01-26T14:54:17Z</time>
      </trkpt>
      <trkpt lat="44.56722" lon="1.33462">
        <ele>260.7</ele>
        <time>2020-01-26T14:54:23Z</time>
      </trkpt>
      <trkpt lat="44.56726" lon="1.33467">
        <ele>261.6</ele>
        <time>2020-01-26T14:54:28Z</time>
      </trkpt>
      <trkpt lat="44.56731" lon="1.33472">
        <ele>261.6</ele>
        <time>2020-01-26T14:54:33Z</time>
      </trkpt>
      <trkpt lat="44.56735" lon="1.33478">
        <ele>262</ele>
        <time>2020-01-26T14:54:39Z</time>
      </trkpt>
      <trkpt lat="44.56738" lon="1.33482">
        <ele>262.1</ele>
        <time>2020-01-26T14:54:45Z</time>
      </trkpt>
      <trkpt lat="44.56741" lon="1.33488">
        <ele>262</ele>
        <time>2020-01-26T14:54:50Z</time>
      </trkpt>
      <trkpt lat="44.56743" lon="1.33494">
        <ele>262.6</ele>
        <time>2020-01-26T14:54:55Z</time>
      </trkpt>
      <trkpt lat="44.56746" lon="1.335">
        <ele>263.2</ele>
        <time>2020-01-26T14:55:00Z</time>
      </trkpt>
      <trkpt lat="44.56748" lon="1.33506">
        <ele>263.7</ele>
        <time>2020-01-26T14:55:12Z</time>
      </trkpt>
      <trkpt lat="44.5675" lon="1.33512">
        <ele>263</ele>
        <time>2020-01-26T14:55:17Z</time>
      </trkpt>
      <trkpt lat="44.56753" lon="1.33517">
        <ele>262.6</ele>
        <time>2020-01-26T14:55:24Z</time>
      </trkpt>
      <trkpt lat="44.56756" lon="1.33522">
        <ele>262.7</ele>
        <time>2020-01-26T14:55:30Z</time>
      </trkpt>
      <trkpt lat="44.56759" lon="1.33528">
        <ele>262.4</ele>
        <time>2020-01-26T14:55:36Z</time>
      </trkpt>
      <trkpt lat="44.56761" lon="1.33533">
        <ele>262.2</ele>
        <time>2020-01-26T14:55:41Z</time>
      </trkpt>
      <trkpt lat="44.56763" lon="1.33541">
        <ele>263.2</ele>
        <time>2020-01-26T14:55:45Z</time>
      </trkpt>
      <trkpt lat="44.56767" lon="1.33546">
        <ele>263.9</ele>
        <time>2020-01-26T14:55:50Z</time>
      </trkpt>
      <trkpt lat="44.56771" lon="1.33551">
        <ele>263.4</ele>
        <time>2020-01-26T14:55:57Z</time>
      </trkpt>
      <trkpt lat="44.56775" lon="1.33556">
        <ele>263.2</ele>
        <time>2020-01-26T14:56:02Z</time>
      </trkpt>
      <trkpt lat="44.56778" lon="1.33561">
        <ele>262.6</ele>
        <time>2020-01-26T14:56:07Z</time>
      </trkpt>
      <trkpt lat="44.56782" lon="1.33565">
        <ele>263.1</ele>
        <time>2020-01-26T14:56:11Z</time>
      </trkpt>
      <trkpt lat="44.56786" lon="1.33568">
        <ele>263.5</ele>
        <time>2020-01-26T14:56:15Z</time>
      </trkpt>
      <trkpt lat="44.5679" lon="1.33573">
        <ele>264.4</ele>
        <time>2020-01-26T14:56:19Z</time>
      </trkpt>
      <trkpt lat="44.56793" lon="1.33578">
        <ele>265.9</ele>
        <time>2020-01-26T14:56:23Z</time>
      </trkpt>
      <trkpt lat="44.56798" lon="1.33581">
        <ele>267.1</ele>
        <time>2020-01-26T14:56:29Z</time>
      </trkpt>
      <trkpt lat="44.56803" lon="1.33586">
        <ele>268.3</ele>
        <time>2020-01-26T14:56:34Z</time>
      </trkpt>
      <trkpt lat="44.56807" lon="1.3359">
        <ele>270.3</ele>
        <time>2020-01-26T14:56:36Z</time>
      </trkpt>
      <trkpt lat="44.56811" lon="1.33594">
        <ele>271.8</ele>
        <time>2020-01-26T14:56:41Z</time>
      </trkpt>
      <trkpt lat="44.56815" lon="1.33595">
        <ele>271.9</ele>
        <time>2020-01-26T14:56:46Z</time>
      </trkpt>
      <trkpt lat="44.5682" lon="1.33598">
        <ele>271.1</ele>
        <time>2020-01-26T14:56:54Z</time>
      </trkpt>
      <trkpt lat="44.56824" lon="1.336">
        <ele>270</ele>
        <time>2020-01-26T14:57:00Z</time>
      </trkpt>
      <trkpt lat="44.56829" lon="1.33603">
        <ele>269.4</ele>
        <time>2020-01-26T14:57:05Z</time>
      </trkpt>
      <trkpt lat="44.56834" lon="1.33604">
        <ele>268.5</ele>
        <time>2020-01-26T14:57:11Z</time>
      </trkpt>
      <trkpt lat="44.56839" lon="1.33604">
        <ele>268</ele>
        <time>2020-01-26T14:57:17Z</time>
      </trkpt>
      <trkpt lat="44.56844" lon="1.33604">
        <ele>268.3</ele>
        <time>2020-01-26T14:57:22Z</time>
      </trkpt>
      <trkpt lat="44.5685" lon="1.33605">
        <ele>268.8</ele>
        <time>2020-01-26T14:57:28Z</time>
      </trkpt>
      <trkpt lat="44.56854" lon="1.33606">
        <ele>268.4</ele>
        <time>2020-01-26T14:57:39Z</time>
      </trkpt>
      <trkpt lat="44.56859" lon="1.33608">
        <ele>268.1</ele>
        <time>2020-01-26T14:58:04Z</time>
      </trkpt>
      <trkpt lat="44.56865" lon="1.33609">
        <ele>268.7</ele>
        <time>2020-01-26T14:58:09Z</time>
      </trkpt>
      <trkpt lat="44.56869" lon="1.33611">
        <ele>269.8</ele>
        <time>2020-01-26T14:58:16Z</time>
      </trkpt>
      <trkpt lat="44.56874" lon="1.33612">
        <ele>268.7</ele>
        <time>2020-01-26T14:58:20Z</time>
      </trkpt>
      <trkpt lat="44.56878" lon="1.33616">
        <ele>267.2</ele>
        <time>2020-01-26T14:58:29Z</time>
      </trkpt>
      <trkpt lat="44.56884" lon="1.33616">
        <ele>265.8</ele>
        <time>2020-01-26T14:58:35Z</time>
      </trkpt>
      <trkpt lat="44.56889" lon="1.33617">
        <ele>266.2</ele>
        <time>2020-01-26T14:58:39Z</time>
      </trkpt>
      <trkpt lat="44.56894" lon="1.33617">
        <ele>266.8</ele>
        <time>2020-01-26T14:58:44Z</time>
      </trkpt>
      <trkpt lat="44.56899" lon="1.33618">
        <ele>266.3</ele>
        <time>2020-01-26T14:58:49Z</time>
      </trkpt>
      <trkpt lat="44.56903" lon="1.33618">
        <ele>266.4</ele>
        <time>2020-01-26T14:58:53Z</time>
      </trkpt>
      <trkpt lat="44.56908" lon="1.33616">
        <ele>266.4</ele>
        <time>2020-01-26T14:59:00Z</time>
      </trkpt>
      <trkpt lat="44.56913" lon="1.33615">
        <ele>267.1</ele>
        <time>2020-01-26T14:59:06Z</time>
      </trkpt>
      <trkpt lat="44.56919" lon="1.33616">
        <ele>266.8</ele>
        <time>2020-01-26T14:59:12Z</time>
      </trkpt>
      <trkpt lat="44.56924" lon="1.33618">
        <ele>267.4</ele>
        <time>2020-01-26T14:59:16Z</time>
      </trkpt>
      <trkpt lat="44.56929" lon="1.3362">
        <ele>267.7</ele>
        <time>2020-01-26T14:59:20Z</time>
      </trkpt>
      <trkpt lat="44.56934" lon="1.33619">
        <ele>268.9</ele>
        <time>2020-01-26T14:59:23Z</time>
      </trkpt>
      <trkpt lat="44.56939" lon="1.3362">
        <ele>269.7</ele>
        <time>2020-01-26T14:59:26Z</time>
      </trkpt>
      <trkpt lat="44.56943" lon="1.3362">
        <ele>270.3</ele>
        <time>2020-01-26T14:59:29Z</time>
      </trkpt>
      <trkpt lat="44.56949" lon="1.33622">
        <ele>270.9</ele>
        <time>2020-01-26T14:59:33Z</time>
      </trkpt>
      <trkpt lat="44.56953" lon="1.33623">
        <ele>271.5</ele>
        <time>2020-01-26T14:59:37Z</time>
      </trkpt>
      <trkpt lat="44.56958" lon="1.33623">
        <ele>271.2</ele>
        <time>2020-01-26T14:59:44Z</time>
      </trkpt>
      <trkpt lat="44.56963" lon="1.33624">
        <ele>271.8</ele>
        <time>2020-01-26T14:59:50Z</time>
      </trkpt>
      <trkpt lat="44.56968" lon="1.33626">
        <ele>272.9</ele>
        <time>2020-01-26T14:59:55Z</time>
      </trkpt>
      <trkpt lat="44.56973" lon="1.33627">
        <ele>273.1</ele>
        <time>2020-01-26T15:00:00Z</time>
      </trkpt>
      <trkpt lat="44.56977" lon="1.33629">
        <ele>272.7</ele>
        <time>2020-01-26T15:00:06Z</time>
      </trkpt>
      <trkpt lat="44.56982" lon="1.3363">
        <ele>271.6</ele>
        <time>2020-01-26T15:00:14Z</time>
      </trkpt>
      <trkpt lat="44.56986" lon="1.3363">
        <ele>270.9</ele>
        <time>2020-01-26T15:00:21Z</time>
      </trkpt>
      <trkpt lat="44.56991" lon="1.33631">
        <ele>270.9</ele>
        <time>2020-01-26T15:00:25Z</time>
      </trkpt>
      <trkpt lat="44.56997" lon="1.33632">
        <ele>271.3</ele>
        <time>2020-01-26T15:00:29Z</time>
      </trkpt>
      <trkpt lat="44.57003" lon="1.33633">
        <ele>270.8</ele>
        <time>2020-01-26T15:00:33Z</time>
      </trkpt>
      <trkpt lat="44.57008" lon="1.33634">
        <ele>270.7</ele>
        <time>2020-01-26T15:00:37Z</time>
      </trkpt>
      <trkpt lat="44.57013" lon="1.33634">
        <ele>270.7</ele>
        <time>2020-01-26T15:00:42Z</time>
      </trkpt>
      <trkpt lat="44.57018" lon="1.33633">
        <ele>270.8</ele>
        <time>2020-01-26T15:00:49Z</time>
      </trkpt>
      <trkpt lat="44.57023" lon="1.33633">
        <ele>270.4</ele>
        <time>2020-01-26T15:00:55Z</time>
      </trkpt>
      <trkpt lat="44.57028" lon="1.33635">
        <ele>271.1</ele>
        <time>2020-01-26T15:00:59Z</time>
      </trkpt>
      <trkpt lat="44.57032" lon="1.33637">
        <ele>271</ele>
        <time>2020-01-26T15:01:05Z</time>
      </trkpt>
      <trkpt lat="44.57037" lon="1.33639">
        <ele>270.4</ele>
        <time>2020-01-26T15:01:11Z</time>
      </trkpt>
      <trkpt lat="44.57041" lon="1.33643">
        <ele>269.7</ele>
        <time>2020-01-26T15:01:17Z</time>
      </trkpt>
      <trkpt lat="44.57046" lon="1.33644">
        <ele>268.6</ele>
        <time>2020-01-26T15:01:23Z</time>
      </trkpt>
      <trkpt lat="44.57051" lon="1.33645">
        <ele>268.7</ele>
        <time>2020-01-26T15:01:28Z</time>
      </trkpt>
      <trkpt lat="44.57055" lon="1.33648">
        <ele>269.9</ele>
        <time>2020-01-26T15:01:35Z</time>
      </trkpt>
      <trkpt lat="44.5706" lon="1.3365">
        <ele>270.9</ele>
        <time>2020-01-26T15:01:40Z</time>
      </trkpt>
      <trkpt lat="44.57065" lon="1.33652">
        <ele>272.3</ele>
        <time>2020-01-26T15:01:42Z</time>
      </trkpt>
      <trkpt lat="44.5707" lon="1.33654">
        <ele>273.4</ele>
        <time>2020-01-26T15:01:45Z</time>
      </trkpt>
      <trkpt lat="44.57075" lon="1.33656">
        <ele>274.5</ele>
        <time>2020-01-26T15:01:49Z</time>
      </trkpt>
      <trkpt lat="44.5708" lon="1.33656">
        <ele>275.2</ele>
        <time>2020-01-26T15:01:53Z</time>
      </trkpt>
      <trkpt lat="44.57086" lon="1.33658">
        <ele>275.7</ele>
        <time>2020-01-26T15:01:58Z</time>
      </trkpt>
      <trkpt lat="44.5709" lon="1.33659">
        <ele>275.4</ele>
        <time>2020-01-26T15:02:04Z</time>
      </trkpt>
      <trkpt lat="44.57095" lon="1.33659">
        <ele>274.6</ele>
        <time>2020-01-26T15:02:11Z</time>
      </trkpt>
      <trkpt lat="44.57101" lon="1.33661">
        <ele>274.7</ele>
        <time>2020-01-26T15:02:16Z</time>
      </trkpt>
      <trkpt lat="44.57105" lon="1.33663">
        <ele>276.3</ele>
        <time>2020-01-26T15:02:21Z</time>
      </trkpt>
      <trkpt lat="44.5711" lon="1.33666">
        <ele>276.9</ele>
        <time>2020-01-26T15:02:29Z</time>
      </trkpt>
      <trkpt lat="44.57114" lon="1.33669">
        <ele>277.7</ele>
        <time>2020-01-26T15:02:33Z</time>
      </trkpt>
      <trkpt lat="44.57119" lon="1.33672">
        <ele>277.4</ele>
        <time>2020-01-26T15:02:39Z</time>
      </trkpt>
      <trkpt lat="44.57124" lon="1.33675">
        <ele>275.5</ele>
        <time>2020-01-26T15:02:46Z</time>
      </trkpt>
      <trkpt lat="44.57128" lon="1.33679">
        <ele>275.5</ele>
        <time>2020-01-26T15:02:50Z</time>
      </trkpt>
      <trkpt lat="44.57132" lon="1.33684">
        <ele>276</ele>
        <time>2020-01-26T15:02:58Z</time>
      </trkpt>
      <trkpt lat="44.57138" lon="1.33686">
        <ele>277.1</ele>
        <time>2020-01-26T15:03:04Z</time>
      </trkpt>
      <trkpt lat="44.57142" lon="1.33685">
        <ele>277.3</ele>
        <time>2020-01-26T15:03:11Z</time>
      </trkpt>
      <trkpt lat="44.57146" lon="1.33687">
        <ele>276.4</ele>
        <time>2020-01-26T15:03:17Z</time>
      </trkpt>
      <trkpt lat="44.57152" lon="1.33688">
        <ele>275.3</ele>
        <time>2020-01-26T15:03:25Z</time>
      </trkpt>
      <trkpt lat="44.57156" lon="1.3369">
        <ele>274.9</ele>
        <time>2020-01-26T15:03:32Z</time>
      </trkpt>
      <trkpt lat="44.57161" lon="1.33691">
        <ele>276</ele>
        <time>2020-01-26T15:03:39Z</time>
      </trkpt>
      <trkpt lat="44.57166" lon="1.33694">
        <ele>276.7</ele>
        <time>2020-01-26T15:03:44Z</time>
      </trkpt>
      <trkpt lat="44.5717" lon="1.33697">
        <ele>277.4</ele>
        <time>2020-01-26T15:03:50Z</time>
      </trkpt>
      <trkpt lat="44.57175" lon="1.337">
        <ele>278.8</ele>
        <time>2020-01-26T15:03:56Z</time>
      </trkpt>
      <trkpt lat="44.5718" lon="1.33701">
        <ele>280.1</ele>
        <time>2020-01-26T15:04:02Z</time>
      </trkpt>
      <trkpt lat="44.57185" lon="1.33701">
        <ele>280.3</ele>
        <time>2020-01-26T15:04:08Z</time>
      </trkpt>
      <trkpt lat="44.57189" lon="1.33702">
        <ele>279.8</ele>
        <time>2020-01-26T15:04:15Z</time>
      </trkpt>
      <trkpt lat="44.57193" lon="1.33705">
        <ele>281</ele>
        <time>2020-01-26T15:04:26Z</time>
      </trkpt>
      <trkpt lat="44.57198" lon="1.33708">
        <ele>282.9</ele>
        <time>2020-01-26T15:05:20Z</time>
      </trkpt>
      <trkpt lat="44.57202" lon="1.3371">
        <ele>282.1</ele>
        <time>2020-01-26T15:05:27Z</time>
      </trkpt>
      <trkpt lat="44.57207" lon="1.3371">
        <ele>281.1</ele>
        <time>2020-01-26T15:05:32Z</time>
      </trkpt>
      <trkpt lat="44.57212" lon="1.3371">
        <ele>281.2</ele>
        <time>2020-01-26T15:05:36Z</time>
      </trkpt>
      <trkpt lat="44.57217" lon="1.33711">
        <ele>281.5</ele>
        <time>2020-01-26T15:05:41Z</time>
      </trkpt>
      <trkpt lat="44.57222" lon="1.33711">
        <ele>281.9</ele>
        <time>2020-01-26T15:05:46Z</time>
      </trkpt>
      <trkpt lat="44.57226" lon="1.33713">
        <ele>282.3</ele>
        <time>2020-01-26T15:05:51Z</time>
      </trkpt>
      <trkpt lat="44.57231" lon="1.33715">
        <ele>282.6</ele>
        <time>2020-01-26T15:05:58Z</time>
      </trkpt>
      <trkpt lat="44.57236" lon="1.33715">
        <ele>282.9</ele>
        <time>2020-01-26T15:06:03Z</time>
      </trkpt>
      <trkpt lat="44.5724" lon="1.33715">
        <ele>283.4</ele>
        <time>2020-01-26T15:06:06Z</time>
      </trkpt>
      <trkpt lat="44.57246" lon="1.33714">
        <ele>283.9</ele>
        <time>2020-01-26T15:06:11Z</time>
      </trkpt>
      <trkpt lat="44.5725" lon="1.33714">
        <ele>284.4</ele>
        <time>2020-01-26T15:06:16Z</time>
      </trkpt>
      <trkpt lat="44.57255" lon="1.33715">
        <ele>284.7</ele>
        <time>2020-01-26T15:06:21Z</time>
      </trkpt>
      <trkpt lat="44.5726" lon="1.33717">
        <ele>284.9</ele>
        <time>2020-01-26T15:06:27Z</time>
      </trkpt>
      <trkpt lat="44.57265" lon="1.33719">
        <ele>285.5</ele>
        <time>2020-01-26T15:06:32Z</time>
      </trkpt>
      <trkpt lat="44.5727" lon="1.3372">
        <ele>286</ele>
        <time>2020-01-26T15:06:36Z</time>
      </trkpt>
      <trkpt lat="44.57275" lon="1.33719">
        <ele>285.6</ele>
        <time>2020-01-26T15:06:41Z</time>
      </trkpt>
      <trkpt lat="44.57279" lon="1.33716">
        <ele>285.5</ele>
        <time>2020-01-26T15:06:46Z</time>
      </trkpt>
      <trkpt lat="44.57285" lon="1.33717">
        <ele>285.6</ele>
        <time>2020-01-26T15:06:52Z</time>
      </trkpt>
      <trkpt lat="44.57289" lon="1.33717">
        <ele>286.3</ele>
        <time>2020-01-26T15:06:57Z</time>
      </trkpt>
      <trkpt lat="44.57293" lon="1.33721">
        <ele>287.9</ele>
        <time>2020-01-26T15:07:03Z</time>
      </trkpt>
      <trkpt lat="44.57298" lon="1.33722">
        <ele>288.7</ele>
        <time>2020-01-26T15:07:08Z</time>
      </trkpt>
      <trkpt lat="44.57303" lon="1.33721">
        <ele>288.6</ele>
        <time>2020-01-26T15:07:13Z</time>
      </trkpt>
      <trkpt lat="44.57308" lon="1.33724">
        <ele>288.4</ele>
        <time>2020-01-26T15:07:18Z</time>
      </trkpt>
      <trkpt lat="44.57313" lon="1.33725">
        <ele>288.7</ele>
        <time>2020-01-26T15:07:22Z</time>
      </trkpt>
      <trkpt lat="44.57318" lon="1.33724">
        <ele>289.2</ele>
        <time>2020-01-26T15:07:27Z</time>
      </trkpt>
      <trkpt lat="44.57323" lon="1.33725">
        <ele>289.3</ele>
        <time>2020-01-26T15:07:33Z</time>
      </trkpt>
      <trkpt lat="44.57328" lon="1.33726">
        <ele>289.5</ele>
        <time>2020-01-26T15:07:39Z</time>
      </trkpt>
      <trkpt lat="44.57333" lon="1.33725">
        <ele>289</ele>
        <time>2020-01-26T15:07:45Z</time>
      </trkpt>
      <trkpt lat="44.57337" lon="1.33726">
        <ele>288.5</ele>
        <time>2020-01-26T15:07:50Z</time>
      </trkpt>
      <trkpt lat="44.57343" lon="1.33726">
        <ele>287.6</ele>
        <time>2020-01-26T15:07:57Z</time>
      </trkpt>
      <trkpt lat="44.57348" lon="1.33725">
        <ele>287.7</ele>
        <time>2020-01-26T15:08:02Z</time>
      </trkpt>
      <trkpt lat="44.57354" lon="1.33726">
        <ele>287</ele>
        <time>2020-01-26T15:08:07Z</time>
      </trkpt>
      <trkpt lat="44.57359" lon="1.33728">
        <ele>286</ele>
        <time>2020-01-26T15:08:13Z</time>
      </trkpt>
      <trkpt lat="44.57363" lon="1.33729">
        <ele>285.1</ele>
        <time>2020-01-26T15:08:18Z</time>
      </trkpt>
      <trkpt lat="44.57369" lon="1.33729">
        <ele>284.2</ele>
        <time>2020-01-26T15:08:26Z</time>
      </trkpt>
      <trkpt lat="44.57373" lon="1.33729">
        <ele>283.3</ele>
        <time>2020-01-26T15:08:32Z</time>
      </trkpt>
      <trkpt lat="44.57379" lon="1.33731">
        <ele>284</ele>
        <time>2020-01-26T15:08:36Z</time>
      </trkpt>
      <trkpt lat="44.57384" lon="1.33733">
        <ele>285.2</ele>
        <time>2020-01-26T15:08:39Z</time>
      </trkpt>
      <trkpt lat="44.57388" lon="1.33734">
        <ele>285.8</ele>
        <time>2020-01-26T15:08:43Z</time>
      </trkpt>
      <trkpt lat="44.57393" lon="1.33736">
        <ele>286.8</ele>
        <time>2020-01-26T15:08:47Z</time>
      </trkpt>
      <trkpt lat="44.57399" lon="1.33736">
        <ele>287.5</ele>
        <time>2020-01-26T15:08:51Z</time>
      </trkpt>
      <trkpt lat="44.57404" lon="1.33736">
        <ele>289.1</ele>
        <time>2020-01-26T15:08:56Z</time>
      </trkpt>
      <trkpt lat="44.57409" lon="1.33737">
        <ele>289</ele>
        <time>2020-01-26T15:09:02Z</time>
      </trkpt>
      <trkpt lat="44.57414" lon="1.33739">
        <ele>288.2</ele>
        <time>2020-01-26T15:09:08Z</time>
      </trkpt>
      <trkpt lat="44.5742" lon="1.33741">
        <ele>287.1</ele>
        <time>2020-01-26T15:09:17Z</time>
      </trkpt>
      <trkpt lat="44.57425" lon="1.3374">
        <ele>285.9</ele>
        <time>2020-01-26T15:09:22Z</time>
      </trkpt>
      <trkpt lat="44.5743" lon="1.3374">
        <ele>285.1</ele>
        <time>2020-01-26T15:09:28Z</time>
      </trkpt>
      <trkpt lat="44.57434" lon="1.33742">
        <ele>285.4</ele>
        <time>2020-01-26T15:09:33Z</time>
      </trkpt>
      <trkpt lat="44.5744" lon="1.33743">
        <ele>286.4</ele>
        <time>2020-01-26T15:09:38Z</time>
      </trkpt>
      <trkpt lat="44.57445" lon="1.33741">
        <ele>287.3</ele>
        <time>2020-01-26T15:09:43Z</time>
      </trkpt>
      <trkpt lat="44.5745" lon="1.33742">
        <ele>287.5</ele>
        <time>2020-01-26T15:09:48Z</time>
      </trkpt>
      <trkpt lat="44.57455" lon="1.33743">
        <ele>288.2</ele>
        <time>2020-01-26T15:09:53Z</time>
      </trkpt>
      <trkpt lat="44.5746" lon="1.33744">
        <ele>288.6</ele>
        <time>2020-01-26T15:09:58Z</time>
      </trkpt>
      <trkpt lat="44.57465" lon="1.33745">
        <ele>289</ele>
        <time>2020-01-26T15:10:02Z</time>
      </trkpt>
      <trkpt lat="44.5747" lon="1.33746">
        <ele>289.8</ele>
        <time>2020-01-26T15:10:06Z</time>
      </trkpt>
      <trkpt lat="44.57475" lon="1.33746">
        <ele>290.4</ele>
        <time>2020-01-26T15:10:11Z</time>
      </trkpt>
      <trkpt lat="44.57481" lon="1.33746">
        <ele>290.4</ele>
        <time>2020-01-26T15:10:16Z</time>
      </trkpt>
      <trkpt lat="44.57486" lon="1.33747">
        <ele>291</ele>
        <time>2020-01-26T15:10:21Z</time>
      </trkpt>
      <trkpt lat="44.5749" lon="1.33748">
        <ele>291</ele>
        <time>2020-01-26T15:10:26Z</time>
      </trkpt>
      <trkpt lat="44.57495" lon="1.33748">
        <ele>291.2</ele>
        <time>2020-01-26T15:10:34Z</time>
      </trkpt>
      <trkpt lat="44.575" lon="1.33747">
        <ele>291.3</ele>
        <time>2020-01-26T15:10:41Z</time>
      </trkpt>
      <trkpt lat="44.57505" lon="1.33746">
        <ele>292.8</ele>
        <time>2020-01-26T15:10:46Z</time>
      </trkpt>
      <trkpt lat="44.57511" lon="1.33743">
        <ele>293.7</ele>
        <time>2020-01-26T15:10:50Z</time>
      </trkpt>
      <trkpt lat="44.57516" lon="1.33742">
        <ele>294.1</ele>
        <time>2020-01-26T15:10:54Z</time>
      </trkpt>
      <trkpt lat="44.5752" lon="1.33739">
        <ele>293.8</ele>
        <time>2020-01-26T15:10:59Z</time>
      </trkpt>
      <trkpt lat="44.57525" lon="1.33737">
        <ele>293.9</ele>
        <time>2020-01-26T15:11:07Z</time>
      </trkpt>
      <trkpt lat="44.57529" lon="1.33735">
        <ele>294.4</ele>
        <time>2020-01-26T15:11:11Z</time>
      </trkpt>
      <trkpt lat="44.57534" lon="1.33736">
        <ele>295.9</ele>
        <time>2020-01-26T15:11:15Z</time>
      </trkpt>
      <trkpt lat="44.57539" lon="1.33736">
        <ele>296.3</ele>
        <time>2020-01-26T15:11:20Z</time>
      </trkpt>
      <trkpt lat="44.57544" lon="1.33735">
        <ele>295.3</ele>
        <time>2020-01-26T15:11:26Z</time>
      </trkpt>
      <trkpt lat="44.57548" lon="1.33731">
        <ele>294</ele>
        <time>2020-01-26T15:12:14Z</time>
      </trkpt>
      <trkpt lat="44.57551" lon="1.33735">
        <ele>293.2</ele>
        <time>2020-01-26T15:13:32Z</time>
      </trkpt>
      <trkpt lat="44.57556" lon="1.33732">
        <ele>291.2</ele>
        <time>2020-01-26T15:14:46Z</time>
      </trkpt>
      <trkpt lat="44.5756" lon="1.33737">
        <ele>291</ele>
        <time>2020-01-26T15:14:54Z</time>
      </trkpt>
      <trkpt lat="44.57565" lon="1.33739">
        <ele>291.5</ele>
        <time>2020-01-26T15:14:59Z</time>
      </trkpt>
      <trkpt lat="44.5757" lon="1.33741">
        <ele>291.5</ele>
        <time>2020-01-26T15:15:04Z</time>
      </trkpt>
      <trkpt lat="44.57574" lon="1.33742">
        <ele>290</ele>
        <time>2020-01-26T15:15:10Z</time>
      </trkpt>
      <trkpt lat="44.57579" lon="1.33745">
        <ele>289.5</ele>
        <time>2020-01-26T15:15:16Z</time>
      </trkpt>
      <trkpt lat="44.57583" lon="1.33749">
        <ele>287.7</ele>
        <time>2020-01-26T15:15:23Z</time>
      </trkpt>
      <trkpt lat="44.57587" lon="1.33753">
        <ele>284.5</ele>
        <time>2020-01-26T15:15:30Z</time>
      </trkpt>
      <trkpt lat="44.57592" lon="1.33756">
        <ele>283</ele>
        <time>2020-01-26T15:15:35Z</time>
      </trkpt>
      <trkpt lat="44.57595" lon="1.33761">
        <ele>283.9</ele>
        <time>2020-01-26T15:15:38Z</time>
      </trkpt>
      <trkpt lat="44.57599" lon="1.33766">
        <ele>285.1</ele>
        <time>2020-01-26T15:15:41Z</time>
      </trkpt>
      <trkpt lat="44.57604" lon="1.33768">
        <ele>285.9</ele>
        <time>2020-01-26T15:15:46Z</time>
      </trkpt>
      <trkpt lat="44.57608" lon="1.33772">
        <ele>287.2</ele>
        <time>2020-01-26T15:15:50Z</time>
      </trkpt>
      <trkpt lat="44.57612" lon="1.33776">
        <ele>287.6</ele>
        <time>2020-01-26T15:15:54Z</time>
      </trkpt>
      <trkpt lat="44.57617" lon="1.33777">
        <ele>288.2</ele>
        <time>2020-01-26T15:15:58Z</time>
      </trkpt>
      <trkpt lat="44.57622" lon="1.33778">
        <ele>289</ele>
        <time>2020-01-26T15:16:03Z</time>
      </trkpt>
      <trkpt lat="44.57627" lon="1.33779">
        <ele>289.7</ele>
        <time>2020-01-26T15:16:08Z</time>
      </trkpt>
      <trkpt lat="44.57632" lon="1.33781">
        <ele>290.3</ele>
        <time>2020-01-26T15:16:12Z</time>
      </trkpt>
      <trkpt lat="44.57637" lon="1.33783">
        <ele>290.7</ele>
        <time>2020-01-26T15:16:16Z</time>
      </trkpt>
      <trkpt lat="44.57642" lon="1.33784">
        <ele>290.4</ele>
        <time>2020-01-26T15:16:20Z</time>
      </trkpt>
      <trkpt lat="44.57648" lon="1.33786">
        <ele>289.2</ele>
        <time>2020-01-26T15:16:26Z</time>
      </trkpt>
      <trkpt lat="44.57653" lon="1.33786">
        <ele>288.7</ele>
        <time>2020-01-26T15:16:30Z</time>
      </trkpt>
      <trkpt lat="44.57658" lon="1.33785">
        <ele>288.8</ele>
        <time>2020-01-26T15:16:34Z</time>
      </trkpt>
      <trkpt lat="44.57663" lon="1.33786">
        <ele>287.9</ele>
        <time>2020-01-26T15:16:40Z</time>
      </trkpt>
      <trkpt lat="44.57668" lon="1.33789">
        <ele>287.4</ele>
        <time>2020-01-26T15:16:46Z</time>
      </trkpt>
      <trkpt lat="44.57671" lon="1.33794">
        <ele>286.6</ele>
        <time>2020-01-26T15:16:51Z</time>
      </trkpt>
      <trkpt lat="44.57675" lon="1.33798">
        <ele>287</ele>
        <time>2020-01-26T15:16:55Z</time>
      </trkpt>
      <trkpt lat="44.57677" lon="1.33805">
        <ele>287.1</ele>
        <time>2020-01-26T15:17:01Z</time>
      </trkpt>
      <trkpt lat="44.5768" lon="1.33811">
        <ele>286.9</ele>
        <time>2020-01-26T15:17:07Z</time>
      </trkpt>
      <trkpt lat="44.57682" lon="1.33817">
        <ele>286.7</ele>
        <time>2020-01-26T15:17:12Z</time>
      </trkpt>
      <trkpt lat="44.57682" lon="1.33823">
        <ele>286.4</ele>
        <time>2020-01-26T15:17:16Z</time>
      </trkpt>
      <trkpt lat="44.57685" lon="1.33829">
        <ele>286.5</ele>
        <time>2020-01-26T15:17:20Z</time>
      </trkpt>
      <trkpt lat="44.57687" lon="1.33836">
        <ele>287.1</ele>
        <time>2020-01-26T15:17:25Z</time>
      </trkpt>
      <trkpt lat="44.57689" lon="1.33841">
        <ele>287.6</ele>
        <time>2020-01-26T15:17:30Z</time>
      </trkpt>
      <trkpt lat="44.57693" lon="1.33846">
        <ele>287.9</ele>
        <time>2020-01-26T15:17:36Z</time>
      </trkpt>
      <trkpt lat="44.57697" lon="1.33851">
        <ele>287.9</ele>
        <time>2020-01-26T15:17:43Z</time>
      </trkpt>
      <trkpt lat="44.577" lon="1.33856">
        <ele>287.6</ele>
        <time>2020-01-26T15:17:49Z</time>
      </trkpt>
      <trkpt lat="44.57704" lon="1.33862">
        <ele>286.6</ele>
        <time>2020-01-26T15:17:55Z</time>
      </trkpt>
      <trkpt lat="44.57708" lon="1.33867">
        <ele>284.4</ele>
        <time>2020-01-26T15:18:02Z</time>
      </trkpt>
      <trkpt lat="44.57711" lon="1.33871">
        <ele>282.8</ele>
        <time>2020-01-26T15:18:07Z</time>
      </trkpt>
      <trkpt lat="44.57714" lon="1.33876">
        <ele>282</ele>
        <time>2020-01-26T15:18:12Z</time>
      </trkpt>
      <trkpt lat="44.57718" lon="1.33881">
        <ele>281.3</ele>
        <time>2020-01-26T15:18:17Z</time>
      </trkpt>
      <trkpt lat="44.5772" lon="1.33888">
        <ele>281.2</ele>
        <time>2020-01-26T15:18:21Z</time>
      </trkpt>
      <trkpt lat="44.57722" lon="1.33895">
        <ele>281.7</ele>
        <time>2020-01-26T15:18:25Z</time>
      </trkpt>
      <trkpt lat="44.57725" lon="1.339">
        <ele>281.5</ele>
        <time>2020-01-26T15:18:30Z</time>
      </trkpt>
      <trkpt lat="44.57729" lon="1.33905">
        <ele>281.7</ele>
        <time>2020-01-26T15:18:35Z</time>
      </trkpt>
      <trkpt lat="44.57732" lon="1.33911">
        <ele>281.9</ele>
        <time>2020-01-26T15:18:40Z</time>
      </trkpt>
      <trkpt lat="44.57735" lon="1.33919">
        <ele>282.3</ele>
        <time>2020-01-26T15:18:45Z</time>
      </trkpt>
      <trkpt lat="44.57736" lon="1.33925">
        <ele>283.1</ele>
        <time>2020-01-26T15:18:48Z</time>
      </trkpt>
      <trkpt lat="44.57738" lon="1.33932">
        <ele>282.8</ele>
        <time>2020-01-26T15:18:52Z</time>
      </trkpt>
      <trkpt lat="44.5774" lon="1.33938">
        <ele>282.3</ele>
        <time>2020-01-26T15:18:58Z</time>
      </trkpt>
      <trkpt lat="44.57741" lon="1.33944">
        <ele>282.6</ele>
        <time>2020-01-26T15:19:02Z</time>
      </trkpt>
      <trkpt lat="44.57743" lon="1.3395">
        <ele>282.6</ele>
        <time>2020-01-26T15:19:07Z</time>
      </trkpt>
      <trkpt lat="44.57745" lon="1.33956">
        <ele>282.2</ele>
        <time>2020-01-26T15:19:13Z</time>
      </trkpt>
      <trkpt lat="44.57746" lon="1.33963">
        <ele>282.8</ele>
        <time>2020-01-26T15:19:17Z</time>
      </trkpt>
      <trkpt lat="44.57748" lon="1.3397">
        <ele>283.2</ele>
        <time>2020-01-26T15:19:21Z</time>
      </trkpt>
      <trkpt lat="44.57749" lon="1.33976">
        <ele>283.2</ele>
        <time>2020-01-26T15:19:25Z</time>
      </trkpt>
      <trkpt lat="44.57751" lon="1.33982">
        <ele>282.7</ele>
        <time>2020-01-26T15:19:29Z</time>
      </trkpt>
      <trkpt lat="44.57753" lon="1.33988">
        <ele>282.7</ele>
        <time>2020-01-26T15:19:33Z</time>
      </trkpt>
      <trkpt lat="44.57755" lon="1.33995">
        <ele>283.1</ele>
        <time>2020-01-26T15:19:38Z</time>
      </trkpt>
      <trkpt lat="44.57758" lon="1.34001">
        <ele>283.3</ele>
        <time>2020-01-26T15:19:44Z</time>
      </trkpt>
      <trkpt lat="44.57759" lon="1.34008">
        <ele>283.6</ele>
        <time>2020-01-26T15:19:48Z</time>
      </trkpt>
      <trkpt lat="44.57761" lon="1.34015">
        <ele>283.5</ele>
        <time>2020-01-26T15:19:53Z</time>
      </trkpt>
      <trkpt lat="44.57762" lon="1.34021">
        <ele>283.5</ele>
        <time>2020-01-26T15:19:57Z</time>
      </trkpt>
      <trkpt lat="44.57766" lon="1.34026">
        <ele>283.3</ele>
        <time>2020-01-26T15:20:02Z</time>
      </trkpt>
      <trkpt lat="44.57769" lon="1.34032">
        <ele>284</ele>
        <time>2020-01-26T15:20:07Z</time>
      </trkpt>
      <trkpt lat="44.5777" lon="1.34039">
        <ele>284</ele>
        <time>2020-01-26T15:20:12Z</time>
      </trkpt>
      <trkpt lat="44.5777" lon="1.34047">
        <ele>284.7</ele>
        <time>2020-01-26T15:20:15Z</time>
      </trkpt>
      <trkpt lat="44.57772" lon="1.34054">
        <ele>284.3</ele>
        <time>2020-01-26T15:20:19Z</time>
      </trkpt>
      <trkpt lat="44.57774" lon="1.34061">
        <ele>284.4</ele>
        <time>2020-01-26T15:20:24Z</time>
      </trkpt>
      <trkpt lat="44.57774" lon="1.34069">
        <ele>284.3</ele>
        <time>2020-01-26T15:20:29Z</time>
      </trkpt>
      <trkpt lat="44.57775" lon="1.34075">
        <ele>284.2</ele>
        <time>2020-01-26T15:20:33Z</time>
      </trkpt>
      <trkpt lat="44.57778" lon="1.3408">
        <ele>284.7</ele>
        <time>2020-01-26T15:20:38Z</time>
      </trkpt>
      <trkpt lat="44.57781" lon="1.34086">
        <ele>284.1</ele>
        <time>2020-01-26T15:20:45Z</time>
      </trkpt>
      <trkpt lat="44.57782" lon="1.34093">
        <ele>285.1</ele>
        <time>2020-01-26T15:20:49Z</time>
      </trkpt>
      <trkpt lat="44.57783" lon="1.341">
        <ele>285.7</ele>
        <time>2020-01-26T15:20:54Z</time>
      </trkpt>
      <trkpt lat="44.57785" lon="1.34106">
        <ele>285.8</ele>
        <time>2020-01-26T15:20:59Z</time>
      </trkpt>
      <trkpt lat="44.57786" lon="1.34113">
        <ele>286</ele>
        <time>2020-01-26T15:21:04Z</time>
      </trkpt>
      <trkpt lat="44.57789" lon="1.34118">
        <ele>285.9</ele>
        <time>2020-01-26T15:21:09Z</time>
      </trkpt>
      <trkpt lat="44.57792" lon="1.34124">
        <ele>285.9</ele>
        <time>2020-01-26T15:21:14Z</time>
      </trkpt>
      <trkpt lat="44.57795" lon="1.34128">
        <ele>286</ele>
        <time>2020-01-26T15:21:19Z</time>
      </trkpt>
      <trkpt lat="44.578" lon="1.34132">
        <ele>286.5</ele>
        <time>2020-01-26T15:21:24Z</time>
      </trkpt>
      <trkpt lat="44.57804" lon="1.34136">
        <ele>288.6</ele>
        <time>2020-01-26T15:21:28Z</time>
      </trkpt>
      <trkpt lat="44.57809" lon="1.34139">
        <ele>288.8</ele>
        <time>2020-01-26T15:21:33Z</time>
      </trkpt>
      <trkpt lat="44.57813" lon="1.34144">
        <ele>289.6</ele>
        <time>2020-01-26T15:21:39Z</time>
      </trkpt>
      <trkpt lat="44.57818" lon="1.34146">
        <ele>289</ele>
        <time>2020-01-26T15:21:44Z</time>
      </trkpt>
      <trkpt lat="44.57823" lon="1.34147">
        <ele>288.1</ele>
        <time>2020-01-26T15:21:49Z</time>
      </trkpt>
      <trkpt lat="44.57828" lon="1.34149">
        <ele>287.2</ele>
        <time>2020-01-26T15:21:55Z</time>
      </trkpt>
      <trkpt lat="44.57833" lon="1.34152">
        <ele>287.4</ele>
        <time>2020-01-26T15:22:00Z</time>
      </trkpt>
      <trkpt lat="44.57837" lon="1.34157">
        <ele>288</ele>
        <time>2020-01-26T15:22:06Z</time>
      </trkpt>
      <trkpt lat="44.57841" lon="1.34161">
        <ele>289.1</ele>
        <time>2020-01-26T15:22:10Z</time>
      </trkpt>
      <trkpt lat="44.57845" lon="1.34166">
        <ele>290.2</ele>
        <time>2020-01-26T15:22:15Z</time>
      </trkpt>
      <trkpt lat="44.57845" lon="1.34173">
        <ele>291.4</ele>
        <time>2020-01-26T15:22:19Z</time>
      </trkpt>
      <trkpt lat="44.57849" lon="1.34176">
        <ele>291.9</ele>
        <time>2020-01-26T15:22:23Z</time>
      </trkpt>
      <trkpt lat="44.57851" lon="1.34183">
        <ele>293</ele>
        <time>2020-01-26T15:22:28Z</time>
      </trkpt>
      <trkpt lat="44.57853" lon="1.34188">
        <ele>293.9</ele>
        <time>2020-01-26T15:22:32Z</time>
      </trkpt>
      <trkpt lat="44.57854" lon="1.34195">
        <ele>295.4</ele>
        <time>2020-01-26T15:22:36Z</time>
      </trkpt>
      <trkpt lat="44.57855" lon="1.34202">
        <ele>296.6</ele>
        <time>2020-01-26T15:22:42Z</time>
      </trkpt>
      <trkpt lat="44.57858" lon="1.34209">
        <ele>296.9</ele>
        <time>2020-01-26T15:22:48Z</time>
      </trkpt>
      <trkpt lat="44.57861" lon="1.34214">
        <ele>296.9</ele>
        <time>2020-01-26T15:22:54Z</time>
      </trkpt>
      <trkpt lat="44.57863" lon="1.3422">
        <ele>296.7</ele>
        <time>2020-01-26T15:22:59Z</time>
      </trkpt>
      <trkpt lat="44.57865" lon="1.34226">
        <ele>296.7</ele>
        <time>2020-01-26T15:23:05Z</time>
      </trkpt>
      <trkpt lat="44.57867" lon="1.34233">
        <ele>296.9</ele>
        <time>2020-01-26T15:23:09Z</time>
      </trkpt>
      <trkpt lat="44.57868" lon="1.34239">
        <ele>297</ele>
        <time>2020-01-26T15:23:14Z</time>
      </trkpt>
      <trkpt lat="44.57868" lon="1.34245">
        <ele>297.7</ele>
        <time>2020-01-26T15:23:21Z</time>
      </trkpt>
      <trkpt lat="44.57868" lon="1.34252">
        <ele>298.1</ele>
        <time>2020-01-26T15:23:26Z</time>
      </trkpt>
      <trkpt lat="44.57869" lon="1.34258">
        <ele>297.9</ele>
        <time>2020-01-26T15:23:30Z</time>
      </trkpt>
      <trkpt lat="44.57871" lon="1.34265">
        <ele>297.4</ele>
        <time>2020-01-26T15:23:35Z</time>
      </trkpt>
      <trkpt lat="44.57873" lon="1.34271">
        <ele>297.1</ele>
        <time>2020-01-26T15:23:39Z</time>
      </trkpt>
      <trkpt lat="44.57874" lon="1.34277">
        <ele>297</ele>
        <time>2020-01-26T15:23:44Z</time>
      </trkpt>
      <trkpt lat="44.57876" lon="1.34283">
        <ele>296.4</ele>
        <time>2020-01-26T15:23:52Z</time>
      </trkpt>
      <trkpt lat="44.57877" lon="1.34289">
        <ele>298.5</ele>
        <time>2020-01-26T15:24:06Z</time>
      </trkpt>
      <trkpt lat="44.57877" lon="1.34296">
        <ele>300.1</ele>
        <time>2020-01-26T15:24:18Z</time>
      </trkpt>
      <trkpt lat="44.5788" lon="1.34292">
        <ele>302.9</ele>
        <time>2020-01-26T15:25:59Z</time>
      </trkpt>
      <trkpt lat="44.57881" lon="1.34299">
        <ele>301.9</ele>
        <time>2020-01-26T15:26:18Z</time>
      </trkpt>
      <trkpt lat="44.57881" lon="1.34307">
        <ele>300.7</ele>
        <time>2020-01-26T15:26:24Z</time>
      </trkpt>
      <trkpt lat="44.57882" lon="1.34313">
        <ele>299.5</ele>
        <time>2020-01-26T15:26:31Z</time>
      </trkpt>
      <trkpt lat="44.57883" lon="1.3432">
        <ele>297.7</ele>
        <time>2020-01-26T15:26:38Z</time>
      </trkpt>
      <trkpt lat="44.57883" lon="1.34327">
        <ele>296.4</ele>
        <time>2020-01-26T15:26:47Z</time>
      </trkpt>
      <trkpt lat="44.57885" lon="1.34333">
        <ele>295.9</ele>
        <time>2020-01-26T15:26:52Z</time>
      </trkpt>
      <trkpt lat="44.57885" lon="1.3434">
        <ele>295.1</ele>
        <time>2020-01-26T15:26:57Z</time>
      </trkpt>
      <trkpt lat="44.57886" lon="1.34346">
        <ele>293.8</ele>
        <time>2020-01-26T15:27:03Z</time>
      </trkpt>
      <trkpt lat="44.57887" lon="1.34354">
        <ele>293.5</ele>
        <time>2020-01-26T15:27:07Z</time>
      </trkpt>
      <trkpt lat="44.57888" lon="1.3436">
        <ele>293.2</ele>
        <time>2020-01-26T15:27:11Z</time>
      </trkpt>
      <trkpt lat="44.5789" lon="1.34366">
        <ele>292.5</ele>
        <time>2020-01-26T15:27:18Z</time>
      </trkpt>
      <trkpt lat="44.57891" lon="1.34373">
        <ele>292.3</ele>
        <time>2020-01-26T15:27:22Z</time>
      </trkpt>
      <trkpt lat="44.57892" lon="1.34381">
        <ele>292.5</ele>
        <time>2020-01-26T15:27:27Z</time>
      </trkpt>
      <trkpt lat="44.57893" lon="1.34388">
        <ele>292.5</ele>
        <time>2020-01-26T15:27:32Z</time>
      </trkpt>
      <trkpt lat="44.57894" lon="1.34394">
        <ele>292.2</ele>
        <time>2020-01-26T15:27:38Z</time>
      </trkpt>
      <trkpt lat="44.57895" lon="1.34401">
        <ele>292</ele>
        <time>2020-01-26T15:27:43Z</time>
      </trkpt>
      <trkpt lat="44.57895" lon="1.34409">
        <ele>291.8</ele>
        <time>2020-01-26T15:27:48Z</time>
      </trkpt>
      <trkpt lat="44.57895" lon="1.34416">
        <ele>292</ele>
        <time>2020-01-26T15:27:52Z</time>
      </trkpt>
      <trkpt lat="44.57896" lon="1.34423">
        <ele>292</ele>
        <time>2020-01-26T15:27:57Z</time>
      </trkpt>
      <trkpt lat="44.57896" lon="1.3443">
        <ele>292.2</ele>
        <time>2020-01-26T15:28:02Z</time>
      </trkpt>
      <trkpt lat="44.57895" lon="1.34436">
        <ele>292.7</ele>
        <time>2020-01-26T15:28:08Z</time>
      </trkpt>
      <trkpt lat="44.57894" lon="1.34443">
        <ele>293.2</ele>
        <time>2020-01-26T15:28:13Z</time>
      </trkpt>
      <trkpt lat="44.57893" lon="1.34449">
        <ele>293.9</ele>
        <time>2020-01-26T15:28:19Z</time>
      </trkpt>
      <trkpt lat="44.57892" lon="1.34456">
        <ele>294.2</ele>
        <time>2020-01-26T15:28:25Z</time>
      </trkpt>
      <trkpt lat="44.57891" lon="1.34463">
        <ele>294.2</ele>
        <time>2020-01-26T15:28:34Z</time>
      </trkpt>
      <trkpt lat="44.57891" lon="1.3447">
        <ele>295.1</ele>
        <time>2020-01-26T15:28:41Z</time>
      </trkpt>
      <trkpt lat="44.57889" lon="1.34476">
        <ele>295.6</ele>
        <time>2020-01-26T15:28:50Z</time>
      </trkpt>
      <trkpt lat="44.57889" lon="1.34483">
        <ele>296.3</ele>
        <time>2020-01-26T15:28:56Z</time>
      </trkpt>
      <trkpt lat="44.57888" lon="1.3449">
        <ele>297</ele>
        <time>2020-01-26T15:29:03Z</time>
      </trkpt>
      <trkpt lat="44.57888" lon="1.34497">
        <ele>298</ele>
        <time>2020-01-26T15:29:09Z</time>
      </trkpt>
      <trkpt lat="44.57887" lon="1.34505">
        <ele>298.7</ele>
        <time>2020-01-26T15:29:14Z</time>
      </trkpt>
      <trkpt lat="44.57887" lon="1.34511">
        <ele>299.4</ele>
        <time>2020-01-26T15:29:19Z</time>
      </trkpt>
      <trkpt lat="44.57886" lon="1.34518">
        <ele>299.8</ele>
        <time>2020-01-26T15:29:24Z</time>
      </trkpt>
      <trkpt lat="44.57885" lon="1.34525">
        <ele>300.2</ele>
        <time>2020-01-26T15:29:29Z</time>
      </trkpt>
      <trkpt lat="44.57885" lon="1.34531">
        <ele>300.9</ele>
        <time>2020-01-26T15:29:34Z</time>
      </trkpt>
      <trkpt lat="44.57885" lon="1.34538">
        <ele>301.8</ele>
        <time>2020-01-26T15:29:39Z</time>
      </trkpt>
      <trkpt lat="44.57885" lon="1.34545">
        <ele>303</ele>
        <time>2020-01-26T15:29:44Z</time>
      </trkpt>
      <trkpt lat="44.57886" lon="1.34552">
        <ele>303.5</ele>
        <time>2020-01-26T15:29:50Z</time>
      </trkpt>
      <trkpt lat="44.57887" lon="1.34559">
        <ele>302.6</ele>
        <time>2020-01-26T15:30:00Z</time>
      </trkpt>
      <trkpt lat="44.5789" lon="1.34564">
        <ele>302.8</ele>
        <time>2020-01-26T15:30:07Z</time>
      </trkpt>
      <trkpt lat="44.57892" lon="1.34569">
        <ele>302.7</ele>
        <time>2020-01-26T15:30:12Z</time>
      </trkpt>
      <trkpt lat="44.57893" lon="1.34576">
        <ele>302.4</ele>
        <time>2020-01-26T15:30:18Z</time>
      </trkpt>
      <trkpt lat="44.57896" lon="1.34581">
        <ele>302.8</ele>
        <time>2020-01-26T15:30:24Z</time>
      </trkpt>
      <trkpt lat="44.57898" lon="1.34588">
        <ele>303</ele>
        <time>2020-01-26T15:30:30Z</time>
      </trkpt>
      <trkpt lat="44.579" lon="1.34593">
        <ele>303.5</ele>
        <time>2020-01-26T15:30:36Z</time>
      </trkpt>
      <trkpt lat="44.57903" lon="1.34599">
        <ele>303.8</ele>
        <time>2020-01-26T15:30:43Z</time>
      </trkpt>
      <trkpt lat="44.57905" lon="1.34606">
        <ele>303.5</ele>
        <time>2020-01-26T15:30:49Z</time>
      </trkpt>
      <trkpt lat="44.57907" lon="1.34613">
        <ele>303.4</ele>
        <time>2020-01-26T15:30:55Z</time>
      </trkpt>
      <trkpt lat="44.57909" lon="1.3462">
        <ele>304.5</ele>
        <time>2020-01-26T15:31:00Z</time>
      </trkpt>
      <trkpt lat="44.57911" lon="1.34626">
        <ele>305.2</ele>
        <time>2020-01-26T15:31:04Z</time>
      </trkpt>
      <trkpt lat="44.57911" lon="1.34633">
        <ele>305.7</ele>
        <time>2020-01-26T15:31:09Z</time>
      </trkpt>
      <trkpt lat="44.57911" lon="1.3464">
        <ele>306.6</ele>
        <time>2020-01-26T15:31:17Z</time>
      </trkpt>
      <trkpt lat="44.57911" lon="1.34646">
        <ele>306.9</ele>
        <time>2020-01-26T15:31:21Z</time>
      </trkpt>
      <trkpt lat="44.57912" lon="1.34654">
        <ele>307.7</ele>
        <time>2020-01-26T15:31:26Z</time>
      </trkpt>
      <trkpt lat="44.57914" lon="1.34661">
        <ele>308.2</ele>
        <time>2020-01-26T15:31:31Z</time>
      </trkpt>
      <trkpt lat="44.57915" lon="1.34668">
        <ele>308.5</ele>
        <time>2020-01-26T15:31:36Z</time>
      </trkpt>
      <trkpt lat="44.57917" lon="1.34674">
        <ele>308.3</ele>
        <time>2020-01-26T15:31:42Z</time>
      </trkpt>
      <trkpt lat="44.57919" lon="1.34681">
        <ele>308.2</ele>
        <time>2020-01-26T15:31:47Z</time>
      </trkpt>
      <trkpt lat="44.57921" lon="1.34688">
        <ele>307.4</ele>
        <time>2020-01-26T15:31:53Z</time>
      </trkpt>
      <trkpt lat="44.57924" lon="1.34695">
        <ele>306.6</ele>
        <time>2020-01-26T15:31:59Z</time>
      </trkpt>
      <trkpt lat="44.57926" lon="1.34702">
        <ele>305.4</ele>
        <time>2020-01-26T15:32:05Z</time>
      </trkpt>
      <trkpt lat="44.57927" lon="1.34708">
        <ele>305.2</ele>
        <time>2020-01-26T15:32:09Z</time>
      </trkpt>
      <trkpt lat="44.57928" lon="1.34714">
        <ele>304.9</ele>
        <time>2020-01-26T15:32:17Z</time>
      </trkpt>
      <trkpt lat="44.57932" lon="1.34719">
        <ele>303.4</ele>
        <time>2020-01-26T15:33:13Z</time>
      </trkpt>
      <trkpt lat="44.57934" lon="1.34725">
        <ele>302.2</ele>
        <time>2020-01-26T15:33:21Z</time>
      </trkpt>
      <trkpt lat="44.57936" lon="1.34732">
        <ele>301.5</ele>
        <time>2020-01-26T15:33:27Z</time>
      </trkpt>
      <trkpt lat="44.57938" lon="1.34738">
        <ele>300.8</ele>
        <time>2020-01-26T15:33:33Z</time>
      </trkpt>
      <trkpt lat="44.57941" lon="1.34743">
        <ele>300.1</ele>
        <time>2020-01-26T15:33:40Z</time>
      </trkpt>
      <trkpt lat="44.57942" lon="1.34751">
        <ele>298.3</ele>
        <time>2020-01-26T15:33:49Z</time>
      </trkpt>
      <trkpt lat="44.57942" lon="1.34758">
        <ele>297</ele>
        <time>2020-01-26T15:33:54Z</time>
      </trkpt>
      <trkpt lat="44.57944" lon="1.34764">
        <ele>296.3</ele>
        <time>2020-01-26T15:33:58Z</time>
      </trkpt>
      <trkpt lat="44.57946" lon="1.3477">
        <ele>295.4</ele>
        <time>2020-01-26T15:34:03Z</time>
      </trkpt>
      <trkpt lat="44.57948" lon="1.34776">
        <ele>294.6</ele>
        <time>2020-01-26T15:34:08Z</time>
      </trkpt>
      <trkpt lat="44.57948" lon="1.34783">
        <ele>293.6</ele>
        <time>2020-01-26T15:34:13Z</time>
      </trkpt>
      <trkpt lat="44.57949" lon="1.3479">
        <ele>292.8</ele>
        <time>2020-01-26T15:34:18Z</time>
      </trkpt>
      <trkpt lat="44.57949" lon="1.34797">
        <ele>292.5</ele>
        <time>2020-01-26T15:34:22Z</time>
      </trkpt>
      <trkpt lat="44.5795" lon="1.34804">
        <ele>292.4</ele>
        <time>2020-01-26T15:34:26Z</time>
      </trkpt>
      <trkpt lat="44.5795" lon="1.34811">
        <ele>291.8</ele>
        <time>2020-01-26T15:34:31Z</time>
      </trkpt>
      <trkpt lat="44.5795" lon="1.34818">
        <ele>291.5</ele>
        <time>2020-01-26T15:34:36Z</time>
      </trkpt>
      <trkpt lat="44.57949" lon="1.34825">
        <ele>291</ele>
        <time>2020-01-26T15:34:40Z</time>
      </trkpt>
      <trkpt lat="44.57949" lon="1.34832">
        <ele>291.2</ele>
        <time>2020-01-26T15:34:44Z</time>
      </trkpt>
      <trkpt lat="44.5795" lon="1.34838">
        <ele>291.3</ele>
        <time>2020-01-26T15:34:48Z</time>
      </trkpt>
      <trkpt lat="44.5795" lon="1.34846">
        <ele>290.6</ele>
        <time>2020-01-26T15:34:53Z</time>
      </trkpt>
      <trkpt lat="44.5795" lon="1.34854">
        <ele>289.9</ele>
        <time>2020-01-26T15:34:58Z</time>
      </trkpt>
      <trkpt lat="44.5795" lon="1.34862">
        <ele>289.7</ele>
        <time>2020-01-26T15:35:02Z</time>
      </trkpt>
      <trkpt lat="44.5795" lon="1.34869">
        <ele>289.5</ele>
        <time>2020-01-26T15:35:06Z</time>
      </trkpt>
      <trkpt lat="44.5795" lon="1.34876">
        <ele>289.1</ele>
        <time>2020-01-26T15:35:11Z</time>
      </trkpt>
      <trkpt lat="44.5795" lon="1.34884">
        <ele>288.7</ele>
        <time>2020-01-26T15:35:16Z</time>
      </trkpt>
      <trkpt lat="44.5795" lon="1.3489">
        <ele>288</ele>
        <time>2020-01-26T15:35:21Z</time>
      </trkpt>
      <trkpt lat="44.57951" lon="1.34897">
        <ele>287.8</ele>
        <time>2020-01-26T15:35:25Z</time>
      </trkpt>
      <trkpt lat="44.5795" lon="1.34904">
        <ele>288.1</ele>
        <time>2020-01-26T15:35:29Z</time>
      </trkpt>
      <trkpt lat="44.5795" lon="1.34911">
        <ele>288.1</ele>
        <time>2020-01-26T15:35:33Z</time>
      </trkpt>
      <trkpt lat="44.57951" lon="1.34928">
        <ele>284.3</ele>
        <time>2020-01-26T15:35:46Z</time>
      </trkpt>
      <trkpt lat="44.57952" lon="1.34935">
        <ele>284.5</ele>
        <time>2020-01-26T15:35:51Z</time>
      </trkpt>
      <trkpt lat="44.57952" lon="1.34943">
        <ele>285.6</ele>
        <time>2020-01-26T15:35:54Z</time>
      </trkpt>
      <trkpt lat="44.57956" lon="1.34948">
        <ele>286.4</ele>
        <time>2020-01-26T15:36:01Z</time>
      </trkpt>
      <trkpt lat="44.57959" lon="1.34953">
        <ele>286.5</ele>
        <time>2020-01-26T15:36:06Z</time>
      </trkpt>
      <trkpt lat="44.57964" lon="1.34955">
        <ele>286.5</ele>
        <time>2020-01-26T15:36:11Z</time>
      </trkpt>
      <trkpt lat="44.57968" lon="1.34957">
        <ele>286.8</ele>
        <time>2020-01-26T15:36:16Z</time>
      </trkpt>
      <trkpt lat="44.57973" lon="1.34961">
        <ele>286.1</ele>
        <time>2020-01-26T15:36:22Z</time>
      </trkpt>
      <trkpt lat="44.57976" lon="1.34964">
        <ele>286</ele>
        <time>2020-01-26T15:36:35Z</time>
      </trkpt>
      <trkpt lat="44.57981" lon="1.34961">
        <ele>289.4</ele>
        <time>2020-01-26T15:37:13Z</time>
      </trkpt>
      <trkpt lat="44.57986" lon="1.3496">
        <ele>290.1</ele>
        <time>2020-01-26T15:37:45Z</time>
      </trkpt>
      <trkpt lat="44.5799" lon="1.34959">
        <ele>289.3</ele>
        <time>2020-01-26T15:37:56Z</time>
      </trkpt>
      <trkpt lat="44.57989" lon="1.34964">
        <ele>288.6</ele>
        <time>2020-01-26T15:41:39Z</time>
      </trkpt>
      <trkpt lat="44.57985" lon="1.3496">
        <ele>287.7</ele>
        <time>2020-01-26T15:42:20Z</time>
      </trkpt>
      <trkpt lat="44.57981" lon="1.3496">
        <ele>286.8</ele>
        <time>2020-01-26T15:42:23Z</time>
      </trkpt>
      <trkpt lat="44.57976" lon="1.34962">
        <ele>285</ele>
        <time>2020-01-26T15:42:35Z</time>
      </trkpt>
      <trkpt lat="44.57972" lon="1.3496">
        <ele>284.7</ele>
        <time>2020-01-26T15:43:34Z</time>
      </trkpt>
      <trkpt lat="44.57969" lon="1.34955">
        <ele>283.3</ele>
        <time>2020-01-26T15:43:41Z</time>
      </trkpt>
      <trkpt lat="44.57964" lon="1.34951">
        <ele>281.3</ele>
        <time>2020-01-26T15:43:51Z</time>
      </trkpt>
      <trkpt lat="44.57959" lon="1.34949">
        <ele>281.4</ele>
        <time>2020-01-26T15:43:56Z</time>
      </trkpt>
      <trkpt lat="44.57954" lon="1.3495">
        <ele>282.5</ele>
        <time>2020-01-26T15:44:00Z</time>
      </trkpt>
      <trkpt lat="44.57949" lon="1.3495">
        <ele>283.3</ele>
        <time>2020-01-26T15:44:10Z</time>
      </trkpt>
      <trkpt lat="44.57945" lon="1.34955">
        <ele>282.9</ele>
        <time>2020-01-26T15:44:18Z</time>
      </trkpt>
      <trkpt lat="44.57942" lon="1.3496">
        <ele>282.6</ele>
        <time>2020-01-26T15:44:25Z</time>
      </trkpt>
      <trkpt lat="44.57937" lon="1.34962">
        <ele>283.8</ele>
        <time>2020-01-26T15:44:29Z</time>
      </trkpt>
      <trkpt lat="44.57933" lon="1.34963">
        <ele>284.8</ele>
        <time>2020-01-26T15:44:33Z</time>
      </trkpt>
      <trkpt lat="44.57928" lon="1.34965">
        <ele>285.1</ele>
        <time>2020-01-26T15:44:39Z</time>
      </trkpt>
      <trkpt lat="44.57923" lon="1.34967">
        <ele>281.1</ele>
        <time>2020-01-26T15:44:48Z</time>
      </trkpt>
      <trkpt lat="44.57918" lon="1.34967">
        <ele>280.4</ele>
        <time>2020-01-26T15:44:53Z</time>
      </trkpt>
      <trkpt lat="44.57913" lon="1.34968">
        <ele>281</ele>
        <time>2020-01-26T15:44:57Z</time>
      </trkpt>
      <trkpt lat="44.57908" lon="1.34971">
        <ele>281.4</ele>
        <time>2020-01-26T15:45:02Z</time>
      </trkpt>
      <trkpt lat="44.57903" lon="1.34974">
        <ele>281.6</ele>
        <time>2020-01-26T15:45:07Z</time>
      </trkpt>
      <trkpt lat="44.57899" lon="1.34977">
        <ele>281.9</ele>
        <time>2020-01-26T15:45:11Z</time>
      </trkpt>
      <trkpt lat="44.57894" lon="1.34976">
        <ele>280.4</ele>
        <time>2020-01-26T15:45:18Z</time>
      </trkpt>
      <trkpt lat="44.57889" lon="1.34974">
        <ele>280.1</ele>
        <time>2020-01-26T15:45:22Z</time>
      </trkpt>
      <trkpt lat="44.57884" lon="1.34975">
        <ele>278.6</ele>
        <time>2020-01-26T15:45:27Z</time>
      </trkpt>
      <trkpt lat="44.57879" lon="1.34972">
        <ele>277.5</ele>
        <time>2020-01-26T15:45:32Z</time>
      </trkpt>
      <trkpt lat="44.57874" lon="1.34971">
        <ele>275.5</ele>
        <time>2020-01-26T15:45:38Z</time>
      </trkpt>
      <trkpt lat="44.57869" lon="1.34971">
        <ele>274.2</ele>
        <time>2020-01-26T15:45:43Z</time>
      </trkpt>
      <trkpt lat="44.57864" lon="1.34971">
        <ele>272</ele>
        <time>2020-01-26T15:45:49Z</time>
      </trkpt>
      <trkpt lat="44.57858" lon="1.34972">
        <ele>269.4</ele>
        <time>2020-01-26T15:45:55Z</time>
      </trkpt>
      <trkpt lat="44.57854" lon="1.34972">
        <ele>266.6</ele>
        <time>2020-01-26T15:46:02Z</time>
      </trkpt>
      <trkpt lat="44.57849" lon="1.3497">
        <ele>267.8</ele>
        <time>2020-01-26T15:46:09Z</time>
      </trkpt>
      <trkpt lat="44.57845" lon="1.3497">
        <ele>268.6</ele>
        <time>2020-01-26T15:46:13Z</time>
      </trkpt>
      <trkpt lat="44.57839" lon="1.3497">
        <ele>269.4</ele>
        <time>2020-01-26T15:46:18Z</time>
      </trkpt>
      <trkpt lat="44.57835" lon="1.34972">
        <ele>269.8</ele>
        <time>2020-01-26T15:46:27Z</time>
      </trkpt>
      <trkpt lat="44.57829" lon="1.34972">
        <ele>269.6</ele>
        <time>2020-01-26T15:46:32Z</time>
      </trkpt>
      <trkpt lat="44.57825" lon="1.34974">
        <ele>269.7</ele>
        <time>2020-01-26T15:46:36Z</time>
      </trkpt>
      <trkpt lat="44.57821" lon="1.34974">
        <ele>268.6</ele>
        <time>2020-01-26T15:46:39Z</time>
      </trkpt>
      <trkpt lat="44.57816" lon="1.34977">
        <ele>267.3</ele>
        <time>2020-01-26T15:46:44Z</time>
      </trkpt>
      <trkpt lat="44.57811" lon="1.3498">
        <ele>267.1</ele>
        <time>2020-01-26T15:46:47Z</time>
      </trkpt>
      <trkpt lat="44.57807" lon="1.34985">
        <ele>266.2</ele>
        <time>2020-01-26T15:46:52Z</time>
      </trkpt>
      <trkpt lat="44.57802" lon="1.34989">
        <ele>266.2</ele>
        <time>2020-01-26T15:46:56Z</time>
      </trkpt>
      <trkpt lat="44.57798" lon="1.34993">
        <ele>265.5</ele>
        <time>2020-01-26T15:47:00Z</time>
      </trkpt>
      <trkpt lat="44.57795" lon="1.34997">
        <ele>264.3</ele>
        <time>2020-01-26T15:47:06Z</time>
      </trkpt>
      <trkpt lat="44.57792" lon="1.35002">
        <ele>262.5</ele>
        <time>2020-01-26T15:47:17Z</time>
      </trkpt>
      <trkpt lat="44.57787" lon="1.35006">
        <ele>261.5</ele>
        <time>2020-01-26T15:47:21Z</time>
      </trkpt>
      <trkpt lat="44.57783" lon="1.35009">
        <ele>260.7</ele>
        <time>2020-01-26T15:47:25Z</time>
      </trkpt>
      <trkpt lat="44.57779" lon="1.35012">
        <ele>260.5</ele>
        <time>2020-01-26T15:47:28Z</time>
      </trkpt>
      <trkpt lat="44.57775" lon="1.35015">
        <ele>259.7</ele>
        <time>2020-01-26T15:47:34Z</time>
      </trkpt>
      <trkpt lat="44.57771" lon="1.35019">
        <ele>259.5</ele>
        <time>2020-01-26T15:47:40Z</time>
      </trkpt>
      <trkpt lat="44.5777" lon="1.35025">
        <ele>258.4</ele>
        <time>2020-01-26T15:47:45Z</time>
      </trkpt>
      <trkpt lat="44.57768" lon="1.35032">
        <ele>257.2</ele>
        <time>2020-01-26T15:47:52Z</time>
      </trkpt>
      <trkpt lat="44.57763" lon="1.35034">
        <ele>256.9</ele>
        <time>2020-01-26T15:47:56Z</time>
      </trkpt>
      <trkpt lat="44.57759" lon="1.35037">
        <ele>254.9</ele>
        <time>2020-01-26T15:48:01Z</time>
      </trkpt>
      <trkpt lat="44.57755" lon="1.3504">
        <ele>254.4</ele>
        <time>2020-01-26T15:48:04Z</time>
      </trkpt>
      <trkpt lat="44.57753" lon="1.35046">
        <ele>253.8</ele>
        <time>2020-01-26T15:48:11Z</time>
      </trkpt>
      <trkpt lat="44.5775" lon="1.35051">
        <ele>252.7</ele>
        <time>2020-01-26T15:48:18Z</time>
      </trkpt>
      <trkpt lat="44.57746" lon="1.35056">
        <ele>252</ele>
        <time>2020-01-26T15:48:25Z</time>
      </trkpt>
      <trkpt lat="44.57742" lon="1.35061">
        <ele>251.7</ele>
        <time>2020-01-26T15:48:30Z</time>
      </trkpt>
      <trkpt lat="44.57739" lon="1.35068">
        <ele>250.5</ele>
        <time>2020-01-26T15:48:34Z</time>
      </trkpt>
      <trkpt lat="44.57735" lon="1.35071">
        <ele>250</ele>
        <time>2020-01-26T15:48:37Z</time>
      </trkpt>
      <trkpt lat="44.57731" lon="1.35075">
        <ele>250.2</ele>
        <time>2020-01-26T15:48:40Z</time>
      </trkpt>
      <trkpt lat="44.57728" lon="1.35081">
        <ele>251.3</ele>
        <time>2020-01-26T15:48:43Z</time>
      </trkpt>
      <trkpt lat="44.57728" lon="1.35088">
        <ele>251.2</ele>
        <time>2020-01-26T15:48:48Z</time>
      </trkpt>
      <trkpt lat="44.57726" lon="1.35094">
        <ele>251.1</ele>
        <time>2020-01-26T15:48:54Z</time>
      </trkpt>
      <trkpt lat="44.57722" lon="1.35099">
        <ele>252.6</ele>
        <time>2020-01-26T15:49:00Z</time>
      </trkpt>
      <trkpt lat="44.57719" lon="1.35105">
        <ele>253.4</ele>
        <time>2020-01-26T15:49:05Z</time>
      </trkpt>
      <trkpt lat="44.57716" lon="1.3511">
        <ele>254.2</ele>
        <time>2020-01-26T15:49:10Z</time>
      </trkpt>
      <trkpt lat="44.57713" lon="1.35115">
        <ele>254.3</ele>
        <time>2020-01-26T15:49:15Z</time>
      </trkpt>
      <trkpt lat="44.57709" lon="1.35121">
        <ele>254.3</ele>
        <time>2020-01-26T15:49:20Z</time>
      </trkpt>
      <trkpt lat="44.57705" lon="1.35124">
        <ele>253.5</ele>
        <time>2020-01-26T15:49:26Z</time>
      </trkpt>
      <trkpt lat="44.577" lon="1.35127">
        <ele>252.7</ele>
        <time>2020-01-26T15:49:31Z</time>
      </trkpt>
      <trkpt lat="44.57695" lon="1.35132">
        <ele>252.9</ele>
        <time>2020-01-26T15:49:36Z</time>
      </trkpt>
      <trkpt lat="44.57692" lon="1.35137">
        <ele>252.8</ele>
        <time>2020-01-26T15:49:40Z</time>
      </trkpt>
      <trkpt lat="44.57688" lon="1.35141">
        <ele>252.6</ele>
        <time>2020-01-26T15:49:44Z</time>
      </trkpt>
      <trkpt lat="44.57685" lon="1.35145">
        <ele>251.9</ele>
        <time>2020-01-26T15:49:49Z</time>
      </trkpt>
      <trkpt lat="44.5768" lon="1.35147">
        <ele>251.6</ele>
        <time>2020-01-26T15:49:54Z</time>
      </trkpt>
      <trkpt lat="44.57675" lon="1.35147">
        <ele>251.8</ele>
        <time>2020-01-26T15:49:58Z</time>
      </trkpt>
      <trkpt lat="44.57671" lon="1.35149">
        <ele>252.9</ele>
        <time>2020-01-26T15:50:02Z</time>
      </trkpt>
      <trkpt lat="44.57665" lon="1.3515">
        <ele>254.6</ele>
        <time>2020-01-26T15:50:08Z</time>
      </trkpt>
      <trkpt lat="44.5766" lon="1.35152">
        <ele>255.2</ele>
        <time>2020-01-26T15:50:12Z</time>
      </trkpt>
      <trkpt lat="44.57656" lon="1.35154">
        <ele>254.4</ele>
        <time>2020-01-26T15:50:17Z</time>
      </trkpt>
      <trkpt lat="44.57651" lon="1.35156">
        <ele>253.4</ele>
        <time>2020-01-26T15:50:21Z</time>
      </trkpt>
      <trkpt lat="44.57646" lon="1.35159">
        <ele>250.4</ele>
        <time>2020-01-26T15:50:27Z</time>
      </trkpt>
      <trkpt lat="44.57641" lon="1.35162">
        <ele>249.2</ele>
        <time>2020-01-26T15:50:31Z</time>
      </trkpt>
      <trkpt lat="44.57638" lon="1.35166">
        <ele>249.7</ele>
        <time>2020-01-26T15:50:36Z</time>
      </trkpt>
      <trkpt lat="44.57633" lon="1.35169">
        <ele>248</ele>
        <time>2020-01-26T15:50:42Z</time>
      </trkpt>
      <trkpt lat="44.57628" lon="1.3517">
        <ele>245.9</ele>
        <time>2020-01-26T15:50:51Z</time>
      </trkpt>
      <trkpt lat="44.57624" lon="1.35174">
        <ele>245.6</ele>
        <time>2020-01-26T15:51:00Z</time>
      </trkpt>
      <trkpt lat="44.5762" lon="1.35175">
        <ele>245.6</ele>
        <time>2020-01-26T15:51:06Z</time>
      </trkpt>
      <trkpt lat="44.57614" lon="1.35174">
        <ele>243.7</ele>
        <time>2020-01-26T15:51:21Z</time>
      </trkpt>
      <trkpt lat="44.5761" lon="1.35172">
        <ele>241.8</ele>
        <time>2020-01-26T15:51:25Z</time>
      </trkpt>
      <trkpt lat="44.57606" lon="1.3517">
        <ele>239.5</ele>
        <time>2020-01-26T15:51:31Z</time>
      </trkpt>
      <trkpt lat="44.57601" lon="1.35168">
        <ele>238.7</ele>
        <time>2020-01-26T15:51:34Z</time>
      </trkpt>
      <trkpt lat="44.57596" lon="1.35166">
        <ele>237.4</ele>
        <time>2020-01-26T15:51:42Z</time>
      </trkpt>
      <trkpt lat="44.57592" lon="1.35162">
        <ele>237.5</ele>
        <time>2020-01-26T15:51:47Z</time>
      </trkpt>
      <trkpt lat="44.57588" lon="1.35159">
        <ele>236.8</ele>
        <time>2020-01-26T15:51:51Z</time>
      </trkpt>
      <trkpt lat="44.57582" lon="1.35156">
        <ele>235.3</ele>
        <time>2020-01-26T15:51:56Z</time>
      </trkpt>
      <trkpt lat="44.57578" lon="1.35154">
        <ele>235.4</ele>
        <time>2020-01-26T15:51:59Z</time>
      </trkpt>
      <trkpt lat="44.57573" lon="1.35151">
        <ele>235.1</ele>
        <time>2020-01-26T15:52:03Z</time>
      </trkpt>
      <trkpt lat="44.57568" lon="1.35149">
        <ele>235.6</ele>
        <time>2020-01-26T15:52:07Z</time>
      </trkpt>
      <trkpt lat="44.57562" lon="1.35148">
        <ele>236</ele>
        <time>2020-01-26T15:52:11Z</time>
      </trkpt>
      <trkpt lat="44.57558" lon="1.3515">
        <ele>236.4</ele>
        <time>2020-01-26T15:52:15Z</time>
      </trkpt>
      <trkpt lat="44.57552" lon="1.35152">
        <ele>236.5</ele>
        <time>2020-01-26T15:52:20Z</time>
      </trkpt>
      <trkpt lat="44.57548" lon="1.35154">
        <ele>237</ele>
        <time>2020-01-26T15:52:24Z</time>
      </trkpt>
      <trkpt lat="44.57543" lon="1.35154">
        <ele>236.9</ele>
        <time>2020-01-26T15:52:29Z</time>
      </trkpt>
      <trkpt lat="44.57539" lon="1.35154">
        <ele>235.8</ele>
        <time>2020-01-26T15:52:33Z</time>
      </trkpt>
      <trkpt lat="44.57533" lon="1.35154">
        <ele>234.1</ele>
        <time>2020-01-26T15:52:39Z</time>
      </trkpt>
      <trkpt lat="44.57528" lon="1.35153">
        <ele>235.3</ele>
        <time>2020-01-26T15:52:43Z</time>
      </trkpt>
      <trkpt lat="44.57522" lon="1.35154">
        <ele>236.6</ele>
        <time>2020-01-26T15:52:48Z</time>
      </trkpt>
      <trkpt lat="44.57519" lon="1.35159">
        <ele>236.2</ele>
        <time>2020-01-26T15:52:54Z</time>
      </trkpt>
      <trkpt lat="44.57515" lon="1.35162">
        <ele>235.5</ele>
        <time>2020-01-26T15:52:59Z</time>
      </trkpt>
      <trkpt lat="44.5751" lon="1.35164">
        <ele>236</ele>
        <time>2020-01-26T15:53:02Z</time>
      </trkpt>
      <trkpt lat="44.57505" lon="1.35166">
        <ele>236.7</ele>
        <time>2020-01-26T15:53:07Z</time>
      </trkpt>
      <trkpt lat="44.57501" lon="1.3517">
        <ele>236.6</ele>
        <time>2020-01-26T15:53:12Z</time>
      </trkpt>
      <trkpt lat="44.57496" lon="1.35173">
        <ele>236.2</ele>
        <time>2020-01-26T15:53:19Z</time>
      </trkpt>
      <trkpt lat="44.57491" lon="1.35174">
        <ele>236.8</ele>
        <time>2020-01-26T15:53:22Z</time>
      </trkpt>
      <trkpt lat="44.57486" lon="1.35174">
        <ele>236.5</ele>
        <time>2020-01-26T15:53:26Z</time>
      </trkpt>
      <trkpt lat="44.57482" lon="1.35175">
        <ele>235.5</ele>
        <time>2020-01-26T15:53:31Z</time>
      </trkpt>
      <trkpt lat="44.57477" lon="1.35177">
        <ele>234.4</ele>
        <time>2020-01-26T15:53:36Z</time>
      </trkpt>
      <trkpt lat="44.57472" lon="1.35178">
        <ele>232.5</ele>
        <time>2020-01-26T15:53:42Z</time>
      </trkpt>
      <trkpt lat="44.57467" lon="1.35179">
        <ele>231.2</ele>
        <time>2020-01-26T15:53:47Z</time>
      </trkpt>
      <trkpt lat="44.57462" lon="1.3518">
        <ele>230.1</ele>
        <time>2020-01-26T15:53:51Z</time>
      </trkpt>
      <trkpt lat="44.57457" lon="1.35182">
        <ele>229.4</ele>
        <time>2020-01-26T15:53:54Z</time>
      </trkpt>
      <trkpt lat="44.57453" lon="1.35183">
        <ele>228.1</ele>
        <time>2020-01-26T15:53:58Z</time>
      </trkpt>
      <trkpt lat="44.57448" lon="1.35183">
        <ele>227.6</ele>
        <time>2020-01-26T15:54:01Z</time>
      </trkpt>
      <trkpt lat="44.57443" lon="1.35184">
        <ele>226.6</ele>
        <time>2020-01-26T15:54:08Z</time>
      </trkpt>
      <trkpt lat="44.57439" lon="1.35184">
        <ele>224.9</ele>
        <time>2020-01-26T15:54:14Z</time>
      </trkpt>
      <trkpt lat="44.57434" lon="1.35183">
        <ele>223.2</ele>
        <time>2020-01-26T15:54:18Z</time>
      </trkpt>
      <trkpt lat="44.57429" lon="1.35182">
        <ele>222</ele>
        <time>2020-01-26T15:54:24Z</time>
      </trkpt>
      <trkpt lat="44.57425" lon="1.35181">
        <ele>222.3</ele>
        <time>2020-01-26T15:54:34Z</time>
      </trkpt>
      <trkpt lat="44.5742" lon="1.3518">
        <ele>221.4</ele>
        <time>2020-01-26T15:54:38Z</time>
      </trkpt>
      <trkpt lat="44.57415" lon="1.35179">
        <ele>219.8</ele>
        <time>2020-01-26T15:54:42Z</time>
      </trkpt>
      <trkpt lat="44.57411" lon="1.35178">
        <ele>218.8</ele>
        <time>2020-01-26T15:54:46Z</time>
      </trkpt>
      <trkpt lat="44.57406" lon="1.35176">
        <ele>217.5</ele>
        <time>2020-01-26T15:54:51Z</time>
      </trkpt>
      <trkpt lat="44.57401" lon="1.35173">
        <ele>216.9</ele>
        <time>2020-01-26T15:54:55Z</time>
      </trkpt>
      <trkpt lat="44.57396" lon="1.3517">
        <ele>216.9</ele>
        <time>2020-01-26T15:54:59Z</time>
      </trkpt>
      <trkpt lat="44.57392" lon="1.35166">
        <ele>217.5</ele>
        <time>2020-01-26T15:55:03Z</time>
      </trkpt>
      <trkpt lat="44.57388" lon="1.35162">
        <ele>217.8</ele>
        <time>2020-01-26T15:55:06Z</time>
      </trkpt>
      <trkpt lat="44.57384" lon="1.35158">
        <ele>218</ele>
        <time>2020-01-26T15:55:09Z</time>
      </trkpt>
      <trkpt lat="44.5738" lon="1.35154">
        <ele>219.2</ele>
        <time>2020-01-26T15:55:13Z</time>
      </trkpt>
      <trkpt lat="44.57375" lon="1.3515">
        <ele>219.6</ele>
        <time>2020-01-26T15:55:16Z</time>
      </trkpt>
      <trkpt lat="44.57371" lon="1.35147">
        <ele>219.5</ele>
        <time>2020-01-26T15:55:20Z</time>
      </trkpt>
      <trkpt lat="44.57366" lon="1.35146">
        <ele>218.8</ele>
        <time>2020-01-26T15:55:25Z</time>
      </trkpt>
      <trkpt lat="44.57362" lon="1.35148">
        <ele>216.8</ele>
        <time>2020-01-26T15:55:31Z</time>
      </trkpt>
      <trkpt lat="44.57357" lon="1.35149">
        <ele>214.9</ele>
        <time>2020-01-26T15:55:37Z</time>
      </trkpt>
      <trkpt lat="44.57352" lon="1.35147">
        <ele>214.9</ele>
        <time>2020-01-26T15:55:42Z</time>
      </trkpt>
      <trkpt lat="44.57347" lon="1.35145">
        <ele>216</ele>
        <time>2020-01-26T15:55:46Z</time>
      </trkpt>
      <trkpt lat="44.57342" lon="1.35141">
        <ele>216.3</ele>
        <time>2020-01-26T15:55:50Z</time>
      </trkpt>
      <trkpt lat="44.57337" lon="1.35138">
        <ele>216.2</ele>
        <time>2020-01-26T15:55:54Z</time>
      </trkpt>
      <trkpt lat="44.57332" lon="1.35135">
        <ele>216.7</ele>
        <time>2020-01-26T15:55:58Z</time>
      </trkpt>
      <trkpt lat="44.57327" lon="1.35133">
        <ele>216.7</ele>
        <time>2020-01-26T15:56:02Z</time>
      </trkpt>
      <trkpt lat="44.57322" lon="1.35132">
        <ele>217.7</ele>
        <time>2020-01-26T15:56:06Z</time>
      </trkpt>
      <trkpt lat="44.57317" lon="1.35131">
        <ele>218.8</ele>
        <time>2020-01-26T15:56:11Z</time>
      </trkpt>
      <trkpt lat="44.57312" lon="1.3513">
        <ele>223.6</ele>
        <time>2020-01-26T15:56:14Z</time>
      </trkpt>
      <trkpt lat="44.57307" lon="1.35127">
        <ele>224.1</ele>
        <time>2020-01-26T15:56:18Z</time>
      </trkpt>
      <trkpt lat="44.57303" lon="1.35124">
        <ele>223.5</ele>
        <time>2020-01-26T15:56:22Z</time>
      </trkpt>
      <trkpt lat="44.57297" lon="1.35122">
        <ele>223</ele>
        <time>2020-01-26T15:56:27Z</time>
      </trkpt>
      <trkpt lat="44.57293" lon="1.35121">
        <ele>222.5</ele>
        <time>2020-01-26T15:56:31Z</time>
      </trkpt>
      <trkpt lat="44.57288" lon="1.35118">
        <ele>221.9</ele>
        <time>2020-01-26T15:56:36Z</time>
      </trkpt>
      <trkpt lat="44.57283" lon="1.35119">
        <ele>217.7</ele>
        <time>2020-01-26T15:56:42Z</time>
      </trkpt>
      <trkpt lat="44.57278" lon="1.35118">
        <ele>215</ele>
        <time>2020-01-26T15:56:49Z</time>
      </trkpt>
      <trkpt lat="44.57273" lon="1.35119">
        <ele>213.5</ele>
        <time>2020-01-26T15:56:54Z</time>
      </trkpt>
      <trkpt lat="44.57269" lon="1.35119">
        <ele>212.7</ele>
        <time>2020-01-26T15:56:58Z</time>
      </trkpt>
      <trkpt lat="44.57264" lon="1.35116">
        <ele>212.4</ele>
        <time>2020-01-26T15:57:03Z</time>
      </trkpt>
      <trkpt lat="44.5726" lon="1.35114">
        <ele>211.7</ele>
        <time>2020-01-26T15:57:07Z</time>
      </trkpt>
      <trkpt lat="44.57255" lon="1.35113">
        <ele>210.9</ele>
        <time>2020-01-26T15:57:11Z</time>
      </trkpt>
      <trkpt lat="44.57251" lon="1.35111">
        <ele>211.1</ele>
        <time>2020-01-26T15:57:14Z</time>
      </trkpt>
      <trkpt lat="44.57246" lon="1.35109">
        <ele>211.7</ele>
        <time>2020-01-26T15:57:18Z</time>
      </trkpt>
      <trkpt lat="44.57242" lon="1.35107">
        <ele>212.5</ele>
        <time>2020-01-26T15:57:23Z</time>
      </trkpt>
      <trkpt lat="44.57237" lon="1.35105">
        <ele>213.1</ele>
        <time>2020-01-26T15:57:32Z</time>
      </trkpt>
      <trkpt lat="44.57232" lon="1.35105">
        <ele>211.7</ele>
        <time>2020-01-26T15:57:39Z</time>
      </trkpt>
      <trkpt lat="44.57228" lon="1.35103">
        <ele>211.1</ele>
        <time>2020-01-26T15:57:44Z</time>
      </trkpt>
      <trkpt lat="44.57223" lon="1.35101">
        <ele>212.3</ele>
        <time>2020-01-26T15:57:47Z</time>
      </trkpt>
      <trkpt lat="44.57218" lon="1.35098">
        <ele>214.3</ele>
        <time>2020-01-26T15:57:50Z</time>
      </trkpt>
      <trkpt lat="44.57214" lon="1.35096">
        <ele>215.9</ele>
        <time>2020-01-26T15:57:57Z</time>
      </trkpt>
      <trkpt lat="44.57208" lon="1.35094">
        <ele>214.8</ele>
        <time>2020-01-26T15:58:02Z</time>
      </trkpt>
      <trkpt lat="44.57204" lon="1.35091">
        <ele>213.9</ele>
        <time>2020-01-26T15:58:07Z</time>
      </trkpt>
      <trkpt lat="44.57198" lon="1.35089">
        <ele>213.4</ele>
        <time>2020-01-26T15:58:12Z</time>
      </trkpt>
      <trkpt lat="44.57194" lon="1.35087">
        <ele>213.6</ele>
        <time>2020-01-26T15:58:14Z</time>
      </trkpt>
      <trkpt lat="44.57188" lon="1.35085">
        <ele>213.9</ele>
        <time>2020-01-26T15:58:19Z</time>
      </trkpt>
      <trkpt lat="44.57183" lon="1.35083">
        <ele>212.9</ele>
        <time>2020-01-26T15:58:24Z</time>
      </trkpt>
      <trkpt lat="44.57178" lon="1.35081">
        <ele>212.5</ele>
        <time>2020-01-26T15:58:32Z</time>
      </trkpt>
      <trkpt lat="44.57172" lon="1.35081">
        <ele>211.8</ele>
        <time>2020-01-26T15:58:36Z</time>
      </trkpt>
      <trkpt lat="44.57168" lon="1.35081">
        <ele>211.8</ele>
        <time>2020-01-26T15:58:38Z</time>
      </trkpt>
      <trkpt lat="44.57163" lon="1.3508">
        <ele>212.5</ele>
        <time>2020-01-26T15:58:41Z</time>
      </trkpt>
      <trkpt lat="44.57158" lon="1.35079">
        <ele>213.6</ele>
        <time>2020-01-26T15:58:45Z</time>
      </trkpt>
      <trkpt lat="44.57153" lon="1.35079">
        <ele>214.8</ele>
        <time>2020-01-26T15:58:49Z</time>
      </trkpt>
      <trkpt lat="44.57149" lon="1.3508">
        <ele>216.8</ele>
        <time>2020-01-26T15:58:57Z</time>
      </trkpt>
      <trkpt lat="44.57143" lon="1.3508">
        <ele>215.5</ele>
        <time>2020-01-26T15:59:02Z</time>
      </trkpt>
      <trkpt lat="44.57138" lon="1.3508">
        <ele>214.5</ele>
        <time>2020-01-26T15:59:06Z</time>
      </trkpt>
      <trkpt lat="44.57134" lon="1.3508">
        <ele>213.5</ele>
        <time>2020-01-26T15:59:10Z</time>
      </trkpt>
      <trkpt lat="44.57129" lon="1.35081">
        <ele>213</ele>
        <time>2020-01-26T15:59:14Z</time>
      </trkpt>
      <trkpt lat="44.57123" lon="1.35082">
        <ele>213.8</ele>
        <time>2020-01-26T15:59:18Z</time>
      </trkpt>
      <trkpt lat="44.57118" lon="1.35084">
        <ele>214.9</ele>
        <time>2020-01-26T15:59:22Z</time>
      </trkpt>
      <trkpt lat="44.57113" lon="1.35085">
        <ele>215.7</ele>
        <time>2020-01-26T15:59:25Z</time>
      </trkpt>
      <trkpt lat="44.57108" lon="1.35086">
        <ele>215.7</ele>
        <time>2020-01-26T15:59:29Z</time>
      </trkpt>
      <trkpt lat="44.57103" lon="1.35085">
        <ele>216.6</ele>
        <time>2020-01-26T15:59:35Z</time>
      </trkpt>
      <trkpt lat="44.57097" lon="1.35085">
        <ele>218.3</ele>
        <time>2020-01-26T15:59:39Z</time>
      </trkpt>
      <trkpt lat="44.57092" lon="1.35084">
        <ele>219.9</ele>
        <time>2020-01-26T15:59:43Z</time>
      </trkpt>
      <trkpt lat="44.57087" lon="1.35085">
        <ele>220</ele>
        <time>2020-01-26T15:59:47Z</time>
      </trkpt>
      <trkpt lat="44.57082" lon="1.35086">
        <ele>219.8</ele>
        <time>2020-01-26T15:59:53Z</time>
      </trkpt>
      <trkpt lat="44.57077" lon="1.35089">
        <ele>217.1</ele>
        <time>2020-01-26T16:00:00Z</time>
      </trkpt>
      <trkpt lat="44.57072" lon="1.3509">
        <ele>216.9</ele>
        <time>2020-01-26T16:00:04Z</time>
      </trkpt>
      <trkpt lat="44.57067" lon="1.35092">
        <ele>213.4</ele>
        <time>2020-01-26T16:00:11Z</time>
      </trkpt>
      <trkpt lat="44.57062" lon="1.35092">
        <ele>211.8</ele>
        <time>2020-01-26T16:00:18Z</time>
      </trkpt>
      <trkpt lat="44.57057" lon="1.35092">
        <ele>210.6</ele>
        <time>2020-01-26T16:00:22Z</time>
      </trkpt>
      <trkpt lat="44.57052" lon="1.35092">
        <ele>209.5</ele>
        <time>2020-01-26T16:00:26Z</time>
      </trkpt>
      <trkpt lat="44.57047" lon="1.35091">
        <ele>209.4</ele>
        <time>2020-01-26T16:00:31Z</time>
      </trkpt>
      <trkpt lat="44.57042" lon="1.3509">
        <ele>209.1</ele>
        <time>2020-01-26T16:00:36Z</time>
      </trkpt>
      <trkpt lat="44.57037" lon="1.35091">
        <ele>208.3</ele>
        <time>2020-01-26T16:00:42Z</time>
      </trkpt>
      <trkpt lat="44.57032" lon="1.35091">
        <ele>207</ele>
        <time>2020-01-26T16:00:46Z</time>
      </trkpt>
      <trkpt lat="44.57027" lon="1.35091">
        <ele>207</ele>
        <time>2020-01-26T16:00:49Z</time>
      </trkpt>
      <trkpt lat="44.57022" lon="1.35091">
        <ele>207</ele>
        <time>2020-01-26T16:00:53Z</time>
      </trkpt>
      <trkpt lat="44.57017" lon="1.35091">
        <ele>207.3</ele>
        <time>2020-01-26T16:00:58Z</time>
      </trkpt>
      <trkpt lat="44.57012" lon="1.35091">
        <ele>207.7</ele>
        <time>2020-01-26T16:01:05Z</time>
      </trkpt>
      <trkpt lat="44.57006" lon="1.35091">
        <ele>207.3</ele>
        <time>2020-01-26T16:01:09Z</time>
      </trkpt>
      <trkpt lat="44.57001" lon="1.35091">
        <ele>207.2</ele>
        <time>2020-01-26T16:01:13Z</time>
      </trkpt>
      <trkpt lat="44.56996" lon="1.35091">
        <ele>207.7</ele>
        <time>2020-01-26T16:01:16Z</time>
      </trkpt>
      <trkpt lat="44.56991" lon="1.35091">
        <ele>207.4</ele>
        <time>2020-01-26T16:01:20Z</time>
      </trkpt>
      <trkpt lat="44.56986" lon="1.35091">
        <ele>206.2</ele>
        <time>2020-01-26T16:01:25Z</time>
      </trkpt>
      <trkpt lat="44.56981" lon="1.3509">
        <ele>206.8</ele>
        <time>2020-01-26T16:01:28Z</time>
      </trkpt>
      <trkpt lat="44.56976" lon="1.35088">
        <ele>206.4</ele>
        <time>2020-01-26T16:01:33Z</time>
      </trkpt>
      <trkpt lat="44.56971" lon="1.35088">
        <ele>205</ele>
        <time>2020-01-26T16:01:38Z</time>
      </trkpt>
      <trkpt lat="44.56967" lon="1.35086">
        <ele>204.9</ele>
        <time>2020-01-26T16:01:41Z</time>
      </trkpt>
      <trkpt lat="44.56961" lon="1.35084">
        <ele>204.6</ele>
        <time>2020-01-26T16:01:45Z</time>
      </trkpt>
      <trkpt lat="44.56956" lon="1.35084">
        <ele>204.3</ele>
        <time>2020-01-26T16:01:49Z</time>
      </trkpt>
      <trkpt lat="44.56952" lon="1.35084">
        <ele>203.4</ele>
        <time>2020-01-26T16:01:53Z</time>
      </trkpt>
      <trkpt lat="44.56946" lon="1.35083">
        <ele>204.2</ele>
        <time>2020-01-26T16:01:57Z</time>
      </trkpt>
      <trkpt lat="44.5694" lon="1.35082">
        <ele>207.6</ele>
        <time>2020-01-26T16:02:01Z</time>
      </trkpt>
      <trkpt lat="44.56934" lon="1.35081">
        <ele>210.4</ele>
        <time>2020-01-26T16:02:06Z</time>
      </trkpt>
      <trkpt lat="44.56928" lon="1.35081">
        <ele>212</ele>
        <time>2020-01-26T16:02:10Z</time>
      </trkpt>
      <trkpt lat="44.56923" lon="1.35082">
        <ele>212.9</ele>
        <time>2020-01-26T16:02:14Z</time>
      </trkpt>
      <trkpt lat="44.56917" lon="1.35081">
        <ele>214.1</ele>
        <time>2020-01-26T16:02:18Z</time>
      </trkpt>
      <trkpt lat="44.56911" lon="1.35081">
        <ele>216</ele>
        <time>2020-01-26T16:02:22Z</time>
      </trkpt>
      <trkpt lat="44.56907" lon="1.35082">
        <ele>216.2</ele>
        <time>2020-01-26T16:02:26Z</time>
      </trkpt>
      <trkpt lat="44.56903" lon="1.35087">
        <ele>211.3</ele>
        <time>2020-01-26T16:02:34Z</time>
      </trkpt>
      <trkpt lat="44.56897" lon="1.35087">
        <ele>207.6</ele>
        <time>2020-01-26T16:02:39Z</time>
      </trkpt>
      <trkpt lat="44.56892" lon="1.35088">
        <ele>206</ele>
        <time>2020-01-26T16:02:43Z</time>
      </trkpt>
      <trkpt lat="44.56887" lon="1.35088">
        <ele>205.3</ele>
        <time>2020-01-26T16:02:47Z</time>
      </trkpt>
      <trkpt lat="44.56883" lon="1.35092">
        <ele>204.1</ele>
        <time>2020-01-26T16:02:52Z</time>
      </trkpt>
      <trkpt lat="44.56879" lon="1.35096">
        <ele>202.9</ele>
        <time>2020-01-26T16:02:57Z</time>
      </trkpt>
      <trkpt lat="44.56874" lon="1.35097">
        <ele>201.8</ele>
        <time>2020-01-26T16:03:02Z</time>
      </trkpt>
      <trkpt lat="44.5687" lon="1.351">
        <ele>201.1</ele>
        <time>2020-01-26T16:03:08Z</time>
      </trkpt>
      <trkpt lat="44.56865" lon="1.35102">
        <ele>202.2</ele>
        <time>2020-01-26T16:03:13Z</time>
      </trkpt>
      <trkpt lat="44.56861" lon="1.35106">
        <ele>201.7</ele>
        <time>2020-01-26T16:03:19Z</time>
      </trkpt>
      <trkpt lat="44.56855" lon="1.35109">
        <ele>201.9</ele>
        <time>2020-01-26T16:03:24Z</time>
      </trkpt>
      <trkpt lat="44.5685" lon="1.35112">
        <ele>201.7</ele>
        <time>2020-01-26T16:03:28Z</time>
      </trkpt>
      <trkpt lat="44.56844" lon="1.35114">
        <ele>202.4</ele>
        <time>2020-01-26T16:03:32Z</time>
      </trkpt>
      <trkpt lat="44.56839" lon="1.35117">
        <ele>203.3</ele>
        <time>2020-01-26T16:03:35Z</time>
      </trkpt>
      <trkpt lat="44.56835" lon="1.35119">
        <ele>204.6</ele>
        <time>2020-01-26T16:03:39Z</time>
      </trkpt>
      <trkpt lat="44.56833" lon="1.35125">
        <ele>201.7</ele>
        <time>2020-01-26T16:03:48Z</time>
      </trkpt>
      <trkpt lat="44.56828" lon="1.35127">
        <ele>202.6</ele>
        <time>2020-01-26T16:03:51Z</time>
      </trkpt>
      <trkpt lat="44.56824" lon="1.35131">
        <ele>202.6</ele>
        <time>2020-01-26T16:03:55Z</time>
      </trkpt>
      <trkpt lat="44.5682" lon="1.35133">
        <ele>203</ele>
        <time>2020-01-26T16:03:59Z</time>
      </trkpt>
      <trkpt lat="44.56815" lon="1.35136">
        <ele>203.9</ele>
        <time>2020-01-26T16:04:03Z</time>
      </trkpt>
      <trkpt lat="44.5681" lon="1.35138">
        <ele>203.4</ele>
        <time>2020-01-26T16:04:07Z</time>
      </trkpt>
      <trkpt lat="44.56806" lon="1.35142">
        <ele>202.7</ele>
        <time>2020-01-26T16:04:12Z</time>
      </trkpt>
      <trkpt lat="44.56801" lon="1.35143">
        <ele>201.7</ele>
        <time>2020-01-26T16:04:17Z</time>
      </trkpt>
      <trkpt lat="44.56796" lon="1.35145">
        <ele>202.2</ele>
        <time>2020-01-26T16:04:21Z</time>
      </trkpt>
      <trkpt lat="44.56791" lon="1.35146">
        <ele>202.3</ele>
        <time>2020-01-26T16:04:25Z</time>
      </trkpt>
      <trkpt lat="44.56785" lon="1.35149">
        <ele>201.8</ele>
        <time>2020-01-26T16:04:31Z</time>
      </trkpt>
      <trkpt lat="44.5678" lon="1.35149">
        <ele>201.5</ele>
        <time>2020-01-26T16:04:35Z</time>
      </trkpt>
      <trkpt lat="44.56775" lon="1.35149">
        <ele>201</ele>
        <time>2020-01-26T16:04:39Z</time>
      </trkpt>
      <trkpt lat="44.56769" lon="1.35149">
        <ele>200.6</ele>
        <time>2020-01-26T16:04:45Z</time>
      </trkpt>
      <trkpt lat="44.56763" lon="1.3515">
        <ele>200.7</ele>
        <time>2020-01-26T16:04:49Z</time>
      </trkpt>
      <trkpt lat="44.56757" lon="1.35149">
        <ele>199.4</ele>
        <time>2020-01-26T16:04:54Z</time>
      </trkpt>
      <trkpt lat="44.56753" lon="1.35152">
        <ele>196.9</ele>
        <time>2020-01-26T16:05:00Z</time>
      </trkpt>
      <trkpt lat="44.56748" lon="1.35152">
        <ele>196.7</ele>
        <time>2020-01-26T16:05:04Z</time>
      </trkpt>
      <trkpt lat="44.56743" lon="1.35151">
        <ele>197.5</ele>
        <time>2020-01-26T16:05:08Z</time>
      </trkpt>
      <trkpt lat="44.56738" lon="1.35151">
        <ele>197.6</ele>
        <time>2020-01-26T16:05:13Z</time>
      </trkpt>
      <trkpt lat="44.56733" lon="1.35151">
        <ele>197</ele>
        <time>2020-01-26T16:05:18Z</time>
      </trkpt>
      <trkpt lat="44.56728" lon="1.35152">
        <ele>195.7</ele>
        <time>2020-01-26T16:05:24Z</time>
      </trkpt>
      <trkpt lat="44.56723" lon="1.35153">
        <ele>194.8</ele>
        <time>2020-01-26T16:05:28Z</time>
      </trkpt>
      <trkpt lat="44.56718" lon="1.35151">
        <ele>193.9</ele>
        <time>2020-01-26T16:05:32Z</time>
      </trkpt>
      <trkpt lat="44.56712" lon="1.3515">
        <ele>192.6</ele>
        <time>2020-01-26T16:05:37Z</time>
      </trkpt>
      <trkpt lat="44.56707" lon="1.35147">
        <ele>192.2</ele>
        <time>2020-01-26T16:05:41Z</time>
      </trkpt>
      <trkpt lat="44.56701" lon="1.35146">
        <ele>191.9</ele>
        <time>2020-01-26T16:05:46Z</time>
      </trkpt>
      <trkpt lat="44.56696" lon="1.35144">
        <ele>193.1</ele>
        <time>2020-01-26T16:05:50Z</time>
      </trkpt>
      <trkpt lat="44.56691" lon="1.35142">
        <ele>194.3</ele>
        <time>2020-01-26T16:05:54Z</time>
      </trkpt>
      <trkpt lat="44.56686" lon="1.35142">
        <ele>196.9</ele>
        <time>2020-01-26T16:06:00Z</time>
      </trkpt>
      <trkpt lat="44.56681" lon="1.35141">
        <ele>197.7</ele>
        <time>2020-01-26T16:06:05Z</time>
      </trkpt>
      <trkpt lat="44.56676" lon="1.3514">
        <ele>198</ele>
        <time>2020-01-26T16:06:08Z</time>
      </trkpt>
      <trkpt lat="44.56672" lon="1.35136">
        <ele>198.6</ele>
        <time>2020-01-26T16:06:12Z</time>
      </trkpt>
      <trkpt lat="44.56667" lon="1.35135">
        <ele>198.3</ele>
        <time>2020-01-26T16:06:16Z</time>
      </trkpt>
      <trkpt lat="44.56662" lon="1.35134">
        <ele>198.5</ele>
        <time>2020-01-26T16:06:19Z</time>
      </trkpt>
      <trkpt lat="44.56657" lon="1.35133">
        <ele>199.6</ele>
        <time>2020-01-26T16:06:22Z</time>
      </trkpt>
      <trkpt lat="44.56652" lon="1.35132">
        <ele>201.2</ele>
        <time>2020-01-26T16:06:26Z</time>
      </trkpt>
      <trkpt lat="44.56647" lon="1.35131">
        <ele>202.5</ele>
        <time>2020-01-26T16:06:30Z</time>
      </trkpt>
      <trkpt lat="44.56641" lon="1.3513">
        <ele>202.4</ele>
        <time>2020-01-26T16:06:35Z</time>
      </trkpt>
      <trkpt lat="44.56637" lon="1.35128">
        <ele>200.9</ele>
        <time>2020-01-26T16:06:41Z</time>
      </trkpt>
      <trkpt lat="44.56632" lon="1.35127">
        <ele>199.3</ele>
        <time>2020-01-26T16:06:47Z</time>
      </trkpt>
      <trkpt lat="44.56626" lon="1.35126">
        <ele>197.6</ele>
        <time>2020-01-26T16:06:54Z</time>
      </trkpt>
      <trkpt lat="44.56621" lon="1.35127">
        <ele>197.2</ele>
        <time>2020-01-26T16:06:58Z</time>
      </trkpt>
      <trkpt lat="44.56617" lon="1.35127">
        <ele>197.4</ele>
        <time>2020-01-26T16:07:02Z</time>
      </trkpt>
      <trkpt lat="44.56612" lon="1.35128">
        <ele>197.5</ele>
        <time>2020-01-26T16:07:06Z</time>
      </trkpt>
      <trkpt lat="44.56607" lon="1.35128">
        <ele>198.1</ele>
        <time>2020-01-26T16:07:10Z</time>
      </trkpt>
      <trkpt lat="44.56602" lon="1.35127">
        <ele>197.3</ele>
        <time>2020-01-26T16:07:14Z</time>
      </trkpt>
      <trkpt lat="44.56598" lon="1.35122">
        <ele>196.3</ele>
        <time>2020-01-26T16:07:20Z</time>
      </trkpt>
      <trkpt lat="44.56596" lon="1.35117">
        <ele>194.7</ele>
        <time>2020-01-26T16:07:27Z</time>
      </trkpt>
      <trkpt lat="44.56594" lon="1.3511">
        <ele>193.4</ele>
        <time>2020-01-26T16:07:31Z</time>
      </trkpt>
      <trkpt lat="44.56592" lon="1.35103">
        <ele>193.3</ele>
        <time>2020-01-26T16:07:34Z</time>
      </trkpt>
      <trkpt lat="44.56591" lon="1.35096">
        <ele>193.1</ele>
        <time>2020-01-26T16:07:39Z</time>
      </trkpt>
      <trkpt lat="44.56589" lon="1.3509">
        <ele>193.2</ele>
        <time>2020-01-26T16:07:44Z</time>
      </trkpt>
      <trkpt lat="44.56586" lon="1.35084">
        <ele>192.8</ele>
        <time>2020-01-26T16:07:50Z</time>
      </trkpt>
      <trkpt lat="44.56582" lon="1.3508">
        <ele>191.1</ele>
        <time>2020-01-26T16:08:21Z</time>
      </trkpt>
      <trkpt lat="44.56578" lon="1.35076">
        <ele>190.3</ele>
        <time>2020-01-26T16:08:27Z</time>
      </trkpt>
      <trkpt lat="44.56574" lon="1.35077">
        <ele>192.6</ele>
        <time>2020-01-26T16:10:25Z</time>
      </trkpt>
      <trkpt lat="44.56569" lon="1.35075">
        <ele>191.3</ele>
        <time>2020-01-26T16:10:39Z</time>
      </trkpt>
      <trkpt lat="44.56564" lon="1.35073">
        <ele>190.3</ele>
        <time>2020-01-26T16:10:43Z</time>
      </trkpt>
      <trkpt lat="44.5656" lon="1.35069">
        <ele>190</ele>
        <time>2020-01-26T16:10:46Z</time>
      </trkpt>
      <trkpt lat="44.56554" lon="1.35066">
        <ele>191.5</ele>
        <time>2020-01-26T16:10:49Z</time>
      </trkpt>
      <trkpt lat="44.5655" lon="1.35062">
        <ele>191.8</ele>
        <time>2020-01-26T16:10:52Z</time>
      </trkpt>
      <trkpt lat="44.56545" lon="1.35059">
        <ele>191.5</ele>
        <time>2020-01-26T16:10:56Z</time>
      </trkpt>
      <trkpt lat="44.56541" lon="1.35056">
        <ele>190.9</ele>
        <time>2020-01-26T16:11:00Z</time>
      </trkpt>
      <trkpt lat="44.56537" lon="1.35052">
        <ele>189.6</ele>
        <time>2020-01-26T16:11:05Z</time>
      </trkpt>
      <trkpt lat="44.56532" lon="1.3505">
        <ele>189.7</ele>
        <time>2020-01-26T16:11:09Z</time>
      </trkpt>
      <trkpt lat="44.56528" lon="1.3505">
        <ele>190.1</ele>
        <time>2020-01-26T16:11:13Z</time>
      </trkpt>
      <trkpt lat="44.56523" lon="1.35048">
        <ele>189.6</ele>
        <time>2020-01-26T16:11:19Z</time>
      </trkpt>
      <trkpt lat="44.56518" lon="1.35044">
        <ele>187.8</ele>
        <time>2020-01-26T16:11:25Z</time>
      </trkpt>
      <trkpt lat="44.56513" lon="1.35042">
        <ele>186.8</ele>
        <time>2020-01-26T16:11:30Z</time>
      </trkpt>
      <trkpt lat="44.56508" lon="1.35039">
        <ele>186.5</ele>
        <time>2020-01-26T16:11:35Z</time>
      </trkpt>
      <trkpt lat="44.56504" lon="1.35035">
        <ele>186.1</ele>
        <time>2020-01-26T16:11:39Z</time>
      </trkpt>
      <trkpt lat="44.565" lon="1.35032">
        <ele>185.2</ele>
        <time>2020-01-26T16:11:43Z</time>
      </trkpt>
      <trkpt lat="44.56496" lon="1.35029">
        <ele>185</ele>
        <time>2020-01-26T16:11:47Z</time>
      </trkpt>
      <trkpt lat="44.56492" lon="1.35026">
        <ele>184.7</ele>
        <time>2020-01-26T16:11:52Z</time>
      </trkpt>
      <trkpt lat="44.56488" lon="1.35023">
        <ele>184.5</ele>
        <time>2020-01-26T16:11:56Z</time>
      </trkpt>
      <trkpt lat="44.56483" lon="1.3502">
        <ele>183.4</ele>
        <time>2020-01-26T16:12:02Z</time>
      </trkpt>
      <trkpt lat="44.56477" lon="1.35017">
        <ele>184.3</ele>
        <time>2020-01-26T16:12:06Z</time>
      </trkpt>
      <trkpt lat="44.56474" lon="1.35014">
        <ele>184.3</ele>
        <time>2020-01-26T16:12:09Z</time>
      </trkpt>
      <trkpt lat="44.56469" lon="1.3501">
        <ele>184.7</ele>
        <time>2020-01-26T16:12:12Z</time>
      </trkpt>
      <trkpt lat="44.56465" lon="1.35006">
        <ele>185.1</ele>
        <time>2020-01-26T16:12:16Z</time>
      </trkpt>
      <trkpt lat="44.5646" lon="1.35002">
        <ele>185.6</ele>
        <time>2020-01-26T16:12:20Z</time>
      </trkpt>
      <trkpt lat="44.56455" lon="1.34998">
        <ele>185.2</ele>
        <time>2020-01-26T16:12:25Z</time>
      </trkpt>
      <trkpt lat="44.5645" lon="1.34994">
        <ele>185</ele>
        <time>2020-01-26T16:12:29Z</time>
      </trkpt>
      <trkpt lat="44.56445" lon="1.34991">
        <ele>184.4</ele>
        <time>2020-01-26T16:12:34Z</time>
      </trkpt>
      <trkpt lat="44.56441" lon="1.34988">
        <ele>184.9</ele>
        <time>2020-01-26T16:12:38Z</time>
      </trkpt>
      <trkpt lat="44.56436" lon="1.34984">
        <ele>185.2</ele>
        <time>2020-01-26T16:12:42Z</time>
      </trkpt>
      <trkpt lat="44.56432" lon="1.3498">
        <ele>185</ele>
        <time>2020-01-26T16:12:45Z</time>
      </trkpt>
      <trkpt lat="44.56428" lon="1.34977">
        <ele>184.5</ele>
        <time>2020-01-26T16:12:49Z</time>
      </trkpt>
      <trkpt lat="44.56423" lon="1.34976">
        <ele>184.5</ele>
        <time>2020-01-26T16:12:53Z</time>
      </trkpt>
      <trkpt lat="44.56418" lon="1.34974">
        <ele>184.9</ele>
        <time>2020-01-26T16:12:57Z</time>
      </trkpt>
      <trkpt lat="44.56414" lon="1.34972">
        <ele>185.5</ele>
        <time>2020-01-26T16:13:01Z</time>
      </trkpt>
      <trkpt lat="44.56409" lon="1.34971">
        <ele>185.4</ele>
        <time>2020-01-26T16:13:06Z</time>
      </trkpt>
      <trkpt lat="44.56404" lon="1.3497">
        <ele>185.7</ele>
        <time>2020-01-26T16:13:10Z</time>
      </trkpt>
      <trkpt lat="44.56399" lon="1.34968">
        <ele>187.3</ele>
        <time>2020-01-26T16:13:13Z</time>
      </trkpt>
      <trkpt lat="44.56394" lon="1.34967">
        <ele>188.5</ele>
        <time>2020-01-26T16:13:17Z</time>
      </trkpt>
      <trkpt lat="44.5639" lon="1.34965">
        <ele>189.1</ele>
        <time>2020-01-26T16:13:21Z</time>
      </trkpt>
      <trkpt lat="44.56385" lon="1.34964">
        <ele>190</ele>
        <time>2020-01-26T16:13:25Z</time>
      </trkpt>
      <trkpt lat="44.5638" lon="1.34964">
        <ele>190.1</ele>
        <time>2020-01-26T16:13:29Z</time>
      </trkpt>
      <trkpt lat="44.56375" lon="1.34964">
        <ele>187.8</ele>
        <time>2020-01-26T16:13:35Z</time>
      </trkpt>
      <trkpt lat="44.56371" lon="1.34963">
        <ele>186.1</ele>
        <time>2020-01-26T16:13:40Z</time>
      </trkpt>
      <trkpt lat="44.56365" lon="1.34962">
        <ele>186.6</ele>
        <time>2020-01-26T16:13:43Z</time>
      </trkpt>
      <trkpt lat="44.56361" lon="1.34961">
        <ele>187</ele>
        <time>2020-01-26T16:13:47Z</time>
      </trkpt>
      <trkpt lat="44.56355" lon="1.34961">
        <ele>188.1</ele>
        <time>2020-01-26T16:13:51Z</time>
      </trkpt>
      <trkpt lat="44.5635" lon="1.34962">
        <ele>188.8</ele>
        <time>2020-01-26T16:13:56Z</time>
      </trkpt>
      <trkpt lat="44.56345" lon="1.34963">
        <ele>189</ele>
        <time>2020-01-26T16:14:00Z</time>
      </trkpt>
      <trkpt lat="44.5634" lon="1.34963">
        <ele>189.9</ele>
        <time>2020-01-26T16:14:03Z</time>
      </trkpt>
      <trkpt lat="44.56335" lon="1.34963">
        <ele>190.4</ele>
        <time>2020-01-26T16:14:06Z</time>
      </trkpt>
      <trkpt lat="44.5633" lon="1.34963">
        <ele>189.5</ele>
        <time>2020-01-26T16:14:11Z</time>
      </trkpt>
      <trkpt lat="44.56325" lon="1.34963">
        <ele>189.5</ele>
        <time>2020-01-26T16:14:15Z</time>
      </trkpt>
      <trkpt lat="44.5632" lon="1.34964">
        <ele>189</ele>
        <time>2020-01-26T16:14:19Z</time>
      </trkpt>
      <trkpt lat="44.56316" lon="1.34964">
        <ele>189.4</ele>
        <time>2020-01-26T16:14:23Z</time>
      </trkpt>
      <trkpt lat="44.56311" lon="1.34965">
        <ele>189.2</ele>
        <time>2020-01-26T16:14:27Z</time>
      </trkpt>
      <trkpt lat="44.56306" lon="1.34965">
        <ele>189.9</ele>
        <time>2020-01-26T16:14:30Z</time>
      </trkpt>
      <trkpt lat="44.563" lon="1.34965">
        <ele>191.1</ele>
        <time>2020-01-26T16:14:34Z</time>
      </trkpt>
      <trkpt lat="44.56295" lon="1.34967">
        <ele>189.9</ele>
        <time>2020-01-26T16:14:39Z</time>
      </trkpt>
      <trkpt lat="44.5629" lon="1.34967">
        <ele>189.8</ele>
        <time>2020-01-26T16:14:43Z</time>
      </trkpt>
      <trkpt lat="44.56285" lon="1.34966">
        <ele>188.9</ele>
        <time>2020-01-26T16:14:48Z</time>
      </trkpt>
      <trkpt lat="44.56279" lon="1.34966">
        <ele>187.4</ele>
        <time>2020-01-26T16:14:53Z</time>
      </trkpt>
      <trkpt lat="44.56274" lon="1.34965">
        <ele>186.4</ele>
        <time>2020-01-26T16:14:57Z</time>
      </trkpt>
      <trkpt lat="44.56269" lon="1.34964">
        <ele>185.3</ele>
        <time>2020-01-26T16:15:02Z</time>
      </trkpt>
      <trkpt lat="44.56265" lon="1.34964">
        <ele>184.7</ele>
        <time>2020-01-26T16:15:06Z</time>
      </trkpt>
      <trkpt lat="44.5626" lon="1.34965">
        <ele>182.7</ele>
        <time>2020-01-26T16:15:10Z</time>
      </trkpt>
      <trkpt lat="44.56255" lon="1.34964">
        <ele>181.8</ele>
        <time>2020-01-26T16:15:14Z</time>
      </trkpt>
      <trkpt lat="44.5625" lon="1.34964">
        <ele>181.9</ele>
        <time>2020-01-26T16:15:18Z</time>
      </trkpt>
      <trkpt lat="44.56244" lon="1.34964">
        <ele>183.2</ele>
        <time>2020-01-26T16:15:22Z</time>
      </trkpt>
      <trkpt lat="44.56239" lon="1.34965">
        <ele>182.6</ele>
        <time>2020-01-26T16:15:27Z</time>
      </trkpt>
      <trkpt lat="44.56235" lon="1.34965">
        <ele>181.6</ele>
        <time>2020-01-26T16:15:31Z</time>
      </trkpt>
      <trkpt lat="44.56229" lon="1.34966">
        <ele>181</ele>
        <time>2020-01-26T16:15:36Z</time>
      </trkpt>
      <trkpt lat="44.56224" lon="1.34967">
        <ele>180.7</ele>
        <time>2020-01-26T16:15:40Z</time>
      </trkpt>
      <trkpt lat="44.56218" lon="1.34967">
        <ele>179.9</ele>
        <time>2020-01-26T16:15:45Z</time>
      </trkpt>
      <trkpt lat="44.56213" lon="1.34966">
        <ele>179.9</ele>
        <time>2020-01-26T16:15:49Z</time>
      </trkpt>
      <trkpt lat="44.56208" lon="1.34965">
        <ele>180.5</ele>
        <time>2020-01-26T16:15:53Z</time>
      </trkpt>
      <trkpt lat="44.56202" lon="1.34964">
        <ele>182.2</ele>
        <time>2020-01-26T16:15:57Z</time>
      </trkpt>
      <trkpt lat="44.56197" lon="1.34964">
        <ele>182.9</ele>
        <time>2020-01-26T16:16:01Z</time>
      </trkpt>
      <trkpt lat="44.56193" lon="1.34965">
        <ele>182.9</ele>
        <time>2020-01-26T16:16:05Z</time>
      </trkpt>
      <trkpt lat="44.56187" lon="1.34966">
        <ele>182.2</ele>
        <time>2020-01-26T16:16:10Z</time>
      </trkpt>
      <trkpt lat="44.56183" lon="1.34966">
        <ele>181.6</ele>
        <time>2020-01-26T16:16:14Z</time>
      </trkpt>
      <trkpt lat="44.56177" lon="1.34965">
        <ele>180.6</ele>
        <time>2020-01-26T16:16:19Z</time>
      </trkpt>
      <trkpt lat="44.56173" lon="1.34966">
        <ele>180.3</ele>
        <time>2020-01-26T16:16:23Z</time>
      </trkpt>
      <trkpt lat="44.56168" lon="1.34966">
        <ele>180.7</ele>
        <time>2020-01-26T16:16:27Z</time>
      </trkpt>
      <trkpt lat="44.56163" lon="1.34965">
        <ele>180.8</ele>
        <time>2020-01-26T16:16:31Z</time>
      </trkpt>
      <trkpt lat="44.56157" lon="1.34964">
        <ele>180.9</ele>
        <time>2020-01-26T16:16:35Z</time>
      </trkpt>
      <trkpt lat="44.56152" lon="1.34962">
        <ele>181</ele>
        <time>2020-01-26T16:16:39Z</time>
      </trkpt>
      <trkpt lat="44.56147" lon="1.34959">
        <ele>180.3</ele>
        <time>2020-01-26T16:16:44Z</time>
      </trkpt>
      <trkpt lat="44.56141" lon="1.34958">
        <ele>180</ele>
        <time>2020-01-26T16:16:49Z</time>
      </trkpt>
      <trkpt lat="44.56136" lon="1.34958">
        <ele>177.9</ele>
        <time>2020-01-26T16:16:55Z</time>
      </trkpt>
      <trkpt lat="44.56131" lon="1.34958">
        <ele>177.7</ele>
        <time>2020-01-26T16:16:59Z</time>
      </trkpt>
      <trkpt lat="44.56126" lon="1.34958">
        <ele>178.1</ele>
        <time>2020-01-26T16:17:03Z</time>
      </trkpt>
      <trkpt lat="44.56121" lon="1.34958">
        <ele>178.7</ele>
        <time>2020-01-26T16:17:07Z</time>
      </trkpt>
      <trkpt lat="44.56116" lon="1.34956">
        <ele>178.3</ele>
        <time>2020-01-26T16:17:11Z</time>
      </trkpt>
      <trkpt lat="44.56111" lon="1.34954">
        <ele>178.2</ele>
        <time>2020-01-26T16:17:15Z</time>
      </trkpt>
      <trkpt lat="44.56107" lon="1.34953">
        <ele>178.1</ele>
        <time>2020-01-26T16:17:19Z</time>
      </trkpt>
      <trkpt lat="44.56101" lon="1.34953">
        <ele>179.2</ele>
        <time>2020-01-26T16:17:23Z</time>
      </trkpt>
      <trkpt lat="44.56095" lon="1.34954">
        <ele>180.2</ele>
        <time>2020-01-26T16:17:28Z</time>
      </trkpt>
      <trkpt lat="44.5609" lon="1.34955">
        <ele>181.4</ele>
        <time>2020-01-26T16:17:32Z</time>
      </trkpt>
      <trkpt lat="44.56086" lon="1.34955">
        <ele>181.6</ele>
        <time>2020-01-26T16:17:36Z</time>
      </trkpt>
      <trkpt lat="44.56081" lon="1.34955">
        <ele>182.2</ele>
        <time>2020-01-26T16:17:40Z</time>
      </trkpt>
      <trkpt lat="44.56076" lon="1.34953">
        <ele>181.4</ele>
        <time>2020-01-26T16:17:44Z</time>
      </trkpt>
      <trkpt lat="44.56072" lon="1.34953">
        <ele>179.4</ele>
        <time>2020-01-26T16:17:50Z</time>
      </trkpt>
      <trkpt lat="44.56066" lon="1.34952">
        <ele>179.4</ele>
        <time>2020-01-26T16:17:54Z</time>
      </trkpt>
      <trkpt lat="44.56062" lon="1.34952">
        <ele>179.9</ele>
        <time>2020-01-26T16:17:57Z</time>
      </trkpt>
      <trkpt lat="44.56057" lon="1.34952">
        <ele>180.3</ele>
        <time>2020-01-26T16:18:01Z</time>
      </trkpt>
      <trkpt lat="44.56051" lon="1.34951">
        <ele>181.8</ele>
        <time>2020-01-26T16:18:05Z</time>
      </trkpt>
      <trkpt lat="44.56046" lon="1.3495">
        <ele>182.4</ele>
        <time>2020-01-26T16:18:09Z</time>
      </trkpt>
      <trkpt lat="44.56041" lon="1.3495">
        <ele>182.4</ele>
        <time>2020-01-26T16:18:13Z</time>
      </trkpt>
      <trkpt lat="44.56037" lon="1.34948">
        <ele>181.8</ele>
        <time>2020-01-26T16:18:17Z</time>
      </trkpt>
      <trkpt lat="44.56031" lon="1.34947">
        <ele>181.1</ele>
        <time>2020-01-26T16:18:21Z</time>
      </trkpt>
      <trkpt lat="44.56026" lon="1.34947">
        <ele>180.6</ele>
        <time>2020-01-26T16:18:25Z</time>
      </trkpt>
      <trkpt lat="44.56021" lon="1.34948">
        <ele>180.4</ele>
        <time>2020-01-26T16:18:29Z</time>
      </trkpt>
      <trkpt lat="44.56016" lon="1.34948">
        <ele>178.8</ele>
        <time>2020-01-26T16:18:34Z</time>
      </trkpt>
      <trkpt lat="44.56011" lon="1.34948">
        <ele>178.2</ele>
        <time>2020-01-26T16:18:38Z</time>
      </trkpt>
      <trkpt lat="44.56006" lon="1.34947">
        <ele>178.1</ele>
        <time>2020-01-26T16:18:42Z</time>
      </trkpt>
      <trkpt lat="44.56002" lon="1.34946">
        <ele>177.6</ele>
        <time>2020-01-26T16:18:46Z</time>
      </trkpt>
      <trkpt lat="44.55997" lon="1.34947">
        <ele>177.1</ele>
        <time>2020-01-26T16:18:50Z</time>
      </trkpt>
      <trkpt lat="44.55992" lon="1.34946">
        <ele>176.7</ele>
        <time>2020-01-26T16:18:54Z</time>
      </trkpt>
      <trkpt lat="44.55987" lon="1.34946">
        <ele>176.5</ele>
        <time>2020-01-26T16:18:58Z</time>
      </trkpt>
      <trkpt lat="44.55982" lon="1.34945">
        <ele>176.5</ele>
        <time>2020-01-26T16:19:02Z</time>
      </trkpt>
      <trkpt lat="44.55978" lon="1.34944">
        <ele>176.8</ele>
        <time>2020-01-26T16:19:06Z</time>
      </trkpt>
      <trkpt lat="44.55973" lon="1.34943">
        <ele>177.2</ele>
        <time>2020-01-26T16:19:10Z</time>
      </trkpt>
      <trkpt lat="44.55968" lon="1.34944">
        <ele>176.8</ele>
        <time>2020-01-26T16:19:14Z</time>
      </trkpt>
      <trkpt lat="44.55963" lon="1.34943">
        <ele>176.7</ele>
        <time>2020-01-26T16:19:18Z</time>
      </trkpt>
      <trkpt lat="44.55958" lon="1.34943">
        <ele>176.6</ele>
        <time>2020-01-26T16:19:22Z</time>
      </trkpt>
      <trkpt lat="44.55952" lon="1.34943">
        <ele>176.7</ele>
        <time>2020-01-26T16:19:27Z</time>
      </trkpt>
      <trkpt lat="44.55947" lon="1.34942">
        <ele>177.1</ele>
        <time>2020-01-26T16:19:31Z</time>
      </trkpt>
      <trkpt lat="44.55942" lon="1.34941">
        <ele>175.7</ele>
        <time>2020-01-26T16:19:36Z</time>
      </trkpt>
      <trkpt lat="44.55936" lon="1.34942">
        <ele>173.5</ele>
        <time>2020-01-26T16:19:41Z</time>
      </trkpt>
      <trkpt lat="44.5593" lon="1.34942">
        <ele>172.5</ele>
        <time>2020-01-26T16:19:45Z</time>
      </trkpt>
      <trkpt lat="44.55926" lon="1.34943">
        <ele>171.8</ele>
        <time>2020-01-26T16:19:49Z</time>
      </trkpt>
      <trkpt lat="44.55921" lon="1.34944">
        <ele>171.1</ele>
        <time>2020-01-26T16:19:54Z</time>
      </trkpt>
      <trkpt lat="44.55916" lon="1.34945">
        <ele>171.1</ele>
        <time>2020-01-26T16:19:58Z</time>
      </trkpt>
      <trkpt lat="44.55911" lon="1.34947">
        <ele>171.6</ele>
        <time>2020-01-26T16:20:02Z</time>
      </trkpt>
      <trkpt lat="44.55905" lon="1.34949">
        <ele>172.6</ele>
        <time>2020-01-26T16:20:06Z</time>
      </trkpt>
      <trkpt lat="44.559" lon="1.34951">
        <ele>174.1</ele>
        <time>2020-01-26T16:20:10Z</time>
      </trkpt>
      <trkpt lat="44.55895" lon="1.34953">
        <ele>175.5</ele>
        <time>2020-01-26T16:20:15Z</time>
      </trkpt>
      <trkpt lat="44.55891" lon="1.34956">
        <ele>179.4</ele>
        <time>2020-01-26T16:20:27Z</time>
      </trkpt>
      <trkpt lat="44.55888" lon="1.34962">
        <ele>177.8</ele>
        <time>2020-01-26T16:20:45Z</time>
      </trkpt>
      <trkpt lat="44.55884" lon="1.34964">
        <ele>175.3</ele>
        <time>2020-01-26T16:22:14Z</time>
      </trkpt>
      <trkpt lat="44.55879" lon="1.34968">
        <ele>176.4</ele>
        <time>2020-01-26T16:22:19Z</time>
      </trkpt>
      <trkpt lat="44.55874" lon="1.3497">
        <ele>176.5</ele>
        <time>2020-01-26T16:22:24Z</time>
      </trkpt>
      <trkpt lat="44.55869" lon="1.34972">
        <ele>176.5</ele>
        <time>2020-01-26T16:22:28Z</time>
      </trkpt>
      <trkpt lat="44.55865" lon="1.34975">
        <ele>176.5</ele>
        <time>2020-01-26T16:22:32Z</time>
      </trkpt>
      <trkpt lat="44.5586" lon="1.34978">
        <ele>176.4</ele>
        <time>2020-01-26T16:22:36Z</time>
      </trkpt>
      <trkpt lat="44.55856" lon="1.34982">
        <ele>176.3</ele>
        <time>2020-01-26T16:22:41Z</time>
      </trkpt>
      <trkpt lat="44.55851" lon="1.34983">
        <ele>176.5</ele>
        <time>2020-01-26T16:22:45Z</time>
      </trkpt>
      <trkpt lat="44.55846" lon="1.34984">
        <ele>176.6</ele>
        <time>2020-01-26T16:22:50Z</time>
      </trkpt>
      <trkpt lat="44.55841" lon="1.34986">
        <ele>176.4</ele>
        <time>2020-01-26T16:22:56Z</time>
      </trkpt>
      <trkpt lat="44.55837" lon="1.34989">
        <ele>177.2</ele>
        <time>2020-01-26T16:23:01Z</time>
      </trkpt>
      <trkpt lat="44.55832" lon="1.34992">
        <ele>178</ele>
        <time>2020-01-26T16:23:05Z</time>
      </trkpt>
      <trkpt lat="44.55826" lon="1.34995">
        <ele>179.2</ele>
        <time>2020-01-26T16:23:09Z</time>
      </trkpt>
      <trkpt lat="44.55821" lon="1.34998">
        <ele>178.8</ele>
        <time>2020-01-26T16:23:13Z</time>
      </trkpt>
      <trkpt lat="44.55817" lon="1.35001">
        <ele>178.2</ele>
        <time>2020-01-26T16:23:17Z</time>
      </trkpt>
      <trkpt lat="44.55812" lon="1.35004">
        <ele>177.2</ele>
        <time>2020-01-26T16:23:21Z</time>
      </trkpt>
      <trkpt lat="44.55808" lon="1.35007">
        <ele>176.7</ele>
        <time>2020-01-26T16:23:25Z</time>
      </trkpt>
      <trkpt lat="44.55803" lon="1.35011">
        <ele>176.7</ele>
        <time>2020-01-26T16:23:29Z</time>
      </trkpt>
      <trkpt lat="44.55797" lon="1.35015">
        <ele>176.9</ele>
        <time>2020-01-26T16:23:33Z</time>
      </trkpt>
      <trkpt lat="44.55792" lon="1.35017">
        <ele>177.7</ele>
        <time>2020-01-26T16:23:36Z</time>
      </trkpt>
      <trkpt lat="44.55787" lon="1.35019">
        <ele>178.8</ele>
        <time>2020-01-26T16:23:39Z</time>
      </trkpt>
      <trkpt lat="44.55783" lon="1.35021">
        <ele>178.6</ele>
        <time>2020-01-26T16:23:43Z</time>
      </trkpt>
      <trkpt lat="44.55779" lon="1.35024">
        <ele>177.8</ele>
        <time>2020-01-26T16:23:47Z</time>
      </trkpt>
      <trkpt lat="44.55773" lon="1.35027">
        <ele>177.6</ele>
        <time>2020-01-26T16:23:55Z</time>
      </trkpt>
      <trkpt lat="44.55768" lon="1.3503">
        <ele>178</ele>
        <time>2020-01-26T16:23:59Z</time>
      </trkpt>
      <trkpt lat="44.55763" lon="1.35033">
        <ele>179.5</ele>
        <time>2020-01-26T16:24:04Z</time>
      </trkpt>
      <trkpt lat="44.55759" lon="1.35034">
        <ele>179.7</ele>
        <time>2020-01-26T16:24:07Z</time>
      </trkpt>
      <trkpt lat="44.55754" lon="1.35038">
        <ele>179</ele>
        <time>2020-01-26T16:24:11Z</time>
      </trkpt>
      <trkpt lat="44.55749" lon="1.35041">
        <ele>178</ele>
        <time>2020-01-26T16:24:15Z</time>
      </trkpt>
      <trkpt lat="44.55744" lon="1.35044">
        <ele>176.5</ele>
        <time>2020-01-26T16:24:20Z</time>
      </trkpt>
      <trkpt lat="44.5574" lon="1.35047">
        <ele>176</ele>
        <time>2020-01-26T16:24:25Z</time>
      </trkpt>
      <trkpt lat="44.55736" lon="1.3505">
        <ele>173.4</ele>
        <time>2020-01-26T16:24:31Z</time>
      </trkpt>
      <trkpt lat="44.55731" lon="1.35053">
        <ele>173.4</ele>
        <time>2020-01-26T16:24:35Z</time>
      </trkpt>
      <trkpt lat="44.55727" lon="1.35056">
        <ele>173.2</ele>
        <time>2020-01-26T16:24:39Z</time>
      </trkpt>
      <trkpt lat="44.55722" lon="1.35059">
        <ele>172.8</ele>
        <time>2020-01-26T16:24:44Z</time>
      </trkpt>
      <trkpt lat="44.55717" lon="1.35062">
        <ele>172.2</ele>
        <time>2020-01-26T16:24:49Z</time>
      </trkpt>
      <trkpt lat="44.55713" lon="1.35066">
        <ele>171</ele>
        <time>2020-01-26T16:24:54Z</time>
      </trkpt>
      <trkpt lat="44.55709" lon="1.3507">
        <ele>170.3</ele>
        <time>2020-01-26T16:24:57Z</time>
      </trkpt>
      <trkpt lat="44.55704" lon="1.35073">
        <ele>169.8</ele>
        <time>2020-01-26T16:25:01Z</time>
      </trkpt>
      <trkpt lat="44.55699" lon="1.35076">
        <ele>169.2</ele>
        <time>2020-01-26T16:25:05Z</time>
      </trkpt>
      <trkpt lat="44.55695" lon="1.35076">
        <ele>168.9</ele>
        <time>2020-01-26T16:25:09Z</time>
      </trkpt>
      <trkpt lat="44.5569" lon="1.35074">
        <ele>168.8</ele>
        <time>2020-01-26T16:25:13Z</time>
      </trkpt>
      <trkpt lat="44.55686" lon="1.35069">
        <ele>168.8</ele>
        <time>2020-01-26T16:25:18Z</time>
      </trkpt>
      <trkpt lat="44.55683" lon="1.35064">
        <ele>169.2</ele>
        <time>2020-01-26T16:25:21Z</time>
      </trkpt>
      <trkpt lat="44.5568" lon="1.35058">
        <ele>169.7</ele>
        <time>2020-01-26T16:25:25Z</time>
      </trkpt>
      <trkpt lat="44.55678" lon="1.35053">
        <ele>169.8</ele>
        <time>2020-01-26T16:25:29Z</time>
      </trkpt>
      <trkpt lat="44.55674" lon="1.35048">
        <ele>168.7</ele>
        <time>2020-01-26T16:25:35Z</time>
      </trkpt>
      <trkpt lat="44.55669" lon="1.35044">
        <ele>168.5</ele>
        <time>2020-01-26T16:25:39Z</time>
      </trkpt>
      <trkpt lat="44.55664" lon="1.35041">
        <ele>169</ele>
        <time>2020-01-26T16:25:43Z</time>
      </trkpt>
      <trkpt lat="44.55659" lon="1.35042">
        <ele>171.2</ele>
        <time>2020-01-26T16:25:48Z</time>
      </trkpt>
      <trkpt lat="44.55654" lon="1.35043">
        <ele>171.7</ele>
        <time>2020-01-26T16:25:53Z</time>
      </trkpt>
      <trkpt lat="44.55649" lon="1.35045">
        <ele>171.6</ele>
        <time>2020-01-26T16:25:59Z</time>
      </trkpt>
      <trkpt lat="44.55644" lon="1.35045">
        <ele>173.1</ele>
        <time>2020-01-26T16:26:04Z</time>
      </trkpt>
      <trkpt lat="44.55639" lon="1.35046">
        <ele>174.9</ele>
        <time>2020-01-26T16:26:09Z</time>
      </trkpt>
      <trkpt lat="44.55634" lon="1.35046">
        <ele>176.2</ele>
        <time>2020-01-26T16:26:14Z</time>
      </trkpt>
      <trkpt lat="44.55629" lon="1.35047">
        <ele>176.3</ele>
        <time>2020-01-26T16:26:20Z</time>
      </trkpt>
      <trkpt lat="44.55624" lon="1.35045">
        <ele>176.9</ele>
        <time>2020-01-26T16:26:27Z</time>
      </trkpt>
      <trkpt lat="44.5562" lon="1.3504">
        <ele>177</ele>
        <time>2020-01-26T16:26:33Z</time>
      </trkpt>
      <trkpt lat="44.55618" lon="1.35034">
        <ele>177</ele>
        <time>2020-01-26T16:26:38Z</time>
      </trkpt>
      <trkpt lat="44.55615" lon="1.35029">
        <ele>178.6</ele>
        <time>2020-01-26T16:26:42Z</time>
      </trkpt>
      <trkpt lat="44.55613" lon="1.35023">
        <ele>179.8</ele>
        <time>2020-01-26T16:26:49Z</time>
      </trkpt>
      <trkpt lat="44.55614" lon="1.35016">
        <ele>179.1</ele>
        <time>2020-01-26T16:27:03Z</time>
      </trkpt>
      <trkpt lat="44.55615" lon="1.35009">
        <ele>177.3</ele>
        <time>2020-01-26T16:27:09Z</time>
      </trkpt>
      <trkpt lat="44.55614" lon="1.35002">
        <ele>174.5</ele>
        <time>2020-01-26T16:27:13Z</time>
      </trkpt>
      <trkpt lat="44.55612" lon="1.34995">
        <ele>171.6</ele>
        <time>2020-01-26T16:27:18Z</time>
      </trkpt>
      <trkpt lat="44.55612" lon="1.34987">
        <ele>169.1</ele>
        <time>2020-01-26T16:27:23Z</time>
      </trkpt>
      <trkpt lat="44.55611" lon="1.3498">
        <ele>167.3</ele>
        <time>2020-01-26T16:27:29Z</time>
      </trkpt>
      <trkpt lat="44.55613" lon="1.34974">
        <ele>167.5</ele>
        <time>2020-01-26T16:27:34Z</time>
      </trkpt>
      <trkpt lat="44.55612" lon="1.34966">
        <ele>169.6</ele>
        <time>2020-01-26T16:27:38Z</time>
      </trkpt>
      <trkpt lat="44.55614" lon="1.3496">
        <ele>171.6</ele>
        <time>2020-01-26T16:27:42Z</time>
      </trkpt>
      <trkpt lat="44.55613" lon="1.34953">
        <ele>173.7</ele>
        <time>2020-01-26T16:27:48Z</time>
      </trkpt>
      <trkpt lat="44.5561" lon="1.34946">
        <ele>175.1</ele>
        <time>2020-01-26T16:27:53Z</time>
      </trkpt>
      <trkpt lat="44.55609" lon="1.3494">
        <ele>176</ele>
        <time>2020-01-26T16:27:57Z</time>
      </trkpt>
      <trkpt lat="44.55608" lon="1.34933">
        <ele>177.4</ele>
        <time>2020-01-26T16:28:02Z</time>
      </trkpt>
      <trkpt lat="44.55606" lon="1.34927">
        <ele>178</ele>
        <time>2020-01-26T16:28:06Z</time>
      </trkpt>
      <trkpt lat="44.55603" lon="1.34921">
        <ele>179.1</ele>
        <time>2020-01-26T16:28:12Z</time>
      </trkpt>
      <trkpt lat="44.55601" lon="1.34914">
        <ele>179.2</ele>
        <time>2020-01-26T16:28:18Z</time>
      </trkpt>
      <trkpt lat="44.556" lon="1.34907">
        <ele>178.9</ele>
        <time>2020-01-26T16:28:23Z</time>
      </trkpt>
      <trkpt lat="44.55598" lon="1.349">
        <ele>179</ele>
        <time>2020-01-26T16:28:29Z</time>
      </trkpt>
      <trkpt lat="44.55596" lon="1.34894">
        <ele>178.5</ele>
        <time>2020-01-26T16:28:34Z</time>
      </trkpt>
      <trkpt lat="44.55596" lon="1.34887">
        <ele>176.8</ele>
        <time>2020-01-26T16:28:39Z</time>
      </trkpt>
      <trkpt lat="44.55596" lon="1.34879">
        <ele>177</ele>
        <time>2020-01-26T16:28:42Z</time>
      </trkpt>
      <trkpt lat="44.55593" lon="1.34873">
        <ele>177</ele>
        <time>2020-01-26T16:28:47Z</time>
      </trkpt>
      <trkpt lat="44.5559" lon="1.34868">
        <ele>175.8</ele>
        <time>2020-01-26T16:28:52Z</time>
      </trkpt>
      <trkpt lat="44.55589" lon="1.34862">
        <ele>174</ele>
        <time>2020-01-26T16:28:57Z</time>
      </trkpt>
      <trkpt lat="44.55587" lon="1.34854">
        <ele>172.3</ele>
        <time>2020-01-26T16:29:02Z</time>
      </trkpt>
      <trkpt lat="44.55588" lon="1.34846">
        <ele>173.6</ele>
        <time>2020-01-26T16:29:05Z</time>
      </trkpt>
      <trkpt lat="44.55588" lon="1.34838">
        <ele>174.6</ele>
        <time>2020-01-26T16:29:09Z</time>
      </trkpt>
      <trkpt lat="44.55586" lon="1.34832">
        <ele>175.1</ele>
        <time>2020-01-26T16:29:15Z</time>
      </trkpt>
      <trkpt lat="44.55586" lon="1.34825">
        <ele>176.4</ele>
        <time>2020-01-26T16:29:22Z</time>
      </trkpt>
      <trkpt lat="44.55583" lon="1.3482">
        <ele>177</ele>
        <time>2020-01-26T16:29:27Z</time>
      </trkpt>
      <trkpt lat="44.55584" lon="1.34813">
        <ele>177.9</ele>
        <time>2020-01-26T16:29:32Z</time>
      </trkpt>
      <trkpt lat="44.55586" lon="1.34807">
        <ele>179.5</ele>
        <time>2020-01-26T16:29:36Z</time>
      </trkpt>
      <trkpt lat="44.55586" lon="1.348">
        <ele>180.6</ele>
        <time>2020-01-26T16:29:40Z</time>
      </trkpt>
      <trkpt lat="44.55586" lon="1.34794">
        <ele>181.5</ele>
        <time>2020-01-26T16:29:46Z</time>
      </trkpt>
      <trkpt lat="44.55585" lon="1.34787">
        <ele>181.2</ele>
        <time>2020-01-26T16:29:53Z</time>
      </trkpt>
      <trkpt lat="44.55585" lon="1.3478">
        <ele>181.5</ele>
        <time>2020-01-26T16:30:01Z</time>
      </trkpt>
      <trkpt lat="44.55584" lon="1.34773">
        <ele>180.8</ele>
        <time>2020-01-26T16:30:06Z</time>
      </trkpt>
      <trkpt lat="44.5558" lon="1.34768">
        <ele>179.2</ele>
        <time>2020-01-26T16:30:09Z</time>
      </trkpt>
      <trkpt lat="44.55578" lon="1.34763">
        <ele>177.2</ele>
        <time>2020-01-26T16:30:14Z</time>
      </trkpt>
      <trkpt lat="44.55577" lon="1.34757">
        <ele>176</ele>
        <time>2020-01-26T16:30:20Z</time>
      </trkpt>
      <trkpt lat="44.55577" lon="1.34749">
        <ele>175</ele>
        <time>2020-01-26T16:30:25Z</time>
      </trkpt>
      <trkpt lat="44.55575" lon="1.34742">
        <ele>174.3</ele>
        <time>2020-01-26T16:30:29Z</time>
      </trkpt>
      <trkpt lat="44.55573" lon="1.34735">
        <ele>173.1</ele>
        <time>2020-01-26T16:30:33Z</time>
      </trkpt>
      <trkpt lat="44.55573" lon="1.34728">
        <ele>172.2</ele>
        <time>2020-01-26T16:30:37Z</time>
      </trkpt>
      <trkpt lat="44.55573" lon="1.34721">
        <ele>171.8</ele>
        <time>2020-01-26T16:30:41Z</time>
      </trkpt>
      <trkpt lat="44.55575" lon="1.34714">
        <ele>171.8</ele>
        <time>2020-01-26T16:30:45Z</time>
      </trkpt>
      <trkpt lat="44.55576" lon="1.34708">
        <ele>171.3</ele>
        <time>2020-01-26T16:30:49Z</time>
      </trkpt>
      <trkpt lat="44.55578" lon="1.347">
        <ele>172.1</ele>
        <time>2020-01-26T16:30:52Z</time>
      </trkpt>
      <trkpt lat="44.55579" lon="1.34693">
        <ele>172.6</ele>
        <time>2020-01-26T16:30:55Z</time>
      </trkpt>
      <trkpt lat="44.55578" lon="1.34685">
        <ele>173.3</ele>
        <time>2020-01-26T16:30:59Z</time>
      </trkpt>
      <trkpt lat="44.5558" lon="1.34679">
        <ele>175.4</ele>
        <time>2020-01-26T16:31:01Z</time>
      </trkpt>
      <trkpt lat="44.55581" lon="1.34672">
        <ele>176.8</ele>
        <time>2020-01-26T16:31:03Z</time>
      </trkpt>
      <trkpt lat="44.55582" lon="1.34665">
        <ele>178.7</ele>
        <time>2020-01-26T16:31:06Z</time>
      </trkpt>
      <trkpt lat="44.55584" lon="1.34659">
        <ele>182</ele>
        <time>2020-01-26T16:31:08Z</time>
      </trkpt>
      <trkpt lat="44.55586" lon="1.34652">
        <ele>184.3</ele>
        <time>2020-01-26T16:31:11Z</time>
      </trkpt>
      <trkpt lat="44.55586" lon="1.34644">
        <ele>184.5</ele>
        <time>2020-01-26T16:31:16Z</time>
      </trkpt>
      <trkpt lat="44.55586" lon="1.34636">
        <ele>181.9</ele>
        <time>2020-01-26T16:31:21Z</time>
      </trkpt>
      <trkpt lat="44.55587" lon="1.3463">
        <ele>180.8</ele>
        <time>2020-01-26T16:31:25Z</time>
      </trkpt>
      <trkpt lat="44.55587" lon="1.34624">
        <ele>179</ele>
        <time>2020-01-26T16:31:29Z</time>
      </trkpt>
      <trkpt lat="44.55588" lon="1.34617">
        <ele>178</ele>
        <time>2020-01-26T16:31:33Z</time>
      </trkpt>
      <trkpt lat="44.55588" lon="1.34609">
        <ele>176.9</ele>
        <time>2020-01-26T16:31:37Z</time>
      </trkpt>
      <trkpt lat="44.55588" lon="1.34602">
        <ele>176.2</ele>
        <time>2020-01-26T16:31:40Z</time>
      </trkpt>
      <trkpt lat="44.55588" lon="1.34595">
        <ele>174.3</ele>
        <time>2020-01-26T16:31:45Z</time>
      </trkpt>
      <trkpt lat="44.55586" lon="1.34589">
        <ele>173.1</ele>
        <time>2020-01-26T16:31:50Z</time>
      </trkpt>
      <trkpt lat="44.55584" lon="1.34583">
        <ele>170.6</ele>
        <time>2020-01-26T16:31:55Z</time>
      </trkpt>
      <trkpt lat="44.55585" lon="1.34576">
        <ele>170.2</ele>
        <time>2020-01-26T16:31:59Z</time>
      </trkpt>
      <trkpt lat="44.55586" lon="1.34568">
        <ele>170</ele>
        <time>2020-01-26T16:32:03Z</time>
      </trkpt>
      <trkpt lat="44.55584" lon="1.34561">
        <ele>168.7</ele>
        <time>2020-01-26T16:32:09Z</time>
      </trkpt>
      <trkpt lat="44.55584" lon="1.34554">
        <ele>168.8</ele>
        <time>2020-01-26T16:32:13Z</time>
      </trkpt>
      <trkpt lat="44.55584" lon="1.34546">
        <ele>169.9</ele>
        <time>2020-01-26T16:32:18Z</time>
      </trkpt>
      <trkpt lat="44.55584" lon="1.34539">
        <ele>171</ele>
        <time>2020-01-26T16:32:22Z</time>
      </trkpt>
      <trkpt lat="44.55581" lon="1.34534">
        <ele>170.7</ele>
        <time>2020-01-26T16:32:26Z</time>
      </trkpt>
      <trkpt lat="44.55581" lon="1.34527">
        <ele>169.7</ele>
        <time>2020-01-26T16:32:32Z</time>
      </trkpt>
      <trkpt lat="44.55579" lon="1.3452">
        <ele>168.3</ele>
        <time>2020-01-26T16:32:37Z</time>
      </trkpt>
      <trkpt lat="44.5558" lon="1.34514">
        <ele>167.5</ele>
        <time>2020-01-26T16:32:41Z</time>
      </trkpt>
      <trkpt lat="44.55578" lon="1.34507">
        <ele>165.4</ele>
        <time>2020-01-26T16:32:45Z</time>
      </trkpt>
      <trkpt lat="44.55582" lon="1.34499">
        <ele>166.4</ele>
        <time>2020-01-26T16:32:49Z</time>
      </trkpt>
      <trkpt lat="44.55585" lon="1.34492">
        <ele>168.2</ele>
        <time>2020-01-26T16:32:51Z</time>
      </trkpt>
      <trkpt lat="44.55588" lon="1.34485">
        <ele>170.1</ele>
        <time>2020-01-26T16:32:54Z</time>
      </trkpt>
      <trkpt lat="44.55587" lon="1.34477">
        <ele>171.7</ele>
        <time>2020-01-26T16:32:58Z</time>
      </trkpt>
      <trkpt lat="44.55585" lon="1.3447">
        <ele>173</ele>
        <time>2020-01-26T16:33:02Z</time>
      </trkpt>
      <trkpt lat="44.55584" lon="1.34464">
        <ele>174.1</ele>
        <time>2020-01-26T16:33:06Z</time>
      </trkpt>
      <trkpt lat="44.55582" lon="1.34457">
        <ele>174.9</ele>
        <time>2020-01-26T16:33:10Z</time>
      </trkpt>
      <trkpt lat="44.5558" lon="1.34451">
        <ele>174.2</ele>
        <time>2020-01-26T16:33:13Z</time>
      </trkpt>
      <trkpt lat="44.55576" lon="1.34445">
        <ele>173</ele>
        <time>2020-01-26T16:33:17Z</time>
      </trkpt>
      <trkpt lat="44.55574" lon="1.34439">
        <ele>173</ele>
        <time>2020-01-26T16:33:20Z</time>
      </trkpt>
      <trkpt lat="44.5557" lon="1.34431">
        <ele>173.6</ele>
        <time>2020-01-26T16:33:23Z</time>
      </trkpt>
      <trkpt lat="44.55567" lon="1.34424">
        <ele>174.5</ele>
        <time>2020-01-26T16:33:26Z</time>
      </trkpt>
      <trkpt lat="44.55563" lon="1.34418">
        <ele>175.1</ele>
        <time>2020-01-26T16:33:29Z</time>
      </trkpt>
      <trkpt lat="44.55559" lon="1.34412">
        <ele>174.9</ele>
        <time>2020-01-26T16:33:33Z</time>
      </trkpt>
      <trkpt lat="44.55555" lon="1.34408">
        <ele>174</ele>
        <time>2020-01-26T16:33:39Z</time>
      </trkpt>
      <trkpt lat="44.55553" lon="1.34402">
        <ele>172.9</ele>
        <time>2020-01-26T16:33:44Z</time>
      </trkpt>
      <trkpt lat="44.55553" lon="1.34395">
        <ele>172.1</ele>
        <time>2020-01-26T16:33:48Z</time>
      </trkpt>
      <trkpt lat="44.55552" lon="1.34388">
        <ele>171.6</ele>
        <time>2020-01-26T16:33:53Z</time>
      </trkpt>
      <trkpt lat="44.55553" lon="1.34381">
        <ele>171.3</ele>
        <time>2020-01-26T16:33:57Z</time>
      </trkpt>
      <trkpt lat="44.55553" lon="1.34374">
        <ele>170.4</ele>
        <time>2020-01-26T16:34:03Z</time>
      </trkpt>
      <trkpt lat="44.55553" lon="1.34367">
        <ele>169.4</ele>
        <time>2020-01-26T16:34:08Z</time>
      </trkpt>
      <trkpt lat="44.55553" lon="1.34361">
        <ele>168.5</ele>
        <time>2020-01-26T16:34:13Z</time>
      </trkpt>
      <trkpt lat="44.55553" lon="1.34353">
        <ele>168.1</ele>
        <time>2020-01-26T16:34:21Z</time>
      </trkpt>
      <trkpt lat="44.55552" lon="1.34347">
        <ele>167.8</ele>
        <time>2020-01-26T16:34:27Z</time>
      </trkpt>
      <trkpt lat="44.55554" lon="1.34341">
        <ele>169.2</ele>
        <time>2020-01-26T16:34:41Z</time>
      </trkpt>
      <trkpt lat="44.55551" lon="1.34336">
        <ele>172.2</ele>
        <time>2020-01-26T16:36:07Z</time>
      </trkpt>
      <trkpt lat="44.55551" lon="1.34329">
        <ele>171.6</ele>
        <time>2020-01-26T16:38:00Z</time>
      </trkpt>
      <trkpt lat="44.55554" lon="1.34322">
        <ele>172</ele>
        <time>2020-01-26T16:38:07Z</time>
      </trkpt>
      <trkpt lat="44.55556" lon="1.34316">
        <ele>173.8</ele>
        <time>2020-01-26T16:38:12Z</time>
      </trkpt>
      <trkpt lat="44.55556" lon="1.34309">
        <ele>175</ele>
        <time>2020-01-26T16:38:18Z</time>
      </trkpt>
      <trkpt lat="44.55554" lon="1.34302">
        <ele>175.4</ele>
        <time>2020-01-26T16:38:24Z</time>
      </trkpt>
      <trkpt lat="44.55554" lon="1.34296">
        <ele>175.1</ele>
        <time>2020-01-26T16:38:30Z</time>
      </trkpt>
      <trkpt lat="44.55553" lon="1.34289">
        <ele>174.2</ele>
        <time>2020-01-26T16:38:36Z</time>
      </trkpt>
      <trkpt lat="44.55552" lon="1.34283">
        <ele>172.7</ele>
        <time>2020-01-26T16:38:43Z</time>
      </trkpt>
      <trkpt lat="44.55551" lon="1.34276">
        <ele>172.5</ele>
        <time>2020-01-26T16:38:47Z</time>
      </trkpt>
      <trkpt lat="44.55552" lon="1.34268">
        <ele>173</ele>
        <time>2020-01-26T16:38:51Z</time>
      </trkpt>
      <trkpt lat="44.55552" lon="1.34261">
        <ele>173.6</ele>
        <time>2020-01-26T16:38:56Z</time>
      </trkpt>
      <trkpt lat="44.55553" lon="1.34254">
        <ele>175.4</ele>
        <time>2020-01-26T16:39:03Z</time>
      </trkpt>
      <trkpt lat="44.55552" lon="1.34246">
        <ele>175.6</ele>
        <time>2020-01-26T16:39:07Z</time>
      </trkpt>
      <trkpt lat="44.5555" lon="1.3424">
        <ele>174.8</ele>
        <time>2020-01-26T16:39:12Z</time>
      </trkpt>
      <trkpt lat="44.55548" lon="1.34233">
        <ele>173.3</ele>
        <time>2020-01-26T16:39:16Z</time>
      </trkpt>
      <trkpt lat="44.55548" lon="1.34227">
        <ele>172.6</ele>
        <time>2020-01-26T16:39:21Z</time>
      </trkpt>
      <trkpt lat="44.55547" lon="1.3422">
        <ele>172.8</ele>
        <time>2020-01-26T16:39:24Z</time>
      </trkpt>
      <trkpt lat="44.55549" lon="1.34212">
        <ele>173.2</ele>
        <time>2020-01-26T16:39:28Z</time>
      </trkpt>
      <trkpt lat="44.55549" lon="1.34206">
        <ele>172.6</ele>
        <time>2020-01-26T16:39:32Z</time>
      </trkpt>
      <trkpt lat="44.5555" lon="1.34199">
        <ele>172.5</ele>
        <time>2020-01-26T16:39:37Z</time>
      </trkpt>
      <trkpt lat="44.55549" lon="1.34193">
        <ele>171.8</ele>
        <time>2020-01-26T16:39:43Z</time>
      </trkpt>
      <trkpt lat="44.55549" lon="1.34185">
        <ele>171.2</ele>
        <time>2020-01-26T16:39:51Z</time>
      </trkpt>
      <trkpt lat="44.55548" lon="1.34179">
        <ele>169.5</ele>
        <time>2020-01-26T16:39:56Z</time>
      </trkpt>
      <trkpt lat="44.55548" lon="1.34172">
        <ele>169.7</ele>
        <time>2020-01-26T16:39:59Z</time>
      </trkpt>
      <trkpt lat="44.55548" lon="1.34164">
        <ele>170.2</ele>
        <time>2020-01-26T16:40:03Z</time>
      </trkpt>
      <trkpt lat="44.55548" lon="1.34157">
        <ele>171</ele>
        <time>2020-01-26T16:40:06Z</time>
      </trkpt>
      <trkpt lat="44.55547" lon="1.3415">
        <ele>170.8</ele>
        <time>2020-01-26T16:40:10Z</time>
      </trkpt>
      <trkpt lat="44.55548" lon="1.34143">
        <ele>170.4</ele>
        <time>2020-01-26T16:40:15Z</time>
      </trkpt>
      <trkpt lat="44.55549" lon="1.34136">
        <ele>169</ele>
        <time>2020-01-26T16:40:22Z</time>
      </trkpt>
      <trkpt lat="44.55549" lon="1.3413">
        <ele>168.4</ele>
        <time>2020-01-26T16:40:27Z</time>
      </trkpt>
      <trkpt lat="44.55548" lon="1.34122">
        <ele>168</ele>
        <time>2020-01-26T16:40:38Z</time>
      </trkpt>
      <trkpt lat="44.55546" lon="1.34116">
        <ele>167.2</ele>
        <time>2020-01-26T16:40:45Z</time>
      </trkpt>
      <trkpt lat="44.55545" lon="1.3411">
        <ele>165.9</ele>
        <time>2020-01-26T16:40:51Z</time>
      </trkpt>
      <trkpt lat="44.55543" lon="1.34103">
        <ele>164.9</ele>
        <time>2020-01-26T16:40:55Z</time>
      </trkpt>
      <trkpt lat="44.5554" lon="1.34098">
        <ele>163.3</ele>
        <time>2020-01-26T16:41:00Z</time>
      </trkpt>
      <trkpt lat="44.55538" lon="1.34092">
        <ele>160.9</ele>
        <time>2020-01-26T16:41:05Z</time>
      </trkpt>
      <trkpt lat="44.55535" lon="1.34086">
        <ele>158.2</ele>
        <time>2020-01-26T16:41:10Z</time>
      </trkpt>
      <trkpt lat="44.55533" lon="1.34079">
        <ele>156.1</ele>
        <time>2020-01-26T16:41:15Z</time>
      </trkpt>
      <trkpt lat="44.55533" lon="1.34072">
        <ele>155.7</ele>
        <time>2020-01-26T16:41:19Z</time>
      </trkpt>
      <trkpt lat="44.55535" lon="1.34063">
        <ele>156.1</ele>
        <time>2020-01-26T16:41:22Z</time>
      </trkpt>
      <trkpt lat="44.55535" lon="1.34055">
        <ele>156.5</ele>
        <time>2020-01-26T16:41:25Z</time>
      </trkpt>
      <trkpt lat="44.55535" lon="1.34048">
        <ele>157.7</ele>
        <time>2020-01-26T16:41:28Z</time>
      </trkpt>
      <trkpt lat="44.55535" lon="1.34041">
        <ele>159</ele>
        <time>2020-01-26T16:41:32Z</time>
      </trkpt>
      <trkpt lat="44.55535" lon="1.34033">
        <ele>158.3</ele>
        <time>2020-01-26T16:41:37Z</time>
      </trkpt>
      <trkpt lat="44.55539" lon="1.34029">
        <ele>158.7</ele>
        <time>2020-01-26T16:41:40Z</time>
      </trkpt>
      <trkpt lat="44.55542" lon="1.34024">
        <ele>159.2</ele>
        <time>2020-01-26T16:41:43Z</time>
      </trkpt>
      <trkpt lat="44.55546" lon="1.34021">
        <ele>159.8</ele>
        <time>2020-01-26T16:41:47Z</time>
      </trkpt>
      <trkpt lat="44.55551" lon="1.34019">
        <ele>161.2</ele>
        <time>2020-01-26T16:41:51Z</time>
      </trkpt>
      <trkpt lat="44.55556" lon="1.34015">
        <ele>163.2</ele>
        <time>2020-01-26T16:41:55Z</time>
      </trkpt>
      <trkpt lat="44.5556" lon="1.34013">
        <ele>165</ele>
        <time>2020-01-26T16:41:59Z</time>
      </trkpt>
      <trkpt lat="44.55565" lon="1.3401">
        <ele>166.3</ele>
        <time>2020-01-26T16:42:03Z</time>
      </trkpt>
      <trkpt lat="44.55569" lon="1.34005">
        <ele>166.6</ele>
        <time>2020-01-26T16:42:08Z</time>
      </trkpt>
      <trkpt lat="44.55572" lon="1.34">
        <ele>166.2</ele>
        <time>2020-01-26T16:42:13Z</time>
      </trkpt>
      <trkpt lat="44.55574" lon="1.33994">
        <ele>165.7</ele>
        <time>2020-01-26T16:42:18Z</time>
      </trkpt>
      <trkpt lat="44.55574" lon="1.33987">
        <ele>164.6</ele>
        <time>2020-01-26T16:42:23Z</time>
      </trkpt>
      <trkpt lat="44.55574" lon="1.3398">
        <ele>163.7</ele>
        <time>2020-01-26T16:42:28Z</time>
      </trkpt>
      <trkpt lat="44.55572" lon="1.33972">
        <ele>163.2</ele>
        <time>2020-01-26T16:42:32Z</time>
      </trkpt>
      <trkpt lat="44.5557" lon="1.33966">
        <ele>162.8</ele>
        <time>2020-01-26T16:42:35Z</time>
      </trkpt>
      <trkpt lat="44.55569" lon="1.3396">
        <ele>161.7</ele>
        <time>2020-01-26T16:42:39Z</time>
      </trkpt>
      <trkpt lat="44.55568" lon="1.33953">
        <ele>161.8</ele>
        <time>2020-01-26T16:42:42Z</time>
      </trkpt>
      <trkpt lat="44.55567" lon="1.33946">
        <ele>161.5</ele>
        <time>2020-01-26T16:42:46Z</time>
      </trkpt>
      <trkpt lat="44.55566" lon="1.3394">
        <ele>161.7</ele>
        <time>2020-01-26T16:42:50Z</time>
      </trkpt>
      <trkpt lat="44.55565" lon="1.33933">
        <ele>161.5</ele>
        <time>2020-01-26T16:42:54Z</time>
      </trkpt>
      <trkpt lat="44.55564" lon="1.33927">
        <ele>161.6</ele>
        <time>2020-01-26T16:42:58Z</time>
      </trkpt>
      <trkpt lat="44.55562" lon="1.3392">
        <ele>161.8</ele>
        <time>2020-01-26T16:43:03Z</time>
      </trkpt>
      <trkpt lat="44.55561" lon="1.33914">
        <ele>161.9</ele>
        <time>2020-01-26T16:43:07Z</time>
      </trkpt>
      <trkpt lat="44.55559" lon="1.33906">
        <ele>161.5</ele>
        <time>2020-01-26T16:43:11Z</time>
      </trkpt>
      <trkpt lat="44.55558" lon="1.33898">
        <ele>161.2</ele>
        <time>2020-01-26T16:43:15Z</time>
      </trkpt>
      <trkpt lat="44.55557" lon="1.33892">
        <ele>161.4</ele>
        <time>2020-01-26T16:43:19Z</time>
      </trkpt>
      <trkpt lat="44.55556" lon="1.33885">
        <ele>161.9</ele>
        <time>2020-01-26T16:43:23Z</time>
      </trkpt>
      <trkpt lat="44.55553" lon="1.33877">
        <ele>161.6</ele>
        <time>2020-01-26T16:43:27Z</time>
      </trkpt>
      <trkpt lat="44.55552" lon="1.3387">
        <ele>161.7</ele>
        <time>2020-01-26T16:43:31Z</time>
      </trkpt>
      <trkpt lat="44.55551" lon="1.33863">
        <ele>161.5</ele>
        <time>2020-01-26T16:43:37Z</time>
      </trkpt>
      <trkpt lat="44.5555" lon="1.33856">
        <ele>161.4</ele>
        <time>2020-01-26T16:43:41Z</time>
      </trkpt>
      <trkpt lat="44.55549" lon="1.33849">
        <ele>161.6</ele>
        <time>2020-01-26T16:43:46Z</time>
      </trkpt>
      <trkpt lat="44.55552" lon="1.33844">
        <ele>161.4</ele>
        <time>2020-01-26T16:43:51Z</time>
      </trkpt>
      <trkpt lat="44.55556" lon="1.3384">
        <ele>161.6</ele>
        <time>2020-01-26T16:43:55Z</time>
      </trkpt>
      <trkpt lat="44.55561" lon="1.33837">
        <ele>161.4</ele>
        <time>2020-01-26T16:44:00Z</time>
      </trkpt>
      <trkpt lat="44.55564" lon="1.33831">
        <ele>160.9</ele>
        <time>2020-01-26T16:44:05Z</time>
      </trkpt>
      <trkpt lat="44.55565" lon="1.33823">
        <ele>160.5</ele>
        <time>2020-01-26T16:44:10Z</time>
      </trkpt>
      <trkpt lat="44.55567" lon="1.33817">
        <ele>160</ele>
        <time>2020-01-26T16:44:14Z</time>
      </trkpt>
      <trkpt lat="44.5557" lon="1.33811">
        <ele>159.7</ele>
        <time>2020-01-26T16:44:18Z</time>
      </trkpt>
      <trkpt lat="44.55573" lon="1.33806">
        <ele>159.7</ele>
        <time>2020-01-26T16:44:23Z</time>
      </trkpt>
      <trkpt lat="44.55576" lon="1.338">
        <ele>159.1</ele>
        <time>2020-01-26T16:44:28Z</time>
      </trkpt>
      <trkpt lat="44.55577" lon="1.33793">
        <ele>158.5</ele>
        <time>2020-01-26T16:44:33Z</time>
      </trkpt>
      <trkpt lat="44.55578" lon="1.33786">
        <ele>158.1</ele>
        <time>2020-01-26T16:44:38Z</time>
      </trkpt>
      <trkpt lat="44.55576" lon="1.3378">
        <ele>158</ele>
        <time>2020-01-26T16:44:42Z</time>
      </trkpt>
      <trkpt lat="44.55578" lon="1.33774">
        <ele>159.1</ele>
        <time>2020-01-26T16:44:50Z</time>
      </trkpt>
      <trkpt lat="44.55582" lon="1.3377">
        <ele>160.2</ele>
        <time>2020-01-26T16:44:55Z</time>
      </trkpt>
      <trkpt lat="44.55586" lon="1.33768">
        <ele>160.9</ele>
        <time>2020-01-26T16:45:00Z</time>
      </trkpt>
      <trkpt lat="44.55591" lon="1.33767">
        <ele>161.9</ele>
        <time>2020-01-26T16:45:05Z</time>
      </trkpt>
    </trkseg>
  </trk>
</gpx>